<?xml version="1.0" encoding="UTF-8" standalone="no" ?>
<gpx xmlns="http://www.topografix.com/GPX/1/1" xmlns:xsi="http://www.w3.org/2001/XMLSchema-instance" xsi:schemaLocation="http://www.topografix.com/GPX/1/1 http://www.topografix.com/GPX/1/1/gpx.xsd" version="1.1" creator="VisuGPX - https://www.visugpx.com">
  <metadata>
    <name>du côté de Mérindol (Vaucluse)</name>
    <desc><![CDATA[Randonnée de 24 Km dans le Luberon avec une vue magnifique sur la vallée de la Durance et les Alpilles.]]></desc>
  </metadata>
  <trk>
    <name><![CDATA[du côté de Merindol]]></name>
    <trkseg>
      <trkpt lat="43.75904" lon="5.23763">
        <ele>157.7</ele>
        <time>2016-02-14T08:36:20Z</time>
      </trkpt>
      <trkpt lat="43.75905" lon="5.23762">
        <ele>157.7</ele>
        <time>2016-02-14T08:36:21Z</time>
      </trkpt>
      <trkpt lat="43.75898" lon="5.2377">
        <ele>157.7</ele>
        <time>2016-02-14T08:36:32Z</time>
      </trkpt>
      <trkpt lat="43.75886" lon="5.23778">
        <ele>157.7</ele>
        <time>2016-02-14T08:37:14Z</time>
      </trkpt>
      <trkpt lat="43.75892" lon="5.23788">
        <ele>158.4</ele>
        <time>2016-02-14T08:37:40Z</time>
      </trkpt>
      <trkpt lat="43.75882" lon="5.23782">
        <ele>158.9</ele>
        <time>2016-02-14T08:38:00Z</time>
      </trkpt>
      <trkpt lat="43.75872" lon="5.23782">
        <ele>159.1</ele>
        <time>2016-02-14T08:38:26Z</time>
      </trkpt>
      <trkpt lat="43.75863" lon="5.23783">
        <ele>159.2</ele>
        <time>2016-02-14T08:38:40Z</time>
      </trkpt>
      <trkpt lat="43.75864" lon="5.23769">
        <ele>159.2</ele>
        <time>2016-02-14T08:39:36Z</time>
      </trkpt>
      <trkpt lat="43.75865" lon="5.23756">
        <ele>159.1</ele>
        <time>2016-02-14T08:39:44Z</time>
      </trkpt>
      <trkpt lat="43.75866" lon="5.23743">
        <ele>158.4</ele>
        <time>2016-02-14T08:39:53Z</time>
      </trkpt>
      <trkpt lat="43.75867" lon="5.2373">
        <ele>158.6</ele>
        <time>2016-02-14T08:40:02Z</time>
      </trkpt>
      <trkpt lat="43.7587" lon="5.23717">
        <ele>157.8</ele>
        <time>2016-02-14T08:40:13Z</time>
      </trkpt>
      <trkpt lat="43.75873" lon="5.23705">
        <ele>156.9</ele>
        <time>2016-02-14T08:40:22Z</time>
      </trkpt>
      <trkpt lat="43.75874" lon="5.23692">
        <ele>156.3</ele>
        <time>2016-02-14T08:40:29Z</time>
      </trkpt>
      <trkpt lat="43.75877" lon="5.23678">
        <ele>155.8</ele>
        <time>2016-02-14T08:40:34Z</time>
      </trkpt>
      <trkpt lat="43.75879" lon="5.23666">
        <ele>155.5</ele>
        <time>2016-02-14T08:40:38Z</time>
      </trkpt>
      <trkpt lat="43.75882" lon="5.23652">
        <ele>155.1</ele>
        <time>2016-02-14T08:40:45Z</time>
      </trkpt>
      <trkpt lat="43.75887" lon="5.2364">
        <ele>154.9</ele>
        <time>2016-02-14T08:40:51Z</time>
      </trkpt>
      <trkpt lat="43.75898" lon="5.2364">
        <ele>154.7</ele>
        <time>2016-02-14T08:40:57Z</time>
      </trkpt>
      <trkpt lat="43.75904" lon="5.23649">
        <ele>154.7</ele>
        <time>2016-02-14T08:41:05Z</time>
      </trkpt>
      <trkpt lat="43.75909" lon="5.2366">
        <ele>154.9</ele>
        <time>2016-02-14T08:41:12Z</time>
      </trkpt>
      <trkpt lat="43.75916" lon="5.2367">
        <ele>155.3</ele>
        <time>2016-02-14T08:41:21Z</time>
      </trkpt>
      <trkpt lat="43.75923" lon="5.2368">
        <ele>155.7</ele>
        <time>2016-02-14T08:41:26Z</time>
      </trkpt>
      <trkpt lat="43.75928" lon="5.2369">
        <ele>156.3</ele>
        <time>2016-02-14T08:41:32Z</time>
      </trkpt>
      <trkpt lat="43.75935" lon="5.23699">
        <ele>157.1</ele>
        <time>2016-02-14T08:41:41Z</time>
      </trkpt>
      <trkpt lat="43.75943" lon="5.23707">
        <ele>158</ele>
        <time>2016-02-14T08:41:50Z</time>
      </trkpt>
      <trkpt lat="43.75949" lon="5.23718">
        <ele>161</ele>
        <time>2016-02-14T08:42:40Z</time>
      </trkpt>
      <trkpt lat="43.75956" lon="5.23725">
        <ele>161.8</ele>
        <time>2016-02-14T08:44:00Z</time>
      </trkpt>
      <trkpt lat="43.75962" lon="5.23735">
        <ele>161.7</ele>
        <time>2016-02-14T08:44:04Z</time>
      </trkpt>
      <trkpt lat="43.75969" lon="5.23744">
        <ele>162.1</ele>
        <time>2016-02-14T08:44:11Z</time>
      </trkpt>
      <trkpt lat="43.75977" lon="5.23752">
        <ele>162.4</ele>
        <time>2016-02-14T08:44:18Z</time>
      </trkpt>
      <trkpt lat="43.75985" lon="5.23761">
        <ele>162.9</ele>
        <time>2016-02-14T08:44:26Z</time>
      </trkpt>
      <trkpt lat="43.75995" lon="5.23766">
        <ele>163.2</ele>
        <time>2016-02-14T08:44:31Z</time>
      </trkpt>
      <trkpt lat="43.76004" lon="5.23771">
        <ele>163.6</ele>
        <time>2016-02-14T08:44:36Z</time>
      </trkpt>
      <trkpt lat="43.76014" lon="5.23773">
        <ele>164.1</ele>
        <time>2016-02-14T08:44:41Z</time>
      </trkpt>
      <trkpt lat="43.76023" lon="5.23779">
        <ele>164.6</ele>
        <time>2016-02-14T08:44:47Z</time>
      </trkpt>
      <trkpt lat="43.76031" lon="5.23786">
        <ele>165.1</ele>
        <time>2016-02-14T08:44:54Z</time>
      </trkpt>
      <trkpt lat="43.7604" lon="5.23792">
        <ele>165.8</ele>
        <time>2016-02-14T08:45:01Z</time>
      </trkpt>
      <trkpt lat="43.76049" lon="5.23798">
        <ele>166.1</ele>
        <time>2016-02-14T08:45:05Z</time>
      </trkpt>
      <trkpt lat="43.76058" lon="5.23804">
        <ele>166.5</ele>
        <time>2016-02-14T08:45:10Z</time>
      </trkpt>
      <trkpt lat="43.76067" lon="5.23809">
        <ele>167</ele>
        <time>2016-02-14T08:45:15Z</time>
      </trkpt>
      <trkpt lat="43.76077" lon="5.23814">
        <ele>167.6</ele>
        <time>2016-02-14T08:45:21Z</time>
      </trkpt>
      <trkpt lat="43.76085" lon="5.23822">
        <ele>168.3</ele>
        <time>2016-02-14T08:45:29Z</time>
      </trkpt>
      <trkpt lat="43.76094" lon="5.23829">
        <ele>169.2</ele>
        <time>2016-02-14T08:45:38Z</time>
      </trkpt>
      <trkpt lat="43.76101" lon="5.23837">
        <ele>169.6</ele>
        <time>2016-02-14T08:45:43Z</time>
      </trkpt>
      <trkpt lat="43.76111" lon="5.23841">
        <ele>170.1</ele>
        <time>2016-02-14T08:45:50Z</time>
      </trkpt>
      <trkpt lat="43.7612" lon="5.23847">
        <ele>170.5</ele>
        <time>2016-02-14T08:45:57Z</time>
      </trkpt>
      <trkpt lat="43.7613" lon="5.23851">
        <ele>171.1</ele>
        <time>2016-02-14T08:46:04Z</time>
      </trkpt>
      <trkpt lat="43.76139" lon="5.23853">
        <ele>171.5</ele>
        <time>2016-02-14T08:46:12Z</time>
      </trkpt>
      <trkpt lat="43.76149" lon="5.23859">
        <ele>171.9</ele>
        <time>2016-02-14T08:46:20Z</time>
      </trkpt>
      <trkpt lat="43.76157" lon="5.23863">
        <ele>172.2</ele>
        <time>2016-02-14T08:46:28Z</time>
      </trkpt>
      <trkpt lat="43.76167" lon="5.23867">
        <ele>172.5</ele>
        <time>2016-02-14T08:46:38Z</time>
      </trkpt>
      <trkpt lat="43.76176" lon="5.23872">
        <ele>172.7</ele>
        <time>2016-02-14T08:46:45Z</time>
      </trkpt>
      <trkpt lat="43.76186" lon="5.23873">
        <ele>172.9</ele>
        <time>2016-02-14T08:46:51Z</time>
      </trkpt>
      <trkpt lat="43.76197" lon="5.23871">
        <ele>173.2</ele>
        <time>2016-02-14T08:46:58Z</time>
      </trkpt>
      <trkpt lat="43.76209" lon="5.2387">
        <ele>173.4</ele>
        <time>2016-02-14T08:47:04Z</time>
      </trkpt>
      <trkpt lat="43.76219" lon="5.2387">
        <ele>173.6</ele>
        <time>2016-02-14T08:47:12Z</time>
      </trkpt>
      <trkpt lat="43.76228" lon="5.23873">
        <ele>173.7</ele>
        <time>2016-02-14T08:47:15Z</time>
      </trkpt>
      <trkpt lat="43.76236" lon="5.23881">
        <ele>174.1</ele>
        <time>2016-02-14T08:47:21Z</time>
      </trkpt>
      <trkpt lat="43.76239" lon="5.23893">
        <ele>174.5</ele>
        <time>2016-02-14T08:47:29Z</time>
      </trkpt>
      <trkpt lat="43.7624" lon="5.23906">
        <ele>174.8</ele>
        <time>2016-02-14T08:47:36Z</time>
      </trkpt>
      <trkpt lat="43.7624" lon="5.23919">
        <ele>175.1</ele>
        <time>2016-02-14T08:47:43Z</time>
      </trkpt>
      <trkpt lat="43.76248" lon="5.2393">
        <ele>175.3</ele>
        <time>2016-02-14T08:47:48Z</time>
      </trkpt>
      <trkpt lat="43.76254" lon="5.23939">
        <ele>175.6</ele>
        <time>2016-02-14T08:47:54Z</time>
      </trkpt>
      <trkpt lat="43.76264" lon="5.23947">
        <ele>176.1</ele>
        <time>2016-02-14T08:48:04Z</time>
      </trkpt>
      <trkpt lat="43.76275" lon="5.23949">
        <ele>176.3</ele>
        <time>2016-02-14T08:48:10Z</time>
      </trkpt>
      <trkpt lat="43.76286" lon="5.23948">
        <ele>176.6</ele>
        <time>2016-02-14T08:48:16Z</time>
      </trkpt>
      <trkpt lat="43.76295" lon="5.2395">
        <ele>176.8</ele>
        <time>2016-02-14T08:48:19Z</time>
      </trkpt>
      <trkpt lat="43.76305" lon="5.23951">
        <ele>177.1</ele>
        <time>2016-02-14T08:48:24Z</time>
      </trkpt>
      <trkpt lat="43.76314" lon="5.23953">
        <ele>177.7</ele>
        <time>2016-02-14T08:48:31Z</time>
      </trkpt>
      <trkpt lat="43.76323" lon="5.23957">
        <ele>178.1</ele>
        <time>2016-02-14T08:48:37Z</time>
      </trkpt>
      <trkpt lat="43.76331" lon="5.23964">
        <ele>178.6</ele>
        <time>2016-02-14T08:48:45Z</time>
      </trkpt>
      <trkpt lat="43.7634" lon="5.23968">
        <ele>179</ele>
        <time>2016-02-14T08:48:52Z</time>
      </trkpt>
      <trkpt lat="43.76349" lon="5.2397">
        <ele>179.3</ele>
        <time>2016-02-14T08:48:59Z</time>
      </trkpt>
      <trkpt lat="43.76357" lon="5.23978">
        <ele>179.6</ele>
        <time>2016-02-14T08:49:10Z</time>
      </trkpt>
      <trkpt lat="43.76366" lon="5.23982">
        <ele>179.7</ele>
        <time>2016-02-14T08:49:15Z</time>
      </trkpt>
      <trkpt lat="43.76375" lon="5.23985">
        <ele>179.8</ele>
        <time>2016-02-14T08:49:20Z</time>
      </trkpt>
      <trkpt lat="43.76386" lon="5.23989">
        <ele>179.9</ele>
        <time>2016-02-14T08:49:24Z</time>
      </trkpt>
      <trkpt lat="43.76395" lon="5.23994">
        <ele>180.5</ele>
        <time>2016-02-14T08:49:33Z</time>
      </trkpt>
      <trkpt lat="43.76404" lon="5.23996">
        <ele>180.8</ele>
        <time>2016-02-14T08:49:38Z</time>
      </trkpt>
      <trkpt lat="43.76415" lon="5.24001">
        <ele>181.2</ele>
        <time>2016-02-14T08:49:44Z</time>
      </trkpt>
      <trkpt lat="43.76424" lon="5.24003">
        <ele>181.6</ele>
        <time>2016-02-14T08:49:53Z</time>
      </trkpt>
      <trkpt lat="43.76434" lon="5.24005">
        <ele>182</ele>
        <time>2016-02-14T08:49:59Z</time>
      </trkpt>
      <trkpt lat="43.76444" lon="5.2401">
        <ele>182.4</ele>
        <time>2016-02-14T08:50:05Z</time>
      </trkpt>
      <trkpt lat="43.76453" lon="5.24013">
        <ele>182.7</ele>
        <time>2016-02-14T08:50:10Z</time>
      </trkpt>
      <trkpt lat="43.76463" lon="5.24014">
        <ele>183.1</ele>
        <time>2016-02-14T08:50:16Z</time>
      </trkpt>
      <trkpt lat="43.76473" lon="5.24014">
        <ele>183.4</ele>
        <time>2016-02-14T08:50:21Z</time>
      </trkpt>
      <trkpt lat="43.76482" lon="5.24017">
        <ele>183.8</ele>
        <time>2016-02-14T08:50:30Z</time>
      </trkpt>
      <trkpt lat="43.76493" lon="5.24016">
        <ele>184.1</ele>
        <time>2016-02-14T08:50:37Z</time>
      </trkpt>
      <trkpt lat="43.76501" lon="5.24021">
        <ele>184.4</ele>
        <time>2016-02-14T08:50:42Z</time>
      </trkpt>
      <trkpt lat="43.76512" lon="5.24023">
        <ele>185</ele>
        <time>2016-02-14T08:50:51Z</time>
      </trkpt>
      <trkpt lat="43.7652" lon="5.2403">
        <ele>185.9</ele>
        <time>2016-02-14T08:51:01Z</time>
      </trkpt>
      <trkpt lat="43.7653" lon="5.24034">
        <ele>186.3</ele>
        <time>2016-02-14T08:51:07Z</time>
      </trkpt>
      <trkpt lat="43.7654" lon="5.24037">
        <ele>186.7</ele>
        <time>2016-02-14T08:51:11Z</time>
      </trkpt>
      <trkpt lat="43.76549" lon="5.24039">
        <ele>186.8</ele>
        <time>2016-02-14T08:51:13Z</time>
      </trkpt>
      <trkpt lat="43.76559" lon="5.24042">
        <ele>187.3</ele>
        <time>2016-02-14T08:51:20Z</time>
      </trkpt>
      <trkpt lat="43.76568" lon="5.24046">
        <ele>188.2</ele>
        <time>2016-02-14T08:51:28Z</time>
      </trkpt>
      <trkpt lat="43.76577" lon="5.24047">
        <ele>188.7</ele>
        <time>2016-02-14T08:51:33Z</time>
      </trkpt>
      <trkpt lat="43.76601" lon="5.24058">
        <ele>190</ele>
        <time>2016-02-14T08:53:16Z</time>
      </trkpt>
      <trkpt lat="43.76609" lon="5.24065">
        <ele>190.6</ele>
        <time>2016-02-14T08:53:30Z</time>
      </trkpt>
      <trkpt lat="43.76621" lon="5.24066">
        <ele>190.9</ele>
        <time>2016-02-14T08:53:37Z</time>
      </trkpt>
      <trkpt lat="43.7663" lon="5.24066">
        <ele>191.5</ele>
        <time>2016-02-14T08:53:44Z</time>
      </trkpt>
      <trkpt lat="43.7664" lon="5.24068">
        <ele>192.2</ele>
        <time>2016-02-14T08:53:54Z</time>
      </trkpt>
      <trkpt lat="43.76651" lon="5.24069">
        <ele>192.4</ele>
        <time>2016-02-14T08:53:57Z</time>
      </trkpt>
      <trkpt lat="43.76661" lon="5.2407">
        <ele>192.7</ele>
        <time>2016-02-14T08:54:01Z</time>
      </trkpt>
      <trkpt lat="43.76672" lon="5.2407">
        <ele>193.1</ele>
        <time>2016-02-14T08:54:06Z</time>
      </trkpt>
      <trkpt lat="43.76681" lon="5.2407">
        <ele>193.5</ele>
        <time>2016-02-14T08:54:11Z</time>
      </trkpt>
      <trkpt lat="43.76691" lon="5.2407">
        <ele>194.1</ele>
        <time>2016-02-14T08:54:19Z</time>
      </trkpt>
      <trkpt lat="43.767" lon="5.24069">
        <ele>194.7</ele>
        <time>2016-02-14T08:54:28Z</time>
      </trkpt>
      <trkpt lat="43.7671" lon="5.24072">
        <ele>195.2</ele>
        <time>2016-02-14T08:54:37Z</time>
      </trkpt>
      <trkpt lat="43.76719" lon="5.24074">
        <ele>195.6</ele>
        <time>2016-02-14T08:54:43Z</time>
      </trkpt>
      <trkpt lat="43.76728" lon="5.24075">
        <ele>195.9</ele>
        <time>2016-02-14T08:54:48Z</time>
      </trkpt>
      <trkpt lat="43.76738" lon="5.24073">
        <ele>196.1</ele>
        <time>2016-02-14T08:54:54Z</time>
      </trkpt>
      <trkpt lat="43.76748" lon="5.24072">
        <ele>196.5</ele>
        <time>2016-02-14T08:55:00Z</time>
      </trkpt>
      <trkpt lat="43.76757" lon="5.24071">
        <ele>196.9</ele>
        <time>2016-02-14T08:55:06Z</time>
      </trkpt>
      <trkpt lat="43.76766" lon="5.24075">
        <ele>197.6</ele>
        <time>2016-02-14T08:55:13Z</time>
      </trkpt>
      <trkpt lat="43.76772" lon="5.24085">
        <ele>198.1</ele>
        <time>2016-02-14T08:55:20Z</time>
      </trkpt>
      <trkpt lat="43.76781" lon="5.24091">
        <ele>198.5</ele>
        <time>2016-02-14T08:55:25Z</time>
      </trkpt>
      <trkpt lat="43.76786" lon="5.24102">
        <ele>199.1</ele>
        <time>2016-02-14T08:55:33Z</time>
      </trkpt>
      <trkpt lat="43.76794" lon="5.2411">
        <ele>199.6</ele>
        <time>2016-02-14T08:55:40Z</time>
      </trkpt>
      <trkpt lat="43.76797" lon="5.24121">
        <ele>200.2</ele>
        <time>2016-02-14T08:55:48Z</time>
      </trkpt>
      <trkpt lat="43.76799" lon="5.24135">
        <ele>201.3</ele>
        <time>2016-02-14T08:55:59Z</time>
      </trkpt>
      <trkpt lat="43.76808" lon="5.24142">
        <ele>202</ele>
        <time>2016-02-14T08:56:05Z</time>
      </trkpt>
      <trkpt lat="43.76815" lon="5.2415">
        <ele>202.8</ele>
        <time>2016-02-14T08:56:15Z</time>
      </trkpt>
      <trkpt lat="43.76824" lon="5.24156">
        <ele>203.4</ele>
        <time>2016-02-14T08:56:22Z</time>
      </trkpt>
      <trkpt lat="43.76833" lon="5.24159">
        <ele>203.9</ele>
        <time>2016-02-14T08:56:28Z</time>
      </trkpt>
      <trkpt lat="43.76843" lon="5.24163">
        <ele>204.9</ele>
        <time>2016-02-14T08:56:37Z</time>
      </trkpt>
      <trkpt lat="43.76853" lon="5.24166">
        <ele>205.5</ele>
        <time>2016-02-14T08:56:44Z</time>
      </trkpt>
      <trkpt lat="43.7686" lon="5.24174">
        <ele>206.5</ele>
        <time>2016-02-14T08:56:54Z</time>
      </trkpt>
      <trkpt lat="43.76867" lon="5.24182">
        <ele>207</ele>
        <time>2016-02-14T08:57:01Z</time>
      </trkpt>
      <trkpt lat="43.76876" lon="5.24186">
        <ele>207.4</ele>
        <time>2016-02-14T08:57:07Z</time>
      </trkpt>
      <trkpt lat="43.76886" lon="5.24189">
        <ele>207.6</ele>
        <time>2016-02-14T08:57:11Z</time>
      </trkpt>
      <trkpt lat="43.76897" lon="5.24193">
        <ele>208</ele>
        <time>2016-02-14T08:57:15Z</time>
      </trkpt>
      <trkpt lat="43.76907" lon="5.24192">
        <ele>208.8</ele>
        <time>2016-02-14T08:57:23Z</time>
      </trkpt>
      <trkpt lat="43.76916" lon="5.2419">
        <ele>209.3</ele>
        <time>2016-02-14T08:57:28Z</time>
      </trkpt>
      <trkpt lat="43.76926" lon="5.2419">
        <ele>209.7</ele>
        <time>2016-02-14T08:57:33Z</time>
      </trkpt>
      <trkpt lat="43.76935" lon="5.2419">
        <ele>210.4</ele>
        <time>2016-02-14T08:57:40Z</time>
      </trkpt>
      <trkpt lat="43.76946" lon="5.24193">
        <ele>210.9</ele>
        <time>2016-02-14T08:57:44Z</time>
      </trkpt>
      <trkpt lat="43.76956" lon="5.2419">
        <ele>211.6</ele>
        <time>2016-02-14T08:57:50Z</time>
      </trkpt>
      <trkpt lat="43.76967" lon="5.24187">
        <ele>212.3</ele>
        <time>2016-02-14T08:57:56Z</time>
      </trkpt>
      <trkpt lat="43.76976" lon="5.24184">
        <ele>212.8</ele>
        <time>2016-02-14T08:58:02Z</time>
      </trkpt>
      <trkpt lat="43.76986" lon="5.24182">
        <ele>213.4</ele>
        <time>2016-02-14T08:58:08Z</time>
      </trkpt>
      <trkpt lat="43.76995" lon="5.2418">
        <ele>214.3</ele>
        <time>2016-02-14T08:58:16Z</time>
      </trkpt>
      <trkpt lat="43.77004" lon="5.24174">
        <ele>214.9</ele>
        <time>2016-02-14T08:58:25Z</time>
      </trkpt>
      <trkpt lat="43.77013" lon="5.24169">
        <ele>215.6</ele>
        <time>2016-02-14T08:58:31Z</time>
      </trkpt>
      <trkpt lat="43.77023" lon="5.24167">
        <ele>216.2</ele>
        <time>2016-02-14T08:58:39Z</time>
      </trkpt>
      <trkpt lat="43.77032" lon="5.24164">
        <ele>216.5</ele>
        <time>2016-02-14T08:58:44Z</time>
      </trkpt>
      <trkpt lat="43.77041" lon="5.24159">
        <ele>216.7</ele>
        <time>2016-02-14T08:58:47Z</time>
      </trkpt>
      <trkpt lat="43.77048" lon="5.2415">
        <ele>217.1</ele>
        <time>2016-02-14T08:58:54Z</time>
      </trkpt>
      <trkpt lat="43.77044" lon="5.24138">
        <ele>217.7</ele>
        <time>2016-02-14T08:59:02Z</time>
      </trkpt>
      <trkpt lat="43.77039" lon="5.24127">
        <ele>218.2</ele>
        <time>2016-02-14T08:59:08Z</time>
      </trkpt>
      <trkpt lat="43.77031" lon="5.24122">
        <ele>219.2</ele>
        <time>2016-02-14T08:59:15Z</time>
      </trkpt>
      <trkpt lat="43.77022" lon="5.24122">
        <ele>220.3</ele>
        <time>2016-02-14T08:59:22Z</time>
      </trkpt>
      <trkpt lat="43.77013" lon="5.24122">
        <ele>221</ele>
        <time>2016-02-14T08:59:27Z</time>
      </trkpt>
      <trkpt lat="43.77003" lon="5.24123">
        <ele>222.1</ele>
        <time>2016-02-14T08:59:33Z</time>
      </trkpt>
      <trkpt lat="43.76993" lon="5.24123">
        <ele>223.6</ele>
        <time>2016-02-14T08:59:40Z</time>
      </trkpt>
      <trkpt lat="43.76984" lon="5.2412">
        <ele>225</ele>
        <time>2016-02-14T08:59:46Z</time>
      </trkpt>
      <trkpt lat="43.76975" lon="5.2412">
        <ele>225.9</ele>
        <time>2016-02-14T08:59:50Z</time>
      </trkpt>
      <trkpt lat="43.76965" lon="5.2412">
        <ele>226.9</ele>
        <time>2016-02-14T08:59:55Z</time>
      </trkpt>
      <trkpt lat="43.76956" lon="5.24124">
        <ele>228.8</ele>
        <time>2016-02-14T09:00:03Z</time>
      </trkpt>
      <trkpt lat="43.76946" lon="5.24124">
        <ele>230.4</ele>
        <time>2016-02-14T09:00:10Z</time>
      </trkpt>
      <trkpt lat="43.76937" lon="5.24117">
        <ele>231.6</ele>
        <time>2016-02-14T09:00:16Z</time>
      </trkpt>
      <trkpt lat="43.76933" lon="5.24105">
        <ele>232.5</ele>
        <time>2016-02-14T09:00:22Z</time>
      </trkpt>
      <trkpt lat="43.76932" lon="5.24092">
        <ele>233.6</ele>
        <time>2016-02-14T09:00:29Z</time>
      </trkpt>
      <trkpt lat="43.76934" lon="5.24078">
        <ele>234.4</ele>
        <time>2016-02-14T09:00:35Z</time>
      </trkpt>
      <trkpt lat="43.76932" lon="5.24066">
        <ele>234.9</ele>
        <time>2016-02-14T09:00:40Z</time>
      </trkpt>
      <trkpt lat="43.76929" lon="5.24054">
        <ele>235.2</ele>
        <time>2016-02-14T09:00:45Z</time>
      </trkpt>
      <trkpt lat="43.76924" lon="5.24042">
        <ele>235.5</ele>
        <time>2016-02-14T09:00:51Z</time>
      </trkpt>
      <trkpt lat="43.76922" lon="5.24029">
        <ele>235.7</ele>
        <time>2016-02-14T09:00:56Z</time>
      </trkpt>
      <trkpt lat="43.76919" lon="5.24016">
        <ele>235.8</ele>
        <time>2016-02-14T09:01:01Z</time>
      </trkpt>
      <trkpt lat="43.76918" lon="5.24001">
        <ele>235.9</ele>
        <time>2016-02-14T09:01:07Z</time>
      </trkpt>
      <trkpt lat="43.76915" lon="5.23989">
        <ele>235.9</ele>
        <time>2016-02-14T09:01:13Z</time>
      </trkpt>
      <trkpt lat="43.76911" lon="5.23977">
        <ele>235.9</ele>
        <time>2016-02-14T09:01:21Z</time>
      </trkpt>
      <trkpt lat="43.76906" lon="5.23966">
        <ele>236</ele>
        <time>2016-02-14T09:01:27Z</time>
      </trkpt>
      <trkpt lat="43.769" lon="5.23955">
        <ele>236</ele>
        <time>2016-02-14T09:01:31Z</time>
      </trkpt>
      <trkpt lat="43.76896" lon="5.23942">
        <ele>236</ele>
        <time>2016-02-14T09:01:37Z</time>
      </trkpt>
      <trkpt lat="43.76891" lon="5.23931">
        <ele>236</ele>
        <time>2016-02-14T09:01:43Z</time>
      </trkpt>
      <trkpt lat="43.76884" lon="5.2392">
        <ele>236.2</ele>
        <time>2016-02-14T09:01:49Z</time>
      </trkpt>
      <trkpt lat="43.76879" lon="5.23908">
        <ele>236.4</ele>
        <time>2016-02-14T09:01:55Z</time>
      </trkpt>
      <trkpt lat="43.76877" lon="5.23896">
        <ele>236.5</ele>
        <time>2016-02-14T09:02:01Z</time>
      </trkpt>
      <trkpt lat="43.7688" lon="5.23884">
        <ele>236.6</ele>
        <time>2016-02-14T09:02:07Z</time>
      </trkpt>
      <trkpt lat="43.76879" lon="5.23871">
        <ele>236.7</ele>
        <time>2016-02-14T09:02:12Z</time>
      </trkpt>
      <trkpt lat="43.76874" lon="5.2386">
        <ele>236.8</ele>
        <time>2016-02-14T09:02:19Z</time>
      </trkpt>
      <trkpt lat="43.76866" lon="5.2385">
        <ele>236.6</ele>
        <time>2016-02-14T09:02:27Z</time>
      </trkpt>
      <trkpt lat="43.76858" lon="5.23844">
        <ele>236.2</ele>
        <time>2016-02-14T09:02:34Z</time>
      </trkpt>
      <trkpt lat="43.7685" lon="5.23835">
        <ele>235.3</ele>
        <time>2016-02-14T09:02:42Z</time>
      </trkpt>
      <trkpt lat="43.76843" lon="5.23827">
        <ele>234.7</ele>
        <time>2016-02-14T09:02:48Z</time>
      </trkpt>
      <trkpt lat="43.76839" lon="5.23815">
        <ele>234</ele>
        <time>2016-02-14T09:02:55Z</time>
      </trkpt>
      <trkpt lat="43.76837" lon="5.23801">
        <ele>232.9</ele>
        <time>2016-02-14T09:03:02Z</time>
      </trkpt>
      <trkpt lat="43.76835" lon="5.23788">
        <ele>232.6</ele>
        <time>2016-02-14T09:03:09Z</time>
      </trkpt>
      <trkpt lat="43.76833" lon="5.23775">
        <ele>232.4</ele>
        <time>2016-02-14T09:03:18Z</time>
      </trkpt>
      <trkpt lat="43.76835" lon="5.23763">
        <ele>231.9</ele>
        <time>2016-02-14T09:03:25Z</time>
      </trkpt>
      <trkpt lat="43.76833" lon="5.2375">
        <ele>231.5</ele>
        <time>2016-02-14T09:03:30Z</time>
      </trkpt>
      <trkpt lat="43.76827" lon="5.23741">
        <ele>231.1</ele>
        <time>2016-02-14T09:03:36Z</time>
      </trkpt>
      <trkpt lat="43.76817" lon="5.23737">
        <ele>230.8</ele>
        <time>2016-02-14T09:03:44Z</time>
      </trkpt>
      <trkpt lat="43.76808" lon="5.23734">
        <ele>230.6</ele>
        <time>2016-02-14T09:03:50Z</time>
      </trkpt>
      <trkpt lat="43.76802" lon="5.23724">
        <ele>230.5</ele>
        <time>2016-02-14T09:03:55Z</time>
      </trkpt>
      <trkpt lat="43.76796" lon="5.23714">
        <ele>230.4</ele>
        <time>2016-02-14T09:04:01Z</time>
      </trkpt>
      <trkpt lat="43.76789" lon="5.23704">
        <ele>230.4</ele>
        <time>2016-02-14T09:04:06Z</time>
      </trkpt>
      <trkpt lat="43.76782" lon="5.23696">
        <ele>230.4</ele>
        <time>2016-02-14T09:04:12Z</time>
      </trkpt>
      <trkpt lat="43.76776" lon="5.23685">
        <ele>230.3</ele>
        <time>2016-02-14T09:04:18Z</time>
      </trkpt>
      <trkpt lat="43.76776" lon="5.23672">
        <ele>230.3</ele>
        <time>2016-02-14T09:04:24Z</time>
      </trkpt>
      <trkpt lat="43.76779" lon="5.2366">
        <ele>230.2</ele>
        <time>2016-02-14T09:04:30Z</time>
      </trkpt>
      <trkpt lat="43.76785" lon="5.23649">
        <ele>230</ele>
        <time>2016-02-14T09:04:37Z</time>
      </trkpt>
      <trkpt lat="43.76786" lon="5.23637">
        <ele>229.6</ele>
        <time>2016-02-14T09:04:44Z</time>
      </trkpt>
      <trkpt lat="43.76778" lon="5.23628">
        <ele>229.1</ele>
        <time>2016-02-14T09:04:52Z</time>
      </trkpt>
      <trkpt lat="43.76771" lon="5.2362">
        <ele>228.8</ele>
        <time>2016-02-14T09:04:57Z</time>
      </trkpt>
      <trkpt lat="43.76767" lon="5.23607">
        <ele>228.9</ele>
        <time>2016-02-14T09:05:03Z</time>
      </trkpt>
      <trkpt lat="43.76764" lon="5.23594">
        <ele>229.1</ele>
        <time>2016-02-14T09:05:09Z</time>
      </trkpt>
      <trkpt lat="43.76762" lon="5.23582">
        <ele>229.3</ele>
        <time>2016-02-14T09:05:15Z</time>
      </trkpt>
      <trkpt lat="43.76756" lon="5.23571">
        <ele>229.6</ele>
        <time>2016-02-14T09:05:21Z</time>
      </trkpt>
      <trkpt lat="43.76749" lon="5.23562">
        <ele>229.9</ele>
        <time>2016-02-14T09:05:28Z</time>
      </trkpt>
      <trkpt lat="43.76743" lon="5.23552">
        <ele>230.4</ele>
        <time>2016-02-14T09:05:35Z</time>
      </trkpt>
      <trkpt lat="43.76736" lon="5.23541">
        <ele>230.8</ele>
        <time>2016-02-14T09:05:43Z</time>
      </trkpt>
      <trkpt lat="43.7673" lon="5.23531">
        <ele>231</ele>
        <time>2016-02-14T09:05:50Z</time>
      </trkpt>
      <trkpt lat="43.76727" lon="5.23518">
        <ele>231.1</ele>
        <time>2016-02-14T09:05:55Z</time>
      </trkpt>
      <trkpt lat="43.76723" lon="5.23507">
        <ele>231.5</ele>
        <time>2016-02-14T09:06:02Z</time>
      </trkpt>
      <trkpt lat="43.76717" lon="5.23495">
        <ele>232.3</ele>
        <time>2016-02-14T09:06:09Z</time>
      </trkpt>
      <trkpt lat="43.76711" lon="5.23483">
        <ele>232.8</ele>
        <time>2016-02-14T09:06:13Z</time>
      </trkpt>
      <trkpt lat="43.76704" lon="5.23472">
        <ele>233.6</ele>
        <time>2016-02-14T09:06:18Z</time>
      </trkpt>
      <trkpt lat="43.76698" lon="5.23462">
        <ele>234.7</ele>
        <time>2016-02-14T09:06:24Z</time>
      </trkpt>
      <trkpt lat="43.7669" lon="5.23456">
        <ele>235.9</ele>
        <time>2016-02-14T09:06:33Z</time>
      </trkpt>
      <trkpt lat="43.76686" lon="5.23444">
        <ele>237.9</ele>
        <time>2016-02-14T09:07:19Z</time>
      </trkpt>
      <trkpt lat="43.76684" lon="5.23431">
        <ele>237.9</ele>
        <time>2016-02-14T09:07:25Z</time>
      </trkpt>
      <trkpt lat="43.76681" lon="5.23417">
        <ele>238</ele>
        <time>2016-02-14T09:07:32Z</time>
      </trkpt>
      <trkpt lat="43.76677" lon="5.23405">
        <ele>238.2</ele>
        <time>2016-02-14T09:07:40Z</time>
      </trkpt>
      <trkpt lat="43.76684" lon="5.23394">
        <ele>238.8</ele>
        <time>2016-02-14T09:07:49Z</time>
      </trkpt>
      <trkpt lat="43.76691" lon="5.23386">
        <ele>239.2</ele>
        <time>2016-02-14T09:07:55Z</time>
      </trkpt>
      <trkpt lat="43.76697" lon="5.23376">
        <ele>239.5</ele>
        <time>2016-02-14T09:08:03Z</time>
      </trkpt>
      <trkpt lat="43.76702" lon="5.23364">
        <ele>239.8</ele>
        <time>2016-02-14T09:08:11Z</time>
      </trkpt>
      <trkpt lat="43.76708" lon="5.23353">
        <ele>240</ele>
        <time>2016-02-14T09:08:18Z</time>
      </trkpt>
      <trkpt lat="43.76711" lon="5.23341">
        <ele>240.1</ele>
        <time>2016-02-14T09:08:23Z</time>
      </trkpt>
      <trkpt lat="43.7671" lon="5.23326">
        <ele>240.3</ele>
        <time>2016-02-14T09:08:30Z</time>
      </trkpt>
      <trkpt lat="43.76709" lon="5.23312">
        <ele>240.5</ele>
        <time>2016-02-14T09:08:36Z</time>
      </trkpt>
      <trkpt lat="43.76708" lon="5.23298">
        <ele>240.9</ele>
        <time>2016-02-14T09:08:42Z</time>
      </trkpt>
      <trkpt lat="43.76711" lon="5.23285">
        <ele>241.1</ele>
        <time>2016-02-14T09:08:48Z</time>
      </trkpt>
      <trkpt lat="43.76714" lon="5.23272">
        <ele>241.4</ele>
        <time>2016-02-14T09:08:55Z</time>
      </trkpt>
      <trkpt lat="43.76715" lon="5.23259">
        <ele>241.8</ele>
        <time>2016-02-14T09:09:03Z</time>
      </trkpt>
      <trkpt lat="43.76717" lon="5.23245">
        <ele>242.2</ele>
        <time>2016-02-14T09:09:10Z</time>
      </trkpt>
      <trkpt lat="43.76722" lon="5.23233">
        <ele>242.5</ele>
        <time>2016-02-14T09:09:17Z</time>
      </trkpt>
      <trkpt lat="43.76726" lon="5.23222">
        <ele>242.8</ele>
        <time>2016-02-14T09:09:23Z</time>
      </trkpt>
      <trkpt lat="43.76733" lon="5.23212">
        <ele>243.2</ele>
        <time>2016-02-14T09:09:31Z</time>
      </trkpt>
      <trkpt lat="43.76738" lon="5.232">
        <ele>243.4</ele>
        <time>2016-02-14T09:09:37Z</time>
      </trkpt>
      <trkpt lat="43.76744" lon="5.23189">
        <ele>243.5</ele>
        <time>2016-02-14T09:09:43Z</time>
      </trkpt>
      <trkpt lat="43.76751" lon="5.23179">
        <ele>243.5</ele>
        <time>2016-02-14T09:09:51Z</time>
      </trkpt>
      <trkpt lat="43.76759" lon="5.23173">
        <ele>243.4</ele>
        <time>2016-02-14T09:09:57Z</time>
      </trkpt>
      <trkpt lat="43.76769" lon="5.2317">
        <ele>242.8</ele>
        <time>2016-02-14T09:10:05Z</time>
      </trkpt>
      <trkpt lat="43.76779" lon="5.23165">
        <ele>242.3</ele>
        <time>2016-02-14T09:10:10Z</time>
      </trkpt>
      <trkpt lat="43.76787" lon="5.23157">
        <ele>241.6</ele>
        <time>2016-02-14T09:10:16Z</time>
      </trkpt>
      <trkpt lat="43.76794" lon="5.23149">
        <ele>241.1</ele>
        <time>2016-02-14T09:10:22Z</time>
      </trkpt>
      <trkpt lat="43.76801" lon="5.2314">
        <ele>240.8</ele>
        <time>2016-02-14T09:10:28Z</time>
      </trkpt>
      <trkpt lat="43.76809" lon="5.23134">
        <ele>240.4</ele>
        <time>2016-02-14T09:10:35Z</time>
      </trkpt>
      <trkpt lat="43.76818" lon="5.2313">
        <ele>239.9</ele>
        <time>2016-02-14T09:10:42Z</time>
      </trkpt>
      <trkpt lat="43.76826" lon="5.23122">
        <ele>239.6</ele>
        <time>2016-02-14T09:10:47Z</time>
      </trkpt>
      <trkpt lat="43.76833" lon="5.23113">
        <ele>238.9</ele>
        <time>2016-02-14T09:10:52Z</time>
      </trkpt>
      <trkpt lat="43.76843" lon="5.23109">
        <ele>238.9</ele>
        <time>2016-02-14T09:10:57Z</time>
      </trkpt>
      <trkpt lat="43.76852" lon="5.2311">
        <ele>238.8</ele>
        <time>2016-02-14T09:11:03Z</time>
      </trkpt>
      <trkpt lat="43.76862" lon="5.23112">
        <ele>238.7</ele>
        <time>2016-02-14T09:11:09Z</time>
      </trkpt>
      <trkpt lat="43.76872" lon="5.23113">
        <ele>238.5</ele>
        <time>2016-02-14T09:11:16Z</time>
      </trkpt>
      <trkpt lat="43.76881" lon="5.23108">
        <ele>238.1</ele>
        <time>2016-02-14T09:11:24Z</time>
      </trkpt>
      <trkpt lat="43.76891" lon="5.23111">
        <ele>237.8</ele>
        <time>2016-02-14T09:11:31Z</time>
      </trkpt>
      <trkpt lat="43.769" lon="5.2311">
        <ele>237.5</ele>
        <time>2016-02-14T09:11:39Z</time>
      </trkpt>
      <trkpt lat="43.76907" lon="5.23102">
        <ele>237.2</ele>
        <time>2016-02-14T09:11:47Z</time>
      </trkpt>
      <trkpt lat="43.76916" lon="5.23097">
        <ele>237</ele>
        <time>2016-02-14T09:11:53Z</time>
      </trkpt>
      <trkpt lat="43.76925" lon="5.23094">
        <ele>236.6</ele>
        <time>2016-02-14T09:11:59Z</time>
      </trkpt>
      <trkpt lat="43.76934" lon="5.23095">
        <ele>236.2</ele>
        <time>2016-02-14T09:12:05Z</time>
      </trkpt>
      <trkpt lat="43.76943" lon="5.23094">
        <ele>235.7</ele>
        <time>2016-02-14T09:12:12Z</time>
      </trkpt>
      <trkpt lat="43.76952" lon="5.23091">
        <ele>235.1</ele>
        <time>2016-02-14T09:12:18Z</time>
      </trkpt>
      <trkpt lat="43.76961" lon="5.23086">
        <ele>234.4</ele>
        <time>2016-02-14T09:12:24Z</time>
      </trkpt>
      <trkpt lat="43.76968" lon="5.23078">
        <ele>233.9</ele>
        <time>2016-02-14T09:12:29Z</time>
      </trkpt>
      <trkpt lat="43.76975" lon="5.23068">
        <ele>233.4</ele>
        <time>2016-02-14T09:12:35Z</time>
      </trkpt>
      <trkpt lat="43.76982" lon="5.2306">
        <ele>232.8</ele>
        <time>2016-02-14T09:12:41Z</time>
      </trkpt>
      <trkpt lat="43.76991" lon="5.23054">
        <ele>232.2</ele>
        <time>2016-02-14T09:12:47Z</time>
      </trkpt>
      <trkpt lat="43.77" lon="5.23048">
        <ele>231.7</ele>
        <time>2016-02-14T09:12:54Z</time>
      </trkpt>
      <trkpt lat="43.77009" lon="5.23044">
        <ele>231.4</ele>
        <time>2016-02-14T09:13:01Z</time>
      </trkpt>
      <trkpt lat="43.77019" lon="5.23047">
        <ele>231.1</ele>
        <time>2016-02-14T09:13:06Z</time>
      </trkpt>
      <trkpt lat="43.77028" lon="5.2305">
        <ele>230.6</ele>
        <time>2016-02-14T09:13:12Z</time>
      </trkpt>
      <trkpt lat="43.77038" lon="5.23048">
        <ele>230.1</ele>
        <time>2016-02-14T09:13:18Z</time>
      </trkpt>
      <trkpt lat="43.77046" lon="5.23038">
        <ele>229.5</ele>
        <time>2016-02-14T09:13:24Z</time>
      </trkpt>
      <trkpt lat="43.77056" lon="5.23034">
        <ele>229.1</ele>
        <time>2016-02-14T09:13:29Z</time>
      </trkpt>
      <trkpt lat="43.77065" lon="5.23033">
        <ele>228.7</ele>
        <time>2016-02-14T09:13:34Z</time>
      </trkpt>
      <trkpt lat="43.77074" lon="5.23029">
        <ele>228.1</ele>
        <time>2016-02-14T09:13:39Z</time>
      </trkpt>
      <trkpt lat="43.77084" lon="5.23024">
        <ele>227.3</ele>
        <time>2016-02-14T09:13:45Z</time>
      </trkpt>
      <trkpt lat="43.77089" lon="5.23012">
        <ele>226.1</ele>
        <time>2016-02-14T09:13:53Z</time>
      </trkpt>
      <trkpt lat="43.77089" lon="5.23">
        <ele>225.6</ele>
        <time>2016-02-14T09:13:58Z</time>
      </trkpt>
      <trkpt lat="43.77087" lon="5.22986">
        <ele>224.9</ele>
        <time>2016-02-14T09:14:05Z</time>
      </trkpt>
      <trkpt lat="43.77089" lon="5.22973">
        <ele>224.3</ele>
        <time>2016-02-14T09:14:12Z</time>
      </trkpt>
      <trkpt lat="43.77094" lon="5.22961">
        <ele>223.7</ele>
        <time>2016-02-14T09:14:18Z</time>
      </trkpt>
      <trkpt lat="43.77097" lon="5.22949">
        <ele>223</ele>
        <time>2016-02-14T09:14:24Z</time>
      </trkpt>
      <trkpt lat="43.77102" lon="5.22936">
        <ele>222.4</ele>
        <time>2016-02-14T09:14:30Z</time>
      </trkpt>
      <trkpt lat="43.77107" lon="5.22924">
        <ele>221.9</ele>
        <time>2016-02-14T09:14:36Z</time>
      </trkpt>
      <trkpt lat="43.77115" lon="5.22915">
        <ele>221.5</ele>
        <time>2016-02-14T09:14:42Z</time>
      </trkpt>
      <trkpt lat="43.77122" lon="5.22906">
        <ele>221.2</ele>
        <time>2016-02-14T09:14:48Z</time>
      </trkpt>
      <trkpt lat="43.77131" lon="5.22898">
        <ele>221</ele>
        <time>2016-02-14T09:14:54Z</time>
      </trkpt>
      <trkpt lat="43.77138" lon="5.22891">
        <ele>220.8</ele>
        <time>2016-02-14T09:15:00Z</time>
      </trkpt>
      <trkpt lat="43.77148" lon="5.22885">
        <ele>220.7</ele>
        <time>2016-02-14T09:15:07Z</time>
      </trkpt>
      <trkpt lat="43.77157" lon="5.2288">
        <ele>220.7</ele>
        <time>2016-02-14T09:15:13Z</time>
      </trkpt>
      <trkpt lat="43.77167" lon="5.22878">
        <ele>220.7</ele>
        <time>2016-02-14T09:15:19Z</time>
      </trkpt>
      <trkpt lat="43.77176" lon="5.22874">
        <ele>220.8</ele>
        <time>2016-02-14T09:15:24Z</time>
      </trkpt>
      <trkpt lat="43.77185" lon="5.22873">
        <ele>221.5</ele>
        <time>2016-02-14T09:15:33Z</time>
      </trkpt>
      <trkpt lat="43.77194" lon="5.22876">
        <ele>221.9</ele>
        <time>2016-02-14T09:16:53Z</time>
      </trkpt>
      <trkpt lat="43.77203" lon="5.22871">
        <ele>221.8</ele>
        <time>2016-02-14T09:17:03Z</time>
      </trkpt>
      <trkpt lat="43.77212" lon="5.22863">
        <ele>221.8</ele>
        <time>2016-02-14T09:17:13Z</time>
      </trkpt>
      <trkpt lat="43.77221" lon="5.22858">
        <ele>222.1</ele>
        <time>2016-02-14T09:17:20Z</time>
      </trkpt>
      <trkpt lat="43.7723" lon="5.22852">
        <ele>222.3</ele>
        <time>2016-02-14T09:17:28Z</time>
      </trkpt>
      <trkpt lat="43.7724" lon="5.22851">
        <ele>222.5</ele>
        <time>2016-02-14T09:17:33Z</time>
      </trkpt>
      <trkpt lat="43.77249" lon="5.22852">
        <ele>222.8</ele>
        <time>2016-02-14T09:17:39Z</time>
      </trkpt>
      <trkpt lat="43.77258" lon="5.22855">
        <ele>223</ele>
        <time>2016-02-14T09:17:44Z</time>
      </trkpt>
      <trkpt lat="43.77267" lon="5.22857">
        <ele>223.2</ele>
        <time>2016-02-14T09:17:51Z</time>
      </trkpt>
      <trkpt lat="43.77277" lon="5.22855">
        <ele>223.8</ele>
        <time>2016-02-14T09:17:59Z</time>
      </trkpt>
      <trkpt lat="43.77286" lon="5.22854">
        <ele>224.2</ele>
        <time>2016-02-14T09:18:06Z</time>
      </trkpt>
      <trkpt lat="43.77296" lon="5.22851">
        <ele>224.6</ele>
        <time>2016-02-14T09:18:11Z</time>
      </trkpt>
      <trkpt lat="43.77304" lon="5.22844">
        <ele>224.9</ele>
        <time>2016-02-14T09:18:17Z</time>
      </trkpt>
      <trkpt lat="43.77312" lon="5.22835">
        <ele>225.6</ele>
        <time>2016-02-14T09:18:25Z</time>
      </trkpt>
      <trkpt lat="43.77322" lon="5.22832">
        <ele>226.3</ele>
        <time>2016-02-14T09:18:34Z</time>
      </trkpt>
      <trkpt lat="43.77331" lon="5.22825">
        <ele>226.7</ele>
        <time>2016-02-14T09:18:40Z</time>
      </trkpt>
      <trkpt lat="43.77339" lon="5.22818">
        <ele>227.1</ele>
        <time>2016-02-14T09:18:47Z</time>
      </trkpt>
      <trkpt lat="43.77347" lon="5.22814">
        <ele>227.5</ele>
        <time>2016-02-14T09:18:54Z</time>
      </trkpt>
      <trkpt lat="43.77357" lon="5.22813">
        <ele>228.2</ele>
        <time>2016-02-14T09:19:02Z</time>
      </trkpt>
      <trkpt lat="43.77366" lon="5.2281">
        <ele>228.5</ele>
        <time>2016-02-14T09:19:06Z</time>
      </trkpt>
      <trkpt lat="43.77376" lon="5.22808">
        <ele>228.8</ele>
        <time>2016-02-14T09:19:10Z</time>
      </trkpt>
      <trkpt lat="43.77384" lon="5.228">
        <ele>228.9</ele>
        <time>2016-02-14T09:19:16Z</time>
      </trkpt>
      <trkpt lat="43.77393" lon="5.22792">
        <ele>229.6</ele>
        <time>2016-02-14T09:19:22Z</time>
      </trkpt>
      <trkpt lat="43.77402" lon="5.22787">
        <ele>230.6</ele>
        <time>2016-02-14T09:19:29Z</time>
      </trkpt>
      <trkpt lat="43.77411" lon="5.22781">
        <ele>231.4</ele>
        <time>2016-02-14T09:19:34Z</time>
      </trkpt>
      <trkpt lat="43.77421" lon="5.22776">
        <ele>232.5</ele>
        <time>2016-02-14T09:19:40Z</time>
      </trkpt>
      <trkpt lat="43.77429" lon="5.22769">
        <ele>233.6</ele>
        <time>2016-02-14T09:19:47Z</time>
      </trkpt>
      <trkpt lat="43.77437" lon="5.22763">
        <ele>234.2</ele>
        <time>2016-02-14T09:19:51Z</time>
      </trkpt>
      <trkpt lat="43.77446" lon="5.2276">
        <ele>234.9</ele>
        <time>2016-02-14T09:19:57Z</time>
      </trkpt>
      <trkpt lat="43.77455" lon="5.22754">
        <ele>235.5</ele>
        <time>2016-02-14T09:20:03Z</time>
      </trkpt>
      <trkpt lat="43.77465" lon="5.22748">
        <ele>236.1</ele>
        <time>2016-02-14T09:20:10Z</time>
      </trkpt>
      <trkpt lat="43.77474" lon="5.22749">
        <ele>236.4</ele>
        <time>2016-02-14T09:20:15Z</time>
      </trkpt>
      <trkpt lat="43.77483" lon="5.22752">
        <ele>236.7</ele>
        <time>2016-02-14T09:20:21Z</time>
      </trkpt>
      <trkpt lat="43.77493" lon="5.22755">
        <ele>237</ele>
        <time>2016-02-14T09:20:27Z</time>
      </trkpt>
      <trkpt lat="43.77503" lon="5.22758">
        <ele>237.2</ele>
        <time>2016-02-14T09:20:33Z</time>
      </trkpt>
      <trkpt lat="43.77512" lon="5.22759">
        <ele>237.4</ele>
        <time>2016-02-14T09:20:39Z</time>
      </trkpt>
      <trkpt lat="43.77522" lon="5.2276">
        <ele>238.1</ele>
        <time>2016-02-14T09:20:46Z</time>
      </trkpt>
      <trkpt lat="43.77531" lon="5.22762">
        <ele>238.6</ele>
        <time>2016-02-14T09:20:52Z</time>
      </trkpt>
      <trkpt lat="43.7754" lon="5.22765">
        <ele>239.9</ele>
        <time>2016-02-14T09:21:25Z</time>
      </trkpt>
      <trkpt lat="43.77533" lon="5.22756">
        <ele>239.9</ele>
        <time>2016-02-14T09:22:10Z</time>
      </trkpt>
      <trkpt lat="43.77523" lon="5.22751">
        <ele>239.8</ele>
        <time>2016-02-14T09:22:15Z</time>
      </trkpt>
      <trkpt lat="43.77514" lon="5.22748">
        <ele>239.6</ele>
        <time>2016-02-14T09:22:21Z</time>
      </trkpt>
      <trkpt lat="43.77505" lon="5.22748">
        <ele>239.2</ele>
        <time>2016-02-14T09:22:28Z</time>
      </trkpt>
      <trkpt lat="43.77495" lon="5.22747">
        <ele>238.8</ele>
        <time>2016-02-14T09:22:34Z</time>
      </trkpt>
      <trkpt lat="43.77485" lon="5.22745">
        <ele>238.4</ele>
        <time>2016-02-14T09:22:41Z</time>
      </trkpt>
      <trkpt lat="43.77474" lon="5.22742">
        <ele>238.1</ele>
        <time>2016-02-14T09:22:46Z</time>
      </trkpt>
      <trkpt lat="43.77464" lon="5.2274">
        <ele>237.8</ele>
        <time>2016-02-14T09:22:52Z</time>
      </trkpt>
      <trkpt lat="43.77455" lon="5.22741">
        <ele>237.4</ele>
        <time>2016-02-14T09:22:58Z</time>
      </trkpt>
      <trkpt lat="43.77447" lon="5.22748">
        <ele>236</ele>
        <time>2016-02-14T09:23:22Z</time>
      </trkpt>
      <trkpt lat="43.77439" lon="5.22753">
        <ele>235.3</ele>
        <time>2016-02-14T09:23:29Z</time>
      </trkpt>
      <trkpt lat="43.7743" lon="5.22759">
        <ele>234.1</ele>
        <time>2016-02-14T09:23:42Z</time>
      </trkpt>
      <trkpt lat="43.77424" lon="5.22769">
        <ele>233.4</ele>
        <time>2016-02-14T09:23:53Z</time>
      </trkpt>
      <trkpt lat="43.77415" lon="5.22774">
        <ele>232.8</ele>
        <time>2016-02-14T09:24:00Z</time>
      </trkpt>
      <trkpt lat="43.77406" lon="5.22776">
        <ele>232.2</ele>
        <time>2016-02-14T09:24:08Z</time>
      </trkpt>
      <trkpt lat="43.77396" lon="5.2278">
        <ele>231.4</ele>
        <time>2016-02-14T09:24:15Z</time>
      </trkpt>
      <trkpt lat="43.77387" lon="5.22782">
        <ele>230</ele>
        <time>2016-02-14T09:24:25Z</time>
      </trkpt>
      <trkpt lat="43.77378" lon="5.2279">
        <ele>228.9</ele>
        <time>2016-02-14T09:24:33Z</time>
      </trkpt>
      <trkpt lat="43.77369" lon="5.22795">
        <ele>228.2</ele>
        <time>2016-02-14T09:24:38Z</time>
      </trkpt>
      <trkpt lat="43.77359" lon="5.228">
        <ele>227.2</ele>
        <time>2016-02-14T09:24:43Z</time>
      </trkpt>
      <trkpt lat="43.77351" lon="5.22805">
        <ele>226.7</ele>
        <time>2016-02-14T09:24:47Z</time>
      </trkpt>
      <trkpt lat="43.77343" lon="5.22813">
        <ele>225.4</ele>
        <time>2016-02-14T09:24:53Z</time>
      </trkpt>
      <trkpt lat="43.77333" lon="5.22817">
        <ele>224.8</ele>
        <time>2016-02-14T09:25:00Z</time>
      </trkpt>
      <trkpt lat="43.77325" lon="5.22822">
        <ele>224.3</ele>
        <time>2016-02-14T09:25:07Z</time>
      </trkpt>
      <trkpt lat="43.77316" lon="5.22827">
        <ele>223.8</ele>
        <time>2016-02-14T09:25:15Z</time>
      </trkpt>
      <trkpt lat="43.77307" lon="5.22831">
        <ele>223.3</ele>
        <time>2016-02-14T09:25:23Z</time>
      </trkpt>
      <trkpt lat="43.77298" lon="5.22838">
        <ele>222.8</ele>
        <time>2016-02-14T09:25:29Z</time>
      </trkpt>
      <trkpt lat="43.7729" lon="5.22847">
        <ele>222.3</ele>
        <time>2016-02-14T09:25:34Z</time>
      </trkpt>
      <trkpt lat="43.77279" lon="5.22846">
        <ele>221.8</ele>
        <time>2016-02-14T09:25:40Z</time>
      </trkpt>
      <trkpt lat="43.7727" lon="5.2285">
        <ele>221.2</ele>
        <time>2016-02-14T09:25:47Z</time>
      </trkpt>
      <trkpt lat="43.7726" lon="5.22848">
        <ele>220.7</ele>
        <time>2016-02-14T09:25:53Z</time>
      </trkpt>
      <trkpt lat="43.7725" lon="5.22847">
        <ele>220.2</ele>
        <time>2016-02-14T09:26:01Z</time>
      </trkpt>
      <trkpt lat="43.77241" lon="5.22845">
        <ele>219.7</ele>
        <time>2016-02-14T09:26:06Z</time>
      </trkpt>
      <trkpt lat="43.77231" lon="5.22847">
        <ele>219.2</ele>
        <time>2016-02-14T09:26:12Z</time>
      </trkpt>
      <trkpt lat="43.77222" lon="5.22849">
        <ele>218.7</ele>
        <time>2016-02-14T09:26:18Z</time>
      </trkpt>
      <trkpt lat="43.77213" lon="5.22854">
        <ele>218.2</ele>
        <time>2016-02-14T09:26:24Z</time>
      </trkpt>
      <trkpt lat="43.77205" lon="5.22862">
        <ele>217.4</ele>
        <time>2016-02-14T09:26:33Z</time>
      </trkpt>
      <trkpt lat="43.77196" lon="5.22863">
        <ele>216.8</ele>
        <time>2016-02-14T09:26:41Z</time>
      </trkpt>
      <trkpt lat="43.77191" lon="5.22851">
        <ele>216.3</ele>
        <time>2016-02-14T09:26:47Z</time>
      </trkpt>
      <trkpt lat="43.77194" lon="5.22838">
        <ele>215.9</ele>
        <time>2016-02-14T09:26:55Z</time>
      </trkpt>
      <trkpt lat="43.77201" lon="5.2283">
        <ele>215.6</ele>
        <time>2016-02-14T09:27:03Z</time>
      </trkpt>
      <trkpt lat="43.77209" lon="5.22818">
        <ele>215.4</ele>
        <time>2016-02-14T09:27:13Z</time>
      </trkpt>
      <trkpt lat="43.77211" lon="5.22806">
        <ele>215.4</ele>
        <time>2016-02-14T09:27:20Z</time>
      </trkpt>
      <trkpt lat="43.77217" lon="5.22795">
        <ele>215.5</ele>
        <time>2016-02-14T09:27:27Z</time>
      </trkpt>
      <trkpt lat="43.77224" lon="5.22787">
        <ele>215.9</ele>
        <time>2016-02-14T09:27:34Z</time>
      </trkpt>
      <trkpt lat="43.77231" lon="5.22778">
        <ele>216.2</ele>
        <time>2016-02-14T09:27:41Z</time>
      </trkpt>
      <trkpt lat="43.77236" lon="5.22766">
        <ele>216.4</ele>
        <time>2016-02-14T09:27:48Z</time>
      </trkpt>
      <trkpt lat="43.7723" lon="5.22757">
        <ele>216.6</ele>
        <time>2016-02-14T09:27:53Z</time>
      </trkpt>
      <trkpt lat="43.77225" lon="5.22745">
        <ele>216.8</ele>
        <time>2016-02-14T09:27:55Z</time>
      </trkpt>
      <trkpt lat="43.77215" lon="5.22742">
        <ele>218.1</ele>
        <time>2016-02-14T09:28:06Z</time>
      </trkpt>
      <trkpt lat="43.77206" lon="5.22748">
        <ele>219</ele>
        <time>2016-02-14T09:28:15Z</time>
      </trkpt>
      <trkpt lat="43.77197" lon="5.22753">
        <ele>220</ele>
        <time>2016-02-14T09:28:24Z</time>
      </trkpt>
      <trkpt lat="43.77189" lon="5.22761">
        <ele>221.2</ele>
        <time>2016-02-14T09:28:33Z</time>
      </trkpt>
      <trkpt lat="43.77181" lon="5.2277">
        <ele>222.2</ele>
        <time>2016-02-14T09:28:40Z</time>
      </trkpt>
      <trkpt lat="43.77174" lon="5.2278">
        <ele>223.5</ele>
        <time>2016-02-14T09:28:48Z</time>
      </trkpt>
      <trkpt lat="43.77166" lon="5.22788">
        <ele>225</ele>
        <time>2016-02-14T09:28:57Z</time>
      </trkpt>
      <trkpt lat="43.77157" lon="5.22792">
        <ele>226.2</ele>
        <time>2016-02-14T09:29:04Z</time>
      </trkpt>
      <trkpt lat="43.77148" lon="5.22796">
        <ele>227.3</ele>
        <time>2016-02-14T09:29:10Z</time>
      </trkpt>
      <trkpt lat="43.7714" lon="5.22807">
        <ele>228.2</ele>
        <time>2016-02-14T09:29:16Z</time>
      </trkpt>
      <trkpt lat="43.77131" lon="5.22802">
        <ele>229.4</ele>
        <time>2016-02-14T09:29:25Z</time>
      </trkpt>
      <trkpt lat="43.7713" lon="5.22788">
        <ele>231.1</ele>
        <time>2016-02-14T09:29:37Z</time>
      </trkpt>
      <trkpt lat="43.77132" lon="5.22774">
        <ele>232</ele>
        <time>2016-02-14T09:29:45Z</time>
      </trkpt>
      <trkpt lat="43.77135" lon="5.22761">
        <ele>233.5</ele>
        <time>2016-02-14T09:29:57Z</time>
      </trkpt>
      <trkpt lat="43.77134" lon="5.22749">
        <ele>234.6</ele>
        <time>2016-02-14T09:30:04Z</time>
      </trkpt>
      <trkpt lat="43.77133" lon="5.22736">
        <ele>235.9</ele>
        <time>2016-02-14T09:30:12Z</time>
      </trkpt>
      <trkpt lat="43.77135" lon="5.22723">
        <ele>236.9</ele>
        <time>2016-02-14T09:30:18Z</time>
      </trkpt>
      <trkpt lat="43.77135" lon="5.2271">
        <ele>237.9</ele>
        <time>2016-02-14T09:30:25Z</time>
      </trkpt>
      <trkpt lat="43.77133" lon="5.22698">
        <ele>238.7</ele>
        <time>2016-02-14T09:30:31Z</time>
      </trkpt>
      <trkpt lat="43.77129" lon="5.22685">
        <ele>240.1</ele>
        <time>2016-02-14T09:30:40Z</time>
      </trkpt>
      <trkpt lat="43.77126" lon="5.22672">
        <ele>241.1</ele>
        <time>2016-02-14T09:30:47Z</time>
      </trkpt>
      <trkpt lat="43.77128" lon="5.22659">
        <ele>242.3</ele>
        <time>2016-02-14T09:30:55Z</time>
      </trkpt>
      <trkpt lat="43.77127" lon="5.22646">
        <ele>243.6</ele>
        <time>2016-02-14T09:31:04Z</time>
      </trkpt>
      <trkpt lat="43.77125" lon="5.22633">
        <ele>244.7</ele>
        <time>2016-02-14T09:31:12Z</time>
      </trkpt>
      <trkpt lat="43.77124" lon="5.2262">
        <ele>245.9</ele>
        <time>2016-02-14T09:31:20Z</time>
      </trkpt>
      <trkpt lat="43.77127" lon="5.22608">
        <ele>247</ele>
        <time>2016-02-14T09:31:27Z</time>
      </trkpt>
      <trkpt lat="43.77129" lon="5.22595">
        <ele>248.2</ele>
        <time>2016-02-14T09:31:34Z</time>
      </trkpt>
      <trkpt lat="43.77132" lon="5.22582">
        <ele>249.2</ele>
        <time>2016-02-14T09:31:40Z</time>
      </trkpt>
      <trkpt lat="43.77134" lon="5.22568">
        <ele>250.4</ele>
        <time>2016-02-14T09:31:47Z</time>
      </trkpt>
      <trkpt lat="43.7714" lon="5.22558">
        <ele>251.2</ele>
        <time>2016-02-14T09:31:52Z</time>
      </trkpt>
      <trkpt lat="43.77145" lon="5.22546">
        <ele>252.3</ele>
        <time>2016-02-14T09:32:00Z</time>
      </trkpt>
      <trkpt lat="43.77147" lon="5.22534">
        <ele>253</ele>
        <time>2016-02-14T09:32:07Z</time>
      </trkpt>
      <trkpt lat="43.77149" lon="5.22522">
        <ele>253.9</ele>
        <time>2016-02-14T09:32:16Z</time>
      </trkpt>
      <trkpt lat="43.77151" lon="5.22506">
        <ele>254.6</ele>
        <time>2016-02-14T09:32:22Z</time>
      </trkpt>
      <trkpt lat="43.77156" lon="5.22495">
        <ele>255.1</ele>
        <time>2016-02-14T09:32:30Z</time>
      </trkpt>
      <trkpt lat="43.77161" lon="5.22483">
        <ele>255.5</ele>
        <time>2016-02-14T09:32:37Z</time>
      </trkpt>
      <trkpt lat="43.77165" lon="5.22471">
        <ele>255.9</ele>
        <time>2016-02-14T09:32:45Z</time>
      </trkpt>
      <trkpt lat="43.77167" lon="5.22459">
        <ele>257.1</ele>
        <time>2016-02-14T09:32:55Z</time>
      </trkpt>
      <trkpt lat="43.77168" lon="5.22445">
        <ele>258.3</ele>
        <time>2016-02-14T09:33:07Z</time>
      </trkpt>
      <trkpt lat="43.77161" lon="5.22435">
        <ele>258.7</ele>
        <time>2016-02-14T09:33:12Z</time>
      </trkpt>
      <trkpt lat="43.77151" lon="5.22439">
        <ele>258.9</ele>
        <time>2016-02-14T09:33:19Z</time>
      </trkpt>
      <trkpt lat="43.77143" lon="5.22444">
        <ele>259</ele>
        <time>2016-02-14T09:33:25Z</time>
      </trkpt>
      <trkpt lat="43.77134" lon="5.22451">
        <ele>259.2</ele>
        <time>2016-02-14T09:33:34Z</time>
      </trkpt>
      <trkpt lat="43.77125" lon="5.22456">
        <ele>259.5</ele>
        <time>2016-02-14T09:33:40Z</time>
      </trkpt>
      <trkpt lat="43.77117" lon="5.22464">
        <ele>259.7</ele>
        <time>2016-02-14T09:33:47Z</time>
      </trkpt>
      <trkpt lat="43.77109" lon="5.22471">
        <ele>259.9</ele>
        <time>2016-02-14T09:33:52Z</time>
      </trkpt>
      <trkpt lat="43.77101" lon="5.22477">
        <ele>260.3</ele>
        <time>2016-02-14T09:33:58Z</time>
      </trkpt>
      <trkpt lat="43.77094" lon="5.22486">
        <ele>260.7</ele>
        <time>2016-02-14T09:34:04Z</time>
      </trkpt>
      <trkpt lat="43.77088" lon="5.22497">
        <ele>261.1</ele>
        <time>2016-02-14T09:34:11Z</time>
      </trkpt>
      <trkpt lat="43.7708" lon="5.22505">
        <ele>261.4</ele>
        <time>2016-02-14T09:34:17Z</time>
      </trkpt>
      <trkpt lat="43.77073" lon="5.22513">
        <ele>261.8</ele>
        <time>2016-02-14T09:34:23Z</time>
      </trkpt>
      <trkpt lat="43.77066" lon="5.22519">
        <ele>262.1</ele>
        <time>2016-02-14T09:34:29Z</time>
      </trkpt>
      <trkpt lat="43.77057" lon="5.22525">
        <ele>262.5</ele>
        <time>2016-02-14T09:34:35Z</time>
      </trkpt>
      <trkpt lat="43.77049" lon="5.22532">
        <ele>262.9</ele>
        <time>2016-02-14T09:34:41Z</time>
      </trkpt>
      <trkpt lat="43.7704" lon="5.22537">
        <ele>263.3</ele>
        <time>2016-02-14T09:34:48Z</time>
      </trkpt>
      <trkpt lat="43.77031" lon="5.22544">
        <ele>263.7</ele>
        <time>2016-02-14T09:34:55Z</time>
      </trkpt>
      <trkpt lat="43.77021" lon="5.22551">
        <ele>264.3</ele>
        <time>2016-02-14T09:35:02Z</time>
      </trkpt>
      <trkpt lat="43.77014" lon="5.22562">
        <ele>264.6</ele>
        <time>2016-02-14T09:35:07Z</time>
      </trkpt>
      <trkpt lat="43.77009" lon="5.22574">
        <ele>264.9</ele>
        <time>2016-02-14T09:35:15Z</time>
      </trkpt>
      <trkpt lat="43.77001" lon="5.2258">
        <ele>265.2</ele>
        <time>2016-02-14T09:35:22Z</time>
      </trkpt>
      <trkpt lat="43.76992" lon="5.22576">
        <ele>265.5</ele>
        <time>2016-02-14T09:35:27Z</time>
      </trkpt>
      <trkpt lat="43.76987" lon="5.22561">
        <ele>265.8</ele>
        <time>2016-02-14T09:35:31Z</time>
      </trkpt>
      <trkpt lat="43.76988" lon="5.22549">
        <ele>265.9</ele>
        <time>2016-02-14T09:35:34Z</time>
      </trkpt>
      <trkpt lat="43.76982" lon="5.22537">
        <ele>266.5</ele>
        <time>2016-02-14T09:35:42Z</time>
      </trkpt>
      <trkpt lat="43.76974" lon="5.22529">
        <ele>266.8</ele>
        <time>2016-02-14T09:35:50Z</time>
      </trkpt>
      <trkpt lat="43.76966" lon="5.22522">
        <ele>267.1</ele>
        <time>2016-02-14T09:35:57Z</time>
      </trkpt>
      <trkpt lat="43.76957" lon="5.22517">
        <ele>267.5</ele>
        <time>2016-02-14T09:36:02Z</time>
      </trkpt>
      <trkpt lat="43.76948" lon="5.22518">
        <ele>268.7</ele>
        <time>2016-02-14T09:36:13Z</time>
      </trkpt>
      <trkpt lat="43.76939" lon="5.22512">
        <ele>269.3</ele>
        <time>2016-02-14T09:36:18Z</time>
      </trkpt>
      <trkpt lat="43.76933" lon="5.22502">
        <ele>270</ele>
        <time>2016-02-14T09:36:29Z</time>
      </trkpt>
      <trkpt lat="43.76937" lon="5.22489">
        <ele>270.8</ele>
        <time>2016-02-14T09:36:38Z</time>
      </trkpt>
      <trkpt lat="43.76942" lon="5.22478">
        <ele>271.5</ele>
        <time>2016-02-14T09:36:43Z</time>
      </trkpt>
      <trkpt lat="43.76952" lon="5.22472">
        <ele>272.3</ele>
        <time>2016-02-14T09:36:48Z</time>
      </trkpt>
      <trkpt lat="43.76961" lon="5.2247">
        <ele>273.8</ele>
        <time>2016-02-14T09:36:57Z</time>
      </trkpt>
      <trkpt lat="43.76971" lon="5.2247">
        <ele>275.2</ele>
        <time>2016-02-14T09:37:04Z</time>
      </trkpt>
      <trkpt lat="43.7698" lon="5.2247">
        <ele>276.6</ele>
        <time>2016-02-14T09:37:12Z</time>
      </trkpt>
      <trkpt lat="43.7699" lon="5.22472">
        <ele>277.6</ele>
        <time>2016-02-14T09:37:18Z</time>
      </trkpt>
      <trkpt lat="43.76999" lon="5.2247">
        <ele>278.5</ele>
        <time>2016-02-14T09:37:24Z</time>
      </trkpt>
      <trkpt lat="43.77008" lon="5.22465">
        <ele>279.2</ele>
        <time>2016-02-14T09:37:29Z</time>
      </trkpt>
      <trkpt lat="43.77017" lon="5.22463">
        <ele>280.4</ele>
        <time>2016-02-14T09:37:36Z</time>
      </trkpt>
      <trkpt lat="43.77024" lon="5.22456">
        <ele>281.3</ele>
        <time>2016-02-14T09:37:43Z</time>
      </trkpt>
      <trkpt lat="43.77031" lon="5.22446">
        <ele>281.9</ele>
        <time>2016-02-14T09:37:48Z</time>
      </trkpt>
      <trkpt lat="43.77038" lon="5.22436">
        <ele>282.5</ele>
        <time>2016-02-14T09:37:54Z</time>
      </trkpt>
      <trkpt lat="43.77047" lon="5.22431">
        <ele>282.9</ele>
        <time>2016-02-14T09:38:00Z</time>
      </trkpt>
      <trkpt lat="43.77056" lon="5.22424">
        <ele>283.1</ele>
        <time>2016-02-14T09:38:06Z</time>
      </trkpt>
      <trkpt lat="43.77061" lon="5.22411">
        <ele>283.3</ele>
        <time>2016-02-14T09:38:11Z</time>
      </trkpt>
      <trkpt lat="43.77067" lon="5.22398">
        <ele>283.4</ele>
        <time>2016-02-14T09:38:16Z</time>
      </trkpt>
      <trkpt lat="43.77074" lon="5.22387">
        <ele>283.5</ele>
        <time>2016-02-14T09:38:21Z</time>
      </trkpt>
      <trkpt lat="43.77082" lon="5.22377">
        <ele>283.5</ele>
        <time>2016-02-14T09:38:25Z</time>
      </trkpt>
      <trkpt lat="43.77088" lon="5.22367">
        <ele>283.6</ele>
        <time>2016-02-14T09:38:31Z</time>
      </trkpt>
      <trkpt lat="43.77095" lon="5.22358">
        <ele>283.6</ele>
        <time>2016-02-14T09:38:37Z</time>
      </trkpt>
      <trkpt lat="43.77104" lon="5.22353">
        <ele>283.5</ele>
        <time>2016-02-14T09:38:43Z</time>
      </trkpt>
      <trkpt lat="43.77113" lon="5.22349">
        <ele>283.3</ele>
        <time>2016-02-14T09:38:49Z</time>
      </trkpt>
      <trkpt lat="43.77122" lon="5.22342">
        <ele>283.2</ele>
        <time>2016-02-14T09:38:56Z</time>
      </trkpt>
      <trkpt lat="43.77131" lon="5.22337">
        <ele>283.1</ele>
        <time>2016-02-14T09:39:03Z</time>
      </trkpt>
      <trkpt lat="43.77141" lon="5.22337">
        <ele>283.1</ele>
        <time>2016-02-14T09:39:10Z</time>
      </trkpt>
      <trkpt lat="43.7715" lon="5.22333">
        <ele>283</ele>
        <time>2016-02-14T09:39:17Z</time>
      </trkpt>
      <trkpt lat="43.7716" lon="5.2233">
        <ele>282.8</ele>
        <time>2016-02-14T09:39:24Z</time>
      </trkpt>
      <trkpt lat="43.77169" lon="5.22328">
        <ele>282.4</ele>
        <time>2016-02-14T09:39:29Z</time>
      </trkpt>
      <trkpt lat="43.77178" lon="5.22324">
        <ele>282.1</ele>
        <time>2016-02-14T09:39:36Z</time>
      </trkpt>
      <trkpt lat="43.77185" lon="5.22314">
        <ele>281.8</ele>
        <time>2016-02-14T09:39:43Z</time>
      </trkpt>
      <trkpt lat="43.77191" lon="5.22302">
        <ele>282</ele>
        <time>2016-02-14T09:39:50Z</time>
      </trkpt>
      <trkpt lat="43.77198" lon="5.22294">
        <ele>282.2</ele>
        <time>2016-02-14T09:39:56Z</time>
      </trkpt>
      <trkpt lat="43.77207" lon="5.22287">
        <ele>282.6</ele>
        <time>2016-02-14T09:40:03Z</time>
      </trkpt>
      <trkpt lat="43.7721" lon="5.22274">
        <ele>283.5</ele>
        <time>2016-02-14T09:40:11Z</time>
      </trkpt>
      <trkpt lat="43.77216" lon="5.22264">
        <ele>284.4</ele>
        <time>2016-02-14T09:40:19Z</time>
      </trkpt>
      <trkpt lat="43.77225" lon="5.22259">
        <ele>284.9</ele>
        <time>2016-02-14T09:40:23Z</time>
      </trkpt>
      <trkpt lat="43.77234" lon="5.22254">
        <ele>286.2</ele>
        <time>2016-02-14T09:40:31Z</time>
      </trkpt>
      <trkpt lat="43.77242" lon="5.22251">
        <ele>287.3</ele>
        <time>2016-02-14T09:40:38Z</time>
      </trkpt>
      <trkpt lat="43.77252" lon="5.22247">
        <ele>288.4</ele>
        <time>2016-02-14T09:40:46Z</time>
      </trkpt>
      <trkpt lat="43.77261" lon="5.22241">
        <ele>289.5</ele>
        <time>2016-02-14T09:40:54Z</time>
      </trkpt>
      <trkpt lat="43.77269" lon="5.22234">
        <ele>290.5</ele>
        <time>2016-02-14T09:41:00Z</time>
      </trkpt>
      <trkpt lat="43.77278" lon="5.22228">
        <ele>291.4</ele>
        <time>2016-02-14T09:41:06Z</time>
      </trkpt>
      <trkpt lat="43.77286" lon="5.22222">
        <ele>292.9</ele>
        <time>2016-02-14T09:41:14Z</time>
      </trkpt>
      <trkpt lat="43.77296" lon="5.2222">
        <ele>293.8</ele>
        <time>2016-02-14T09:41:20Z</time>
      </trkpt>
      <trkpt lat="43.77306" lon="5.22219">
        <ele>294.5</ele>
        <time>2016-02-14T09:41:24Z</time>
      </trkpt>
      <trkpt lat="43.77317" lon="5.22217">
        <ele>295.4</ele>
        <time>2016-02-14T09:41:29Z</time>
      </trkpt>
      <trkpt lat="43.77326" lon="5.22215">
        <ele>296.8</ele>
        <time>2016-02-14T09:41:36Z</time>
      </trkpt>
      <trkpt lat="43.77335" lon="5.22209">
        <ele>298.3</ele>
        <time>2016-02-14T09:41:43Z</time>
      </trkpt>
      <trkpt lat="43.77345" lon="5.22202">
        <ele>299.6</ele>
        <time>2016-02-14T09:41:50Z</time>
      </trkpt>
      <trkpt lat="43.77353" lon="5.22195">
        <ele>300.6</ele>
        <time>2016-02-14T09:41:57Z</time>
      </trkpt>
      <trkpt lat="43.77362" lon="5.22191">
        <ele>301.6</ele>
        <time>2016-02-14T09:42:03Z</time>
      </trkpt>
      <trkpt lat="43.7737" lon="5.22183">
        <ele>302.7</ele>
        <time>2016-02-14T09:42:10Z</time>
      </trkpt>
      <trkpt lat="43.77379" lon="5.22176">
        <ele>303.8</ele>
        <time>2016-02-14T09:42:17Z</time>
      </trkpt>
      <trkpt lat="43.77388" lon="5.22172">
        <ele>304.7</ele>
        <time>2016-02-14T09:42:24Z</time>
      </trkpt>
      <trkpt lat="43.77397" lon="5.22166">
        <ele>305.6</ele>
        <time>2016-02-14T09:42:30Z</time>
      </trkpt>
      <trkpt lat="43.77407" lon="5.22162">
        <ele>306.7</ele>
        <time>2016-02-14T09:42:38Z</time>
      </trkpt>
      <trkpt lat="43.77415" lon="5.22156">
        <ele>307.8</ele>
        <time>2016-02-14T09:42:46Z</time>
      </trkpt>
      <trkpt lat="43.77424" lon="5.22152">
        <ele>308.7</ele>
        <time>2016-02-14T09:42:53Z</time>
      </trkpt>
      <trkpt lat="43.77433" lon="5.22147">
        <ele>310</ele>
        <time>2016-02-14T09:43:01Z</time>
      </trkpt>
      <trkpt lat="43.77443" lon="5.22142">
        <ele>311.4</ele>
        <time>2016-02-14T09:43:09Z</time>
      </trkpt>
      <trkpt lat="43.77451" lon="5.22133">
        <ele>312.7</ele>
        <time>2016-02-14T09:43:16Z</time>
      </trkpt>
      <trkpt lat="43.77459" lon="5.22126">
        <ele>313.8</ele>
        <time>2016-02-14T09:43:22Z</time>
      </trkpt>
      <trkpt lat="43.77468" lon="5.22118">
        <ele>315.3</ele>
        <time>2016-02-14T09:43:30Z</time>
      </trkpt>
      <trkpt lat="43.77477" lon="5.22114">
        <ele>316.3</ele>
        <time>2016-02-14T09:43:37Z</time>
      </trkpt>
      <trkpt lat="43.77485" lon="5.2211">
        <ele>317.7</ele>
        <time>2016-02-14T09:43:45Z</time>
      </trkpt>
      <trkpt lat="43.77493" lon="5.22101">
        <ele>319.1</ele>
        <time>2016-02-14T09:43:52Z</time>
      </trkpt>
      <trkpt lat="43.77501" lon="5.22094">
        <ele>320.5</ele>
        <time>2016-02-14T09:44:00Z</time>
      </trkpt>
      <trkpt lat="43.77507" lon="5.22085">
        <ele>321.7</ele>
        <time>2016-02-14T09:44:06Z</time>
      </trkpt>
      <trkpt lat="43.77516" lon="5.22077">
        <ele>322.8</ele>
        <time>2016-02-14T09:44:13Z</time>
      </trkpt>
      <trkpt lat="43.77521" lon="5.22066">
        <ele>324.3</ele>
        <time>2016-02-14T09:44:22Z</time>
      </trkpt>
      <trkpt lat="43.7753" lon="5.22054">
        <ele>325.2</ele>
        <time>2016-02-14T09:44:28Z</time>
      </trkpt>
      <trkpt lat="43.77537" lon="5.22046">
        <ele>326.4</ele>
        <time>2016-02-14T09:44:36Z</time>
      </trkpt>
      <trkpt lat="43.77546" lon="5.22041">
        <ele>327.7</ele>
        <time>2016-02-14T09:44:45Z</time>
      </trkpt>
      <trkpt lat="43.77553" lon="5.22032">
        <ele>328.7</ele>
        <time>2016-02-14T09:44:53Z</time>
      </trkpt>
      <trkpt lat="43.77562" lon="5.22022">
        <ele>329.4</ele>
        <time>2016-02-14T09:44:59Z</time>
      </trkpt>
      <trkpt lat="43.77571" lon="5.22016">
        <ele>330.2</ele>
        <time>2016-02-14T09:45:05Z</time>
      </trkpt>
      <trkpt lat="43.77578" lon="5.22006">
        <ele>331.3</ele>
        <time>2016-02-14T09:45:13Z</time>
      </trkpt>
      <trkpt lat="43.77568" lon="5.22002">
        <ele>332.6</ele>
        <time>2016-02-14T09:45:20Z</time>
      </trkpt>
      <trkpt lat="43.77558" lon="5.21999">
        <ele>333.5</ele>
        <time>2016-02-14T09:45:26Z</time>
      </trkpt>
      <trkpt lat="43.77548" lon="5.21996">
        <ele>334.5</ele>
        <time>2016-02-14T09:45:34Z</time>
      </trkpt>
      <trkpt lat="43.7754" lon="5.21987">
        <ele>335.2</ele>
        <time>2016-02-14T09:45:40Z</time>
      </trkpt>
      <trkpt lat="43.77542" lon="5.21972">
        <ele>336.2</ele>
        <time>2016-02-14T09:45:47Z</time>
      </trkpt>
      <trkpt lat="43.7755" lon="5.21963">
        <ele>337.4</ele>
        <time>2016-02-14T09:45:53Z</time>
      </trkpt>
      <trkpt lat="43.77557" lon="5.21955">
        <ele>338.3</ele>
        <time>2016-02-14T09:45:58Z</time>
      </trkpt>
      <trkpt lat="43.77563" lon="5.21945">
        <ele>339.3</ele>
        <time>2016-02-14T09:46:04Z</time>
      </trkpt>
      <trkpt lat="43.77569" lon="5.21934">
        <ele>340.3</ele>
        <time>2016-02-14T09:46:11Z</time>
      </trkpt>
      <trkpt lat="43.77574" lon="5.21922">
        <ele>341.2</ele>
        <time>2016-02-14T09:46:19Z</time>
      </trkpt>
      <trkpt lat="43.77582" lon="5.21911">
        <ele>341.7</ele>
        <time>2016-02-14T09:46:25Z</time>
      </trkpt>
      <trkpt lat="43.7759" lon="5.21904">
        <ele>341.9</ele>
        <time>2016-02-14T09:46:31Z</time>
      </trkpt>
      <trkpt lat="43.77597" lon="5.21896">
        <ele>342</ele>
        <time>2016-02-14T09:46:36Z</time>
      </trkpt>
      <trkpt lat="43.77606" lon="5.21892">
        <ele>342</ele>
        <time>2016-02-14T09:46:42Z</time>
      </trkpt>
      <trkpt lat="43.77616" lon="5.21893">
        <ele>341.9</ele>
        <time>2016-02-14T09:46:48Z</time>
      </trkpt>
      <trkpt lat="43.77626" lon="5.21892">
        <ele>341.7</ele>
        <time>2016-02-14T09:46:54Z</time>
      </trkpt>
      <trkpt lat="43.77635" lon="5.21891">
        <ele>341.4</ele>
        <time>2016-02-14T09:46:59Z</time>
      </trkpt>
      <trkpt lat="43.77644" lon="5.21887">
        <ele>341.2</ele>
        <time>2016-02-14T09:47:03Z</time>
      </trkpt>
      <trkpt lat="43.77654" lon="5.21886">
        <ele>341</ele>
        <time>2016-02-14T09:47:08Z</time>
      </trkpt>
      <trkpt lat="43.77661" lon="5.21878">
        <ele>340.2</ele>
        <time>2016-02-14T09:47:18Z</time>
      </trkpt>
      <trkpt lat="43.7767" lon="5.21872">
        <ele>339.1</ele>
        <time>2016-02-14T09:47:26Z</time>
      </trkpt>
      <trkpt lat="43.77678" lon="5.21866">
        <ele>337.6</ele>
        <time>2016-02-14T09:47:34Z</time>
      </trkpt>
      <trkpt lat="43.77685" lon="5.21855">
        <ele>336.6</ele>
        <time>2016-02-14T09:47:41Z</time>
      </trkpt>
      <trkpt lat="43.7769" lon="5.21843">
        <ele>335.9</ele>
        <time>2016-02-14T09:47:48Z</time>
      </trkpt>
      <trkpt lat="43.77696" lon="5.21835">
        <ele>335.3</ele>
        <time>2016-02-14T09:47:57Z</time>
      </trkpt>
      <trkpt lat="43.77702" lon="5.21824">
        <ele>335.1</ele>
        <time>2016-02-14T09:48:05Z</time>
      </trkpt>
      <trkpt lat="43.77708" lon="5.21813">
        <ele>335.1</ele>
        <time>2016-02-14T09:48:12Z</time>
      </trkpt>
      <trkpt lat="43.77713" lon="5.21803">
        <ele>335.8</ele>
        <time>2016-02-14T09:48:20Z</time>
      </trkpt>
      <trkpt lat="43.7772" lon="5.21793">
        <ele>336.8</ele>
        <time>2016-02-14T09:48:28Z</time>
      </trkpt>
      <trkpt lat="43.77728" lon="5.21787">
        <ele>338.5</ele>
        <time>2016-02-14T09:48:41Z</time>
      </trkpt>
      <trkpt lat="43.77737" lon="5.21782">
        <ele>339.4</ele>
        <time>2016-02-14T09:48:48Z</time>
      </trkpt>
      <trkpt lat="43.77746" lon="5.21775">
        <ele>340.2</ele>
        <time>2016-02-14T09:48:55Z</time>
      </trkpt>
      <trkpt lat="43.77754" lon="5.21768">
        <ele>341</ele>
        <time>2016-02-14T09:49:03Z</time>
      </trkpt>
      <trkpt lat="43.77763" lon="5.21758">
        <ele>341.5</ele>
        <time>2016-02-14T09:49:09Z</time>
      </trkpt>
      <trkpt lat="43.77773" lon="5.21751">
        <ele>342</ele>
        <time>2016-02-14T09:49:13Z</time>
      </trkpt>
      <trkpt lat="43.7778" lon="5.21741">
        <ele>343.6</ele>
        <time>2016-02-14T09:49:21Z</time>
      </trkpt>
      <trkpt lat="43.77788" lon="5.21735">
        <ele>345</ele>
        <time>2016-02-14T09:49:27Z</time>
      </trkpt>
      <trkpt lat="43.77798" lon="5.21729">
        <ele>346</ele>
        <time>2016-02-14T09:49:32Z</time>
      </trkpt>
      <trkpt lat="43.77808" lon="5.21726">
        <ele>346.8</ele>
        <time>2016-02-14T09:49:36Z</time>
      </trkpt>
      <trkpt lat="43.77817" lon="5.21723">
        <ele>347.7</ele>
        <time>2016-02-14T09:49:41Z</time>
      </trkpt>
      <trkpt lat="43.77826" lon="5.21723">
        <ele>348.5</ele>
        <time>2016-02-14T09:49:46Z</time>
      </trkpt>
      <trkpt lat="43.77836" lon="5.2172">
        <ele>349.4</ele>
        <time>2016-02-14T09:49:54Z</time>
      </trkpt>
      <trkpt lat="43.77845" lon="5.21717">
        <ele>349.8</ele>
        <time>2016-02-14T09:50:00Z</time>
      </trkpt>
      <trkpt lat="43.77854" lon="5.2171">
        <ele>350.2</ele>
        <time>2016-02-14T09:50:07Z</time>
      </trkpt>
      <trkpt lat="43.77862" lon="5.21702">
        <ele>350.4</ele>
        <time>2016-02-14T09:50:13Z</time>
      </trkpt>
      <trkpt lat="43.7787" lon="5.21696">
        <ele>350.9</ele>
        <time>2016-02-14T09:50:21Z</time>
      </trkpt>
      <trkpt lat="43.77878" lon="5.21689">
        <ele>351.5</ele>
        <time>2016-02-14T09:50:29Z</time>
      </trkpt>
      <trkpt lat="43.77884" lon="5.21677">
        <ele>352.1</ele>
        <time>2016-02-14T09:50:35Z</time>
      </trkpt>
      <trkpt lat="43.77892" lon="5.2167">
        <ele>352.6</ele>
        <time>2016-02-14T09:50:41Z</time>
      </trkpt>
      <trkpt lat="43.77901" lon="5.21666">
        <ele>352.9</ele>
        <time>2016-02-14T09:50:48Z</time>
      </trkpt>
      <trkpt lat="43.77909" lon="5.21658">
        <ele>353.2</ele>
        <time>2016-02-14T09:50:55Z</time>
      </trkpt>
      <trkpt lat="43.77916" lon="5.21648">
        <ele>353.4</ele>
        <time>2016-02-14T09:51:02Z</time>
      </trkpt>
      <trkpt lat="43.77924" lon="5.21641">
        <ele>353.5</ele>
        <time>2016-02-14T09:51:09Z</time>
      </trkpt>
      <trkpt lat="43.77932" lon="5.21635">
        <ele>353.6</ele>
        <time>2016-02-14T09:51:15Z</time>
      </trkpt>
      <trkpt lat="43.77941" lon="5.21632">
        <ele>353.8</ele>
        <time>2016-02-14T09:51:21Z</time>
      </trkpt>
      <trkpt lat="43.7795" lon="5.21627">
        <ele>354</ele>
        <time>2016-02-14T09:51:27Z</time>
      </trkpt>
      <trkpt lat="43.77959" lon="5.21622">
        <ele>354.3</ele>
        <time>2016-02-14T09:51:33Z</time>
      </trkpt>
      <trkpt lat="43.77969" lon="5.2162">
        <ele>354.6</ele>
        <time>2016-02-14T09:51:39Z</time>
      </trkpt>
      <trkpt lat="43.77977" lon="5.21615">
        <ele>355</ele>
        <time>2016-02-14T09:51:45Z</time>
      </trkpt>
      <trkpt lat="43.77987" lon="5.21613">
        <ele>355.4</ele>
        <time>2016-02-14T09:51:52Z</time>
      </trkpt>
      <trkpt lat="43.77994" lon="5.21603">
        <ele>355.8</ele>
        <time>2016-02-14T09:51:59Z</time>
      </trkpt>
      <trkpt lat="43.78002" lon="5.21594">
        <ele>356.3</ele>
        <time>2016-02-14T09:52:06Z</time>
      </trkpt>
      <trkpt lat="43.78011" lon="5.21591">
        <ele>356.8</ele>
        <time>2016-02-14T09:52:12Z</time>
      </trkpt>
      <trkpt lat="43.78023" lon="5.21588">
        <ele>357.3</ele>
        <time>2016-02-14T09:52:19Z</time>
      </trkpt>
      <trkpt lat="43.78032" lon="5.21583">
        <ele>357.8</ele>
        <time>2016-02-14T09:52:26Z</time>
      </trkpt>
      <trkpt lat="43.78042" lon="5.21582">
        <ele>358.3</ele>
        <time>2016-02-14T09:52:35Z</time>
      </trkpt>
      <trkpt lat="43.78052" lon="5.2158">
        <ele>359</ele>
        <time>2016-02-14T09:52:44Z</time>
      </trkpt>
      <trkpt lat="43.78061" lon="5.21579">
        <ele>359.6</ele>
        <time>2016-02-14T09:52:52Z</time>
      </trkpt>
      <trkpt lat="43.78071" lon="5.21576">
        <ele>360.5</ele>
        <time>2016-02-14T09:53:01Z</time>
      </trkpt>
      <trkpt lat="43.78082" lon="5.21572">
        <ele>361.2</ele>
        <time>2016-02-14T09:53:07Z</time>
      </trkpt>
      <trkpt lat="43.78091" lon="5.21571">
        <ele>362.2</ele>
        <time>2016-02-14T09:53:14Z</time>
      </trkpt>
      <trkpt lat="43.781" lon="5.2157">
        <ele>363.3</ele>
        <time>2016-02-14T09:53:22Z</time>
      </trkpt>
      <trkpt lat="43.7811" lon="5.2157">
        <ele>363.9</ele>
        <time>2016-02-14T09:53:26Z</time>
      </trkpt>
      <trkpt lat="43.78118" lon="5.21564">
        <ele>364.4</ele>
        <time>2016-02-14T09:53:30Z</time>
      </trkpt>
      <trkpt lat="43.78128" lon="5.21561">
        <ele>365.4</ele>
        <time>2016-02-14T09:53:36Z</time>
      </trkpt>
      <trkpt lat="43.78137" lon="5.21559">
        <ele>366.4</ele>
        <time>2016-02-14T09:53:42Z</time>
      </trkpt>
      <trkpt lat="43.78148" lon="5.21561">
        <ele>367.3</ele>
        <time>2016-02-14T09:53:46Z</time>
      </trkpt>
      <trkpt lat="43.78158" lon="5.21562">
        <ele>368.3</ele>
        <time>2016-02-14T09:53:50Z</time>
      </trkpt>
      <trkpt lat="43.78169" lon="5.21559">
        <ele>369.6</ele>
        <time>2016-02-14T09:53:55Z</time>
      </trkpt>
      <trkpt lat="43.78179" lon="5.21563">
        <ele>371.5</ele>
        <time>2016-02-14T09:54:02Z</time>
      </trkpt>
      <trkpt lat="43.7819" lon="5.21563">
        <ele>372.5</ele>
        <time>2016-02-14T09:54:07Z</time>
      </trkpt>
      <trkpt lat="43.78201" lon="5.21561">
        <ele>373.4</ele>
        <time>2016-02-14T09:54:11Z</time>
      </trkpt>
      <trkpt lat="43.78211" lon="5.21557">
        <ele>374.3</ele>
        <time>2016-02-14T09:54:15Z</time>
      </trkpt>
      <trkpt lat="43.78221" lon="5.21552">
        <ele>375</ele>
        <time>2016-02-14T09:54:18Z</time>
      </trkpt>
      <trkpt lat="43.78231" lon="5.21548">
        <ele>375.9</ele>
        <time>2016-02-14T09:54:21Z</time>
      </trkpt>
      <trkpt lat="43.7824" lon="5.21544">
        <ele>377</ele>
        <time>2016-02-14T09:54:24Z</time>
      </trkpt>
      <trkpt lat="43.78249" lon="5.2154">
        <ele>377.9</ele>
        <time>2016-02-14T09:54:27Z</time>
      </trkpt>
      <trkpt lat="43.78258" lon="5.21534">
        <ele>380.5</ele>
        <time>2016-02-14T09:54:34Z</time>
      </trkpt>
      <trkpt lat="43.78268" lon="5.21532">
        <ele>382.4</ele>
        <time>2016-02-14T09:54:40Z</time>
      </trkpt>
      <trkpt lat="43.78277" lon="5.21538">
        <ele>384.9</ele>
        <time>2016-02-14T09:54:49Z</time>
      </trkpt>
      <trkpt lat="43.78287" lon="5.21541">
        <ele>386.1</ele>
        <time>2016-02-14T09:54:55Z</time>
      </trkpt>
      <trkpt lat="43.78297" lon="5.21546">
        <ele>387</ele>
        <time>2016-02-14T09:55:01Z</time>
      </trkpt>
      <trkpt lat="43.78306" lon="5.2155">
        <ele>387.9</ele>
        <time>2016-02-14T09:55:09Z</time>
      </trkpt>
      <trkpt lat="43.78316" lon="5.21552">
        <ele>388.3</ele>
        <time>2016-02-14T09:55:16Z</time>
      </trkpt>
      <trkpt lat="43.78326" lon="5.21549">
        <ele>388.4</ele>
        <time>2016-02-14T09:55:23Z</time>
      </trkpt>
      <trkpt lat="43.78335" lon="5.21545">
        <ele>388.3</ele>
        <time>2016-02-14T09:55:28Z</time>
      </trkpt>
      <trkpt lat="43.78346" lon="5.21545">
        <ele>387.8</ele>
        <time>2016-02-14T09:55:35Z</time>
      </trkpt>
      <trkpt lat="43.78355" lon="5.21546">
        <ele>387.4</ele>
        <time>2016-02-14T09:55:40Z</time>
      </trkpt>
      <trkpt lat="43.78364" lon="5.21545">
        <ele>386.7</ele>
        <time>2016-02-14T09:55:47Z</time>
      </trkpt>
      <trkpt lat="43.78375" lon="5.21544">
        <ele>385.6</ele>
        <time>2016-02-14T09:55:55Z</time>
      </trkpt>
      <trkpt lat="43.78383" lon="5.21538">
        <ele>384.2</ele>
        <time>2016-02-14T09:56:05Z</time>
      </trkpt>
      <trkpt lat="43.7839" lon="5.2153">
        <ele>382.8</ele>
        <time>2016-02-14T09:56:13Z</time>
      </trkpt>
      <trkpt lat="43.78399" lon="5.21526">
        <ele>381.9</ele>
        <time>2016-02-14T09:56:18Z</time>
      </trkpt>
      <trkpt lat="43.78409" lon="5.21521">
        <ele>380.9</ele>
        <time>2016-02-14T09:56:24Z</time>
      </trkpt>
      <trkpt lat="43.78418" lon="5.21519">
        <ele>380</ele>
        <time>2016-02-14T09:56:31Z</time>
      </trkpt>
      <trkpt lat="43.78428" lon="5.21516">
        <ele>377.7</ele>
        <time>2016-02-14T09:56:40Z</time>
      </trkpt>
      <trkpt lat="43.78437" lon="5.21515">
        <ele>376.2</ele>
        <time>2016-02-14T09:56:53Z</time>
      </trkpt>
      <trkpt lat="43.78447" lon="5.21509">
        <ele>374.4</ele>
        <time>2016-02-14T09:57:16Z</time>
      </trkpt>
      <trkpt lat="43.78438" lon="5.21502">
        <ele>373.7</ele>
        <time>2016-02-14T09:57:24Z</time>
      </trkpt>
      <trkpt lat="43.78428" lon="5.21498">
        <ele>372.9</ele>
        <time>2016-02-14T09:57:30Z</time>
      </trkpt>
      <trkpt lat="43.78418" lon="5.21495">
        <ele>372.1</ele>
        <time>2016-02-14T09:57:36Z</time>
      </trkpt>
      <trkpt lat="43.78409" lon="5.21496">
        <ele>371.1</ele>
        <time>2016-02-14T09:57:42Z</time>
      </trkpt>
      <trkpt lat="43.78398" lon="5.21498">
        <ele>370.1</ele>
        <time>2016-02-14T09:57:49Z</time>
      </trkpt>
      <trkpt lat="43.78389" lon="5.21502">
        <ele>368.7</ele>
        <time>2016-02-14T09:57:57Z</time>
      </trkpt>
      <trkpt lat="43.78391" lon="5.21489">
        <ele>366.4</ele>
        <time>2016-02-14T09:58:10Z</time>
      </trkpt>
      <trkpt lat="43.78401" lon="5.21483">
        <ele>365.4</ele>
        <time>2016-02-14T09:58:16Z</time>
      </trkpt>
      <trkpt lat="43.78411" lon="5.21477">
        <ele>364.5</ele>
        <time>2016-02-14T09:58:21Z</time>
      </trkpt>
      <trkpt lat="43.7842" lon="5.21469">
        <ele>363.7</ele>
        <time>2016-02-14T09:58:27Z</time>
      </trkpt>
      <trkpt lat="43.7843" lon="5.21464">
        <ele>362.7</ele>
        <time>2016-02-14T09:58:34Z</time>
      </trkpt>
      <trkpt lat="43.78439" lon="5.21464">
        <ele>361.8</ele>
        <time>2016-02-14T09:58:41Z</time>
      </trkpt>
      <trkpt lat="43.78449" lon="5.21463">
        <ele>360.4</ele>
        <time>2016-02-14T09:58:49Z</time>
      </trkpt>
      <trkpt lat="43.78459" lon="5.21464">
        <ele>359.3</ele>
        <time>2016-02-14T09:58:56Z</time>
      </trkpt>
      <trkpt lat="43.78469" lon="5.21465">
        <ele>358.9</ele>
        <time>2016-02-14T09:59:01Z</time>
      </trkpt>
      <trkpt lat="43.78478" lon="5.21466">
        <ele>356.6</ele>
        <time>2016-02-14T09:59:22Z</time>
      </trkpt>
      <trkpt lat="43.78487" lon="5.21463">
        <ele>355.9</ele>
        <time>2016-02-14T09:59:27Z</time>
      </trkpt>
      <trkpt lat="43.78498" lon="5.2146">
        <ele>355.4</ele>
        <time>2016-02-14T09:59:31Z</time>
      </trkpt>
      <trkpt lat="43.78507" lon="5.21455">
        <ele>355.1</ele>
        <time>2016-02-14T09:59:34Z</time>
      </trkpt>
      <trkpt lat="43.78511" lon="5.21442">
        <ele>354.3</ele>
        <time>2016-02-14T09:59:43Z</time>
      </trkpt>
      <trkpt lat="43.78502" lon="5.21436">
        <ele>353.9</ele>
        <time>2016-02-14T09:59:48Z</time>
      </trkpt>
      <trkpt lat="43.78493" lon="5.21431">
        <ele>353.4</ele>
        <time>2016-02-14T09:59:54Z</time>
      </trkpt>
      <trkpt lat="43.78484" lon="5.21428">
        <ele>353</ele>
        <time>2016-02-14T09:59:59Z</time>
      </trkpt>
      <trkpt lat="43.78475" lon="5.21428">
        <ele>352.4</ele>
        <time>2016-02-14T10:00:04Z</time>
      </trkpt>
      <trkpt lat="43.78465" lon="5.21429">
        <ele>351.8</ele>
        <time>2016-02-14T10:00:09Z</time>
      </trkpt>
      <trkpt lat="43.78455" lon="5.21431">
        <ele>351.1</ele>
        <time>2016-02-14T10:00:15Z</time>
      </trkpt>
      <trkpt lat="43.78445" lon="5.2143">
        <ele>350.2</ele>
        <time>2016-02-14T10:00:21Z</time>
      </trkpt>
      <trkpt lat="43.78434" lon="5.21428">
        <ele>349.6</ele>
        <time>2016-02-14T10:00:27Z</time>
      </trkpt>
      <trkpt lat="43.78424" lon="5.21425">
        <ele>348.8</ele>
        <time>2016-02-14T10:00:33Z</time>
      </trkpt>
      <trkpt lat="43.78415" lon="5.21422">
        <ele>348.1</ele>
        <time>2016-02-14T10:00:38Z</time>
      </trkpt>
      <trkpt lat="43.78406" lon="5.21418">
        <ele>347.4</ele>
        <time>2016-02-14T10:00:44Z</time>
      </trkpt>
      <trkpt lat="43.78396" lon="5.21416">
        <ele>346.5</ele>
        <time>2016-02-14T10:00:50Z</time>
      </trkpt>
      <trkpt lat="43.78385" lon="5.21418">
        <ele>345.7</ele>
        <time>2016-02-14T10:00:56Z</time>
      </trkpt>
      <trkpt lat="43.78378" lon="5.21427">
        <ele>344.9</ele>
        <time>2016-02-14T10:01:02Z</time>
      </trkpt>
      <trkpt lat="43.78373" lon="5.21437">
        <ele>344.2</ele>
        <time>2016-02-14T10:01:08Z</time>
      </trkpt>
      <trkpt lat="43.78365" lon="5.21444">
        <ele>343.7</ele>
        <time>2016-02-14T10:01:15Z</time>
      </trkpt>
      <trkpt lat="43.78355" lon="5.21448">
        <ele>343.2</ele>
        <time>2016-02-14T10:01:23Z</time>
      </trkpt>
      <trkpt lat="43.78346" lon="5.21452">
        <ele>342.7</ele>
        <time>2016-02-14T10:01:29Z</time>
      </trkpt>
      <trkpt lat="43.78336" lon="5.21454">
        <ele>342</ele>
        <time>2016-02-14T10:01:36Z</time>
      </trkpt>
      <trkpt lat="43.78327" lon="5.21449">
        <ele>340.8</ele>
        <time>2016-02-14T10:01:41Z</time>
      </trkpt>
      <trkpt lat="43.78319" lon="5.21442">
        <ele>339.8</ele>
        <time>2016-02-14T10:01:47Z</time>
      </trkpt>
      <trkpt lat="43.7831" lon="5.21437">
        <ele>339</ele>
        <time>2016-02-14T10:01:54Z</time>
      </trkpt>
      <trkpt lat="43.78301" lon="5.21433">
        <ele>338.3</ele>
        <time>2016-02-14T10:02:00Z</time>
      </trkpt>
      <trkpt lat="43.78292" lon="5.2143">
        <ele>337.5</ele>
        <time>2016-02-14T10:02:06Z</time>
      </trkpt>
      <trkpt lat="43.78283" lon="5.21426">
        <ele>336.8</ele>
        <time>2016-02-14T10:02:11Z</time>
      </trkpt>
      <trkpt lat="43.78273" lon="5.21425">
        <ele>335.8</ele>
        <time>2016-02-14T10:02:19Z</time>
      </trkpt>
      <trkpt lat="43.78265" lon="5.21417">
        <ele>334.9</ele>
        <time>2016-02-14T10:02:26Z</time>
      </trkpt>
      <trkpt lat="43.78258" lon="5.21408">
        <ele>334.4</ele>
        <time>2016-02-14T10:02:31Z</time>
      </trkpt>
      <trkpt lat="43.78252" lon="5.21399">
        <ele>333.9</ele>
        <time>2016-02-14T10:02:36Z</time>
      </trkpt>
      <trkpt lat="43.78243" lon="5.21397">
        <ele>333.1</ele>
        <time>2016-02-14T10:02:43Z</time>
      </trkpt>
      <trkpt lat="43.78233" lon="5.21393">
        <ele>332.5</ele>
        <time>2016-02-14T10:02:49Z</time>
      </trkpt>
      <trkpt lat="43.78224" lon="5.21392">
        <ele>331.6</ele>
        <time>2016-02-14T10:02:55Z</time>
      </trkpt>
      <trkpt lat="43.78214" lon="5.21394">
        <ele>330.9</ele>
        <time>2016-02-14T10:03:01Z</time>
      </trkpt>
      <trkpt lat="43.78204" lon="5.21398">
        <ele>330.1</ele>
        <time>2016-02-14T10:03:07Z</time>
      </trkpt>
      <trkpt lat="43.78195" lon="5.21402">
        <ele>329.5</ele>
        <time>2016-02-14T10:03:13Z</time>
      </trkpt>
      <trkpt lat="43.78185" lon="5.21404">
        <ele>328.5</ele>
        <time>2016-02-14T10:03:21Z</time>
      </trkpt>
      <trkpt lat="43.78176" lon="5.21409">
        <ele>327.9</ele>
        <time>2016-02-14T10:03:27Z</time>
      </trkpt>
      <trkpt lat="43.78167" lon="5.21413">
        <ele>327.2</ele>
        <time>2016-02-14T10:03:34Z</time>
      </trkpt>
      <trkpt lat="43.78157" lon="5.21416">
        <ele>326.7</ele>
        <time>2016-02-14T10:03:40Z</time>
      </trkpt>
      <trkpt lat="43.78147" lon="5.21419">
        <ele>326</ele>
        <time>2016-02-14T10:03:48Z</time>
      </trkpt>
      <trkpt lat="43.78137" lon="5.21422">
        <ele>325.5</ele>
        <time>2016-02-14T10:03:54Z</time>
      </trkpt>
      <trkpt lat="43.78128" lon="5.21422">
        <ele>324.9</ele>
        <time>2016-02-14T10:03:59Z</time>
      </trkpt>
      <trkpt lat="43.78118" lon="5.21424">
        <ele>324.2</ele>
        <time>2016-02-14T10:04:05Z</time>
      </trkpt>
      <trkpt lat="43.78108" lon="5.21427">
        <ele>323.7</ele>
        <time>2016-02-14T10:04:11Z</time>
      </trkpt>
      <trkpt lat="43.78099" lon="5.21432">
        <ele>323.1</ele>
        <time>2016-02-14T10:04:15Z</time>
      </trkpt>
      <trkpt lat="43.78091" lon="5.21438">
        <ele>322.4</ele>
        <time>2016-02-14T10:04:20Z</time>
      </trkpt>
      <trkpt lat="43.78082" lon="5.21443">
        <ele>321.7</ele>
        <time>2016-02-14T10:04:27Z</time>
      </trkpt>
      <trkpt lat="43.78072" lon="5.21441">
        <ele>321.2</ele>
        <time>2016-02-14T10:04:33Z</time>
      </trkpt>
      <trkpt lat="43.78068" lon="5.21428">
        <ele>320.5</ele>
        <time>2016-02-14T10:04:40Z</time>
      </trkpt>
      <trkpt lat="43.78065" lon="5.21414">
        <ele>320</ele>
        <time>2016-02-14T10:04:46Z</time>
      </trkpt>
      <trkpt lat="43.78062" lon="5.214">
        <ele>319.5</ele>
        <time>2016-02-14T10:04:52Z</time>
      </trkpt>
      <trkpt lat="43.78057" lon="5.21389">
        <ele>319</ele>
        <time>2016-02-14T10:04:57Z</time>
      </trkpt>
      <trkpt lat="43.78049" lon="5.21382">
        <ele>318.2</ele>
        <time>2016-02-14T10:05:06Z</time>
      </trkpt>
      <trkpt lat="43.78042" lon="5.21372">
        <ele>317.5</ele>
        <time>2016-02-14T10:05:13Z</time>
      </trkpt>
      <trkpt lat="43.78038" lon="5.21361">
        <ele>317</ele>
        <time>2016-02-14T10:05:20Z</time>
      </trkpt>
      <trkpt lat="43.78035" lon="5.21347">
        <ele>316.6</ele>
        <time>2016-02-14T10:05:26Z</time>
      </trkpt>
      <trkpt lat="43.78038" lon="5.21334">
        <ele>316.1</ele>
        <time>2016-02-14T10:05:33Z</time>
      </trkpt>
      <trkpt lat="43.78043" lon="5.21323">
        <ele>315.7</ele>
        <time>2016-02-14T10:05:39Z</time>
      </trkpt>
      <trkpt lat="43.78049" lon="5.21313">
        <ele>315.3</ele>
        <time>2016-02-14T10:05:45Z</time>
      </trkpt>
      <trkpt lat="43.78053" lon="5.21301">
        <ele>314.9</ele>
        <time>2016-02-14T10:05:52Z</time>
      </trkpt>
      <trkpt lat="43.78053" lon="5.21288">
        <ele>314.6</ele>
        <time>2016-02-14T10:05:59Z</time>
      </trkpt>
      <trkpt lat="43.78048" lon="5.21276">
        <ele>313.9</ele>
        <time>2016-02-14T10:06:07Z</time>
      </trkpt>
      <trkpt lat="43.78041" lon="5.21266">
        <ele>313.3</ele>
        <time>2016-02-14T10:06:13Z</time>
      </trkpt>
      <trkpt lat="43.78035" lon="5.21256">
        <ele>312.5</ele>
        <time>2016-02-14T10:06:20Z</time>
      </trkpt>
      <trkpt lat="43.78031" lon="5.21244">
        <ele>311.7</ele>
        <time>2016-02-14T10:06:27Z</time>
      </trkpt>
      <trkpt lat="43.78023" lon="5.21233">
        <ele>311.1</ele>
        <time>2016-02-14T10:06:34Z</time>
      </trkpt>
      <trkpt lat="43.78017" lon="5.21221">
        <ele>310.4</ele>
        <time>2016-02-14T10:06:40Z</time>
      </trkpt>
      <trkpt lat="43.78012" lon="5.2121">
        <ele>309.2</ele>
        <time>2016-02-14T10:06:45Z</time>
      </trkpt>
      <trkpt lat="43.78003" lon="5.21204">
        <ele>308.3</ele>
        <time>2016-02-14T10:06:51Z</time>
      </trkpt>
      <trkpt lat="43.77995" lon="5.21201">
        <ele>307.7</ele>
        <time>2016-02-14T10:06:57Z</time>
      </trkpt>
      <trkpt lat="43.77987" lon="5.21194">
        <ele>307</ele>
        <time>2016-02-14T10:07:05Z</time>
      </trkpt>
      <trkpt lat="43.77978" lon="5.21187">
        <ele>306.5</ele>
        <time>2016-02-14T10:07:11Z</time>
      </trkpt>
      <trkpt lat="43.77967" lon="5.21185">
        <ele>305.7</ele>
        <time>2016-02-14T10:07:18Z</time>
      </trkpt>
      <trkpt lat="43.77958" lon="5.21183">
        <ele>304.9</ele>
        <time>2016-02-14T10:07:25Z</time>
      </trkpt>
      <trkpt lat="43.77947" lon="5.21181">
        <ele>304</ele>
        <time>2016-02-14T10:07:32Z</time>
      </trkpt>
      <trkpt lat="43.77938" lon="5.21181">
        <ele>303</ele>
        <time>2016-02-14T10:07:38Z</time>
      </trkpt>
      <trkpt lat="43.77929" lon="5.21183">
        <ele>302</ele>
        <time>2016-02-14T10:07:46Z</time>
      </trkpt>
      <trkpt lat="43.77919" lon="5.21186">
        <ele>301</ele>
        <time>2016-02-14T10:07:53Z</time>
      </trkpt>
      <trkpt lat="43.7791" lon="5.21179">
        <ele>300.1</ele>
        <time>2016-02-14T10:08:00Z</time>
      </trkpt>
      <trkpt lat="43.77902" lon="5.2117">
        <ele>299.5</ele>
        <time>2016-02-14T10:08:07Z</time>
      </trkpt>
      <trkpt lat="43.77896" lon="5.21159">
        <ele>298.9</ele>
        <time>2016-02-14T10:08:14Z</time>
      </trkpt>
      <trkpt lat="43.77889" lon="5.2115">
        <ele>298.4</ele>
        <time>2016-02-14T10:08:20Z</time>
      </trkpt>
      <trkpt lat="43.7788" lon="5.21148">
        <ele>298.1</ele>
        <time>2016-02-14T10:08:25Z</time>
      </trkpt>
      <trkpt lat="43.77872" lon="5.21138">
        <ele>297.7</ele>
        <time>2016-02-14T10:08:31Z</time>
      </trkpt>
      <trkpt lat="43.77862" lon="5.21134">
        <ele>297.2</ele>
        <time>2016-02-14T10:08:38Z</time>
      </trkpt>
      <trkpt lat="43.77853" lon="5.21129">
        <ele>296.6</ele>
        <time>2016-02-14T10:08:44Z</time>
      </trkpt>
      <trkpt lat="43.77845" lon="5.21123">
        <ele>296.1</ele>
        <time>2016-02-14T10:08:50Z</time>
      </trkpt>
      <trkpt lat="43.77835" lon="5.21119">
        <ele>295.5</ele>
        <time>2016-02-14T10:08:56Z</time>
      </trkpt>
      <trkpt lat="43.77825" lon="5.21118">
        <ele>294.9</ele>
        <time>2016-02-14T10:09:02Z</time>
      </trkpt>
      <trkpt lat="43.77816" lon="5.21116">
        <ele>294.4</ele>
        <time>2016-02-14T10:09:08Z</time>
      </trkpt>
      <trkpt lat="43.77807" lon="5.21114">
        <ele>293.9</ele>
        <time>2016-02-14T10:09:14Z</time>
      </trkpt>
      <trkpt lat="43.77797" lon="5.21116">
        <ele>293.3</ele>
        <time>2016-02-14T10:09:20Z</time>
      </trkpt>
      <trkpt lat="43.77789" lon="5.21123">
        <ele>293</ele>
        <time>2016-02-14T10:09:25Z</time>
      </trkpt>
      <trkpt lat="43.77784" lon="5.21134">
        <ele>292.4</ele>
        <time>2016-02-14T10:09:32Z</time>
      </trkpt>
      <trkpt lat="43.77775" lon="5.21142">
        <ele>291.2</ele>
        <time>2016-02-14T10:09:38Z</time>
      </trkpt>
      <trkpt lat="43.77765" lon="5.21142">
        <ele>290.3</ele>
        <time>2016-02-14T10:09:45Z</time>
      </trkpt>
      <trkpt lat="43.77755" lon="5.21143">
        <ele>289.7</ele>
        <time>2016-02-14T10:09:51Z</time>
      </trkpt>
      <trkpt lat="43.77744" lon="5.21143">
        <ele>288.9</ele>
        <time>2016-02-14T10:09:56Z</time>
      </trkpt>
      <trkpt lat="43.77736" lon="5.21138">
        <ele>287.8</ele>
        <time>2016-02-14T10:10:05Z</time>
      </trkpt>
      <trkpt lat="43.77728" lon="5.21145">
        <ele>287.8</ele>
        <time>2016-02-14T10:10:10Z</time>
      </trkpt>
      <trkpt lat="43.77722" lon="5.21155">
        <ele>287.5</ele>
        <time>2016-02-14T10:10:16Z</time>
      </trkpt>
      <trkpt lat="43.77715" lon="5.21164">
        <ele>287</ele>
        <time>2016-02-14T10:10:23Z</time>
      </trkpt>
      <trkpt lat="43.77705" lon="5.21173">
        <ele>286.5</ele>
        <time>2016-02-14T10:10:29Z</time>
      </trkpt>
      <trkpt lat="43.77697" lon="5.21183">
        <ele>286</ele>
        <time>2016-02-14T10:10:34Z</time>
      </trkpt>
      <trkpt lat="43.77691" lon="5.21194">
        <ele>285.6</ele>
        <time>2016-02-14T10:10:39Z</time>
      </trkpt>
      <trkpt lat="43.77686" lon="5.21207">
        <ele>285.2</ele>
        <time>2016-02-14T10:10:45Z</time>
      </trkpt>
      <trkpt lat="43.77682" lon="5.2122">
        <ele>284.6</ele>
        <time>2016-02-14T10:10:52Z</time>
      </trkpt>
      <trkpt lat="43.77679" lon="5.21231">
        <ele>283.8</ele>
        <time>2016-02-14T10:11:02Z</time>
      </trkpt>
      <trkpt lat="43.77678" lon="5.21244">
        <ele>283.3</ele>
        <time>2016-02-14T10:11:08Z</time>
      </trkpt>
      <trkpt lat="43.77669" lon="5.21242">
        <ele>282</ele>
        <time>2016-02-14T10:12:38Z</time>
      </trkpt>
      <trkpt lat="43.7766" lon="5.2125">
        <ele>282</ele>
        <time>2016-02-14T10:12:44Z</time>
      </trkpt>
      <trkpt lat="43.7765" lon="5.21255">
        <ele>282.1</ele>
        <time>2016-02-14T10:12:51Z</time>
      </trkpt>
      <trkpt lat="43.77641" lon="5.21258">
        <ele>282.3</ele>
        <time>2016-02-14T10:12:57Z</time>
      </trkpt>
      <trkpt lat="43.77633" lon="5.21267">
        <ele>282.6</ele>
        <time>2016-02-14T10:13:04Z</time>
      </trkpt>
      <trkpt lat="43.77627" lon="5.21277">
        <ele>282.8</ele>
        <time>2016-02-14T10:13:10Z</time>
      </trkpt>
      <trkpt lat="43.77622" lon="5.21289">
        <ele>283</ele>
        <time>2016-02-14T10:13:16Z</time>
      </trkpt>
      <trkpt lat="43.77617" lon="5.21299">
        <ele>283.3</ele>
        <time>2016-02-14T10:13:23Z</time>
      </trkpt>
      <trkpt lat="43.77611" lon="5.2131">
        <ele>283.4</ele>
        <time>2016-02-14T10:13:29Z</time>
      </trkpt>
      <trkpt lat="43.77604" lon="5.21321">
        <ele>283.5</ele>
        <time>2016-02-14T10:13:35Z</time>
      </trkpt>
      <trkpt lat="43.77599" lon="5.21333">
        <ele>283.6</ele>
        <time>2016-02-14T10:13:41Z</time>
      </trkpt>
      <trkpt lat="43.77597" lon="5.21347">
        <ele>283.7</ele>
        <time>2016-02-14T10:13:49Z</time>
      </trkpt>
      <trkpt lat="43.77598" lon="5.21361">
        <ele>283.7</ele>
        <time>2016-02-14T10:13:55Z</time>
      </trkpt>
      <trkpt lat="43.77597" lon="5.21375">
        <ele>283.8</ele>
        <time>2016-02-14T10:14:01Z</time>
      </trkpt>
      <trkpt lat="43.77597" lon="5.21387">
        <ele>283.8</ele>
        <time>2016-02-14T10:14:09Z</time>
      </trkpt>
      <trkpt lat="43.77594" lon="5.21399">
        <ele>283.8</ele>
        <time>2016-02-14T10:14:15Z</time>
      </trkpt>
      <trkpt lat="43.77592" lon="5.21414">
        <ele>283.8</ele>
        <time>2016-02-14T10:14:22Z</time>
      </trkpt>
      <trkpt lat="43.77592" lon="5.21426">
        <ele>283.7</ele>
        <time>2016-02-14T10:14:27Z</time>
      </trkpt>
      <trkpt lat="43.77592" lon="5.21439">
        <ele>283.5</ele>
        <time>2016-02-14T10:14:33Z</time>
      </trkpt>
      <trkpt lat="43.77589" lon="5.21453">
        <ele>283.4</ele>
        <time>2016-02-14T10:14:40Z</time>
      </trkpt>
      <trkpt lat="43.77585" lon="5.21464">
        <ele>283.4</ele>
        <time>2016-02-14T10:14:47Z</time>
      </trkpt>
      <trkpt lat="43.77581" lon="5.21477">
        <ele>283.3</ele>
        <time>2016-02-14T10:14:54Z</time>
      </trkpt>
      <trkpt lat="43.77577" lon="5.21491">
        <ele>283.3</ele>
        <time>2016-02-14T10:15:00Z</time>
      </trkpt>
      <trkpt lat="43.7757" lon="5.21502">
        <ele>283.3</ele>
        <time>2016-02-14T10:15:06Z</time>
      </trkpt>
      <trkpt lat="43.77563" lon="5.2151">
        <ele>283.4</ele>
        <time>2016-02-14T10:15:12Z</time>
      </trkpt>
      <trkpt lat="43.77552" lon="5.21514">
        <ele>283.4</ele>
        <time>2016-02-14T10:15:17Z</time>
      </trkpt>
      <trkpt lat="43.77543" lon="5.21515">
        <ele>283.5</ele>
        <time>2016-02-14T10:15:24Z</time>
      </trkpt>
      <trkpt lat="43.77533" lon="5.21516">
        <ele>283.6</ele>
        <time>2016-02-14T10:15:30Z</time>
      </trkpt>
      <trkpt lat="43.77523" lon="5.21519">
        <ele>283.7</ele>
        <time>2016-02-14T10:15:35Z</time>
      </trkpt>
      <trkpt lat="43.77514" lon="5.21525">
        <ele>283.8</ele>
        <time>2016-02-14T10:15:41Z</time>
      </trkpt>
      <trkpt lat="43.77508" lon="5.21535">
        <ele>284.1</ele>
        <time>2016-02-14T10:15:48Z</time>
      </trkpt>
      <trkpt lat="43.77499" lon="5.21542">
        <ele>284.5</ele>
        <time>2016-02-14T10:15:54Z</time>
      </trkpt>
      <trkpt lat="43.7749" lon="5.2155">
        <ele>284.7</ele>
        <time>2016-02-14T10:16:00Z</time>
      </trkpt>
      <trkpt lat="43.77481" lon="5.21558">
        <ele>284.8</ele>
        <time>2016-02-14T10:16:08Z</time>
      </trkpt>
      <trkpt lat="43.77474" lon="5.21565">
        <ele>284.9</ele>
        <time>2016-02-14T10:16:15Z</time>
      </trkpt>
      <trkpt lat="43.77465" lon="5.21571">
        <ele>284.9</ele>
        <time>2016-02-14T10:16:19Z</time>
      </trkpt>
      <trkpt lat="43.77457" lon="5.2158">
        <ele>284.9</ele>
        <time>2016-02-14T10:16:24Z</time>
      </trkpt>
      <trkpt lat="43.77452" lon="5.21591">
        <ele>285</ele>
        <time>2016-02-14T10:16:30Z</time>
      </trkpt>
      <trkpt lat="43.77449" lon="5.21604">
        <ele>285.1</ele>
        <time>2016-02-14T10:16:36Z</time>
      </trkpt>
      <trkpt lat="43.77443" lon="5.21614">
        <ele>285.2</ele>
        <time>2016-02-14T10:16:43Z</time>
      </trkpt>
      <trkpt lat="43.77435" lon="5.21625">
        <ele>285.2</ele>
        <time>2016-02-14T10:16:50Z</time>
      </trkpt>
      <trkpt lat="43.77427" lon="5.21633">
        <ele>285</ele>
        <time>2016-02-14T10:16:56Z</time>
      </trkpt>
      <trkpt lat="43.77419" lon="5.2164">
        <ele>284.6</ele>
        <time>2016-02-14T10:17:02Z</time>
      </trkpt>
      <trkpt lat="43.7741" lon="5.21643">
        <ele>284.2</ele>
        <time>2016-02-14T10:17:07Z</time>
      </trkpt>
      <trkpt lat="43.77401" lon="5.21648">
        <ele>283.2</ele>
        <time>2016-02-14T10:17:13Z</time>
      </trkpt>
      <trkpt lat="43.77393" lon="5.21655">
        <ele>282.5</ele>
        <time>2016-02-14T10:17:19Z</time>
      </trkpt>
      <trkpt lat="43.77384" lon="5.21664">
        <ele>282.1</ele>
        <time>2016-02-14T10:17:26Z</time>
      </trkpt>
      <trkpt lat="43.77377" lon="5.21672">
        <ele>281.9</ele>
        <time>2016-02-14T10:17:34Z</time>
      </trkpt>
      <trkpt lat="43.77369" lon="5.21681">
        <ele>281.9</ele>
        <time>2016-02-14T10:17:41Z</time>
      </trkpt>
      <trkpt lat="43.77364" lon="5.21694">
        <ele>281.8</ele>
        <time>2016-02-14T10:17:48Z</time>
      </trkpt>
      <trkpt lat="43.77359" lon="5.21704">
        <ele>281.6</ele>
        <time>2016-02-14T10:17:54Z</time>
      </trkpt>
      <trkpt lat="43.77352" lon="5.21713">
        <ele>281.4</ele>
        <time>2016-02-14T10:17:59Z</time>
      </trkpt>
      <trkpt lat="43.77344" lon="5.21723">
        <ele>281.1</ele>
        <time>2016-02-14T10:18:05Z</time>
      </trkpt>
      <trkpt lat="43.77336" lon="5.2173">
        <ele>281</ele>
        <time>2016-02-14T10:18:11Z</time>
      </trkpt>
      <trkpt lat="43.7733" lon="5.2174">
        <ele>280.9</ele>
        <time>2016-02-14T10:18:17Z</time>
      </trkpt>
      <trkpt lat="43.77322" lon="5.2175">
        <ele>280.8</ele>
        <time>2016-02-14T10:18:23Z</time>
      </trkpt>
      <trkpt lat="43.77316" lon="5.21761">
        <ele>280.7</ele>
        <time>2016-02-14T10:18:29Z</time>
      </trkpt>
      <trkpt lat="43.77309" lon="5.2177">
        <ele>280.5</ele>
        <time>2016-02-14T10:18:35Z</time>
      </trkpt>
      <trkpt lat="43.77302" lon="5.21777">
        <ele>280.3</ele>
        <time>2016-02-14T10:18:42Z</time>
      </trkpt>
      <trkpt lat="43.77292" lon="5.21783">
        <ele>280.2</ele>
        <time>2016-02-14T10:18:48Z</time>
      </trkpt>
      <trkpt lat="43.77283" lon="5.21787">
        <ele>279.7</ele>
        <time>2016-02-14T10:18:53Z</time>
      </trkpt>
      <trkpt lat="43.77274" lon="5.21786">
        <ele>278.9</ele>
        <time>2016-02-14T10:18:59Z</time>
      </trkpt>
      <trkpt lat="43.77264" lon="5.21784">
        <ele>278.3</ele>
        <time>2016-02-14T10:19:05Z</time>
      </trkpt>
      <trkpt lat="43.77255" lon="5.21782">
        <ele>278</ele>
        <time>2016-02-14T10:19:11Z</time>
      </trkpt>
      <trkpt lat="43.77246" lon="5.21778">
        <ele>277.2</ele>
        <time>2016-02-14T10:19:17Z</time>
      </trkpt>
      <trkpt lat="43.77235" lon="5.2178">
        <ele>276.2</ele>
        <time>2016-02-14T10:19:23Z</time>
      </trkpt>
      <trkpt lat="43.77225" lon="5.21776">
        <ele>275.5</ele>
        <time>2016-02-14T10:19:30Z</time>
      </trkpt>
      <trkpt lat="43.77216" lon="5.21773">
        <ele>274.9</ele>
        <time>2016-02-14T10:19:36Z</time>
      </trkpt>
      <trkpt lat="43.77205" lon="5.21772">
        <ele>274.5</ele>
        <time>2016-02-14T10:19:42Z</time>
      </trkpt>
      <trkpt lat="43.77195" lon="5.21773">
        <ele>274.5</ele>
        <time>2016-02-14T10:19:48Z</time>
      </trkpt>
      <trkpt lat="43.77186" lon="5.21774">
        <ele>274.3</ele>
        <time>2016-02-14T10:19:53Z</time>
      </trkpt>
      <trkpt lat="43.77177" lon="5.21767">
        <ele>274</ele>
        <time>2016-02-14T10:19:58Z</time>
      </trkpt>
      <trkpt lat="43.77167" lon="5.21762">
        <ele>273.8</ele>
        <time>2016-02-14T10:20:04Z</time>
      </trkpt>
      <trkpt lat="43.77157" lon="5.21764">
        <ele>273.6</ele>
        <time>2016-02-14T10:20:10Z</time>
      </trkpt>
      <trkpt lat="43.77146" lon="5.21764">
        <ele>273.6</ele>
        <time>2016-02-14T10:20:17Z</time>
      </trkpt>
      <trkpt lat="43.77137" lon="5.21766">
        <ele>273.8</ele>
        <time>2016-02-14T10:20:23Z</time>
      </trkpt>
      <trkpt lat="43.77127" lon="5.21768">
        <ele>273.9</ele>
        <time>2016-02-14T10:20:27Z</time>
      </trkpt>
      <trkpt lat="43.77121" lon="5.21758">
        <ele>274.1</ele>
        <time>2016-02-14T10:20:37Z</time>
      </trkpt>
      <trkpt lat="43.77126" lon="5.21747">
        <ele>275.1</ele>
        <time>2016-02-14T10:20:46Z</time>
      </trkpt>
      <trkpt lat="43.77124" lon="5.21735">
        <ele>276.1</ele>
        <time>2016-02-14T10:20:51Z</time>
      </trkpt>
      <trkpt lat="43.77132" lon="5.21727">
        <ele>278.1</ele>
        <time>2016-02-14T10:20:59Z</time>
      </trkpt>
      <trkpt lat="43.77138" lon="5.21715">
        <ele>279.5</ele>
        <time>2016-02-14T10:21:05Z</time>
      </trkpt>
      <trkpt lat="43.77141" lon="5.21703">
        <ele>281</ele>
        <time>2016-02-14T10:21:12Z</time>
      </trkpt>
      <trkpt lat="43.77142" lon="5.21691">
        <ele>281.9</ele>
        <time>2016-02-14T10:21:16Z</time>
      </trkpt>
      <trkpt lat="43.77147" lon="5.2168">
        <ele>283.1</ele>
        <time>2016-02-14T10:21:22Z</time>
      </trkpt>
      <trkpt lat="43.77153" lon="5.21669">
        <ele>284.5</ele>
        <time>2016-02-14T10:21:29Z</time>
      </trkpt>
      <trkpt lat="43.77153" lon="5.21655">
        <ele>285.8</ele>
        <time>2016-02-14T10:21:35Z</time>
      </trkpt>
      <trkpt lat="43.77158" lon="5.21643">
        <ele>287.2</ele>
        <time>2016-02-14T10:21:42Z</time>
      </trkpt>
      <trkpt lat="43.77165" lon="5.21634">
        <ele>288.6</ele>
        <time>2016-02-14T10:21:50Z</time>
      </trkpt>
      <trkpt lat="43.7717" lon="5.21623">
        <ele>289.8</ele>
        <time>2016-02-14T10:21:57Z</time>
      </trkpt>
      <trkpt lat="43.77177" lon="5.21613">
        <ele>290.8</ele>
        <time>2016-02-14T10:22:04Z</time>
      </trkpt>
      <trkpt lat="43.7718" lon="5.21601">
        <ele>291.5</ele>
        <time>2016-02-14T10:22:10Z</time>
      </trkpt>
      <trkpt lat="43.77187" lon="5.21589">
        <ele>292.2</ele>
        <time>2016-02-14T10:22:17Z</time>
      </trkpt>
      <trkpt lat="43.77193" lon="5.2158">
        <ele>292.7</ele>
        <time>2016-02-14T10:22:23Z</time>
      </trkpt>
      <trkpt lat="43.77198" lon="5.2157">
        <ele>293.4</ele>
        <time>2016-02-14T10:22:30Z</time>
      </trkpt>
      <trkpt lat="43.77202" lon="5.21556">
        <ele>294.2</ele>
        <time>2016-02-14T10:22:38Z</time>
      </trkpt>
      <trkpt lat="43.7721" lon="5.21549">
        <ele>294.6</ele>
        <time>2016-02-14T10:22:41Z</time>
      </trkpt>
      <trkpt lat="43.77205" lon="5.21537">
        <ele>295.2</ele>
        <time>2016-02-14T10:22:46Z</time>
      </trkpt>
      <trkpt lat="43.77201" lon="5.21525">
        <ele>295.7</ele>
        <time>2016-02-14T10:22:52Z</time>
      </trkpt>
      <trkpt lat="43.772" lon="5.21511">
        <ele>296.4</ele>
        <time>2016-02-14T10:23:00Z</time>
      </trkpt>
      <trkpt lat="43.77197" lon="5.21496">
        <ele>297</ele>
        <time>2016-02-14T10:23:07Z</time>
      </trkpt>
      <trkpt lat="43.77197" lon="5.21482">
        <ele>297.4</ele>
        <time>2016-02-14T10:23:13Z</time>
      </trkpt>
      <trkpt lat="43.77197" lon="5.21469">
        <ele>297.6</ele>
        <time>2016-02-14T10:23:18Z</time>
      </trkpt>
      <trkpt lat="43.77198" lon="5.21456">
        <ele>297.8</ele>
        <time>2016-02-14T10:23:25Z</time>
      </trkpt>
      <trkpt lat="43.77204" lon="5.21444">
        <ele>298.4</ele>
        <time>2016-02-14T10:23:33Z</time>
      </trkpt>
      <trkpt lat="43.77209" lon="5.21432">
        <ele>299</ele>
        <time>2016-02-14T10:23:40Z</time>
      </trkpt>
      <trkpt lat="43.77202" lon="5.21422">
        <ele>299.5</ele>
        <time>2016-02-14T10:23:47Z</time>
      </trkpt>
      <trkpt lat="43.77194" lon="5.21414">
        <ele>299.7</ele>
        <time>2016-02-14T10:23:52Z</time>
      </trkpt>
      <trkpt lat="43.77188" lon="5.21404">
        <ele>299.9</ele>
        <time>2016-02-14T10:23:58Z</time>
      </trkpt>
      <trkpt lat="43.77183" lon="5.21393">
        <ele>299.7</ele>
        <time>2016-02-14T10:24:02Z</time>
      </trkpt>
      <trkpt lat="43.77181" lon="5.21379">
        <ele>299.6</ele>
        <time>2016-02-14T10:24:07Z</time>
      </trkpt>
      <trkpt lat="43.77178" lon="5.21366">
        <ele>299</ele>
        <time>2016-02-14T10:24:12Z</time>
      </trkpt>
      <trkpt lat="43.77175" lon="5.21352">
        <ele>298.4</ele>
        <time>2016-02-14T10:24:18Z</time>
      </trkpt>
      <trkpt lat="43.77173" lon="5.21339">
        <ele>297.6</ele>
        <time>2016-02-14T10:24:25Z</time>
      </trkpt>
      <trkpt lat="43.77163" lon="5.21338">
        <ele>296.3</ele>
        <time>2016-02-14T10:24:33Z</time>
      </trkpt>
      <trkpt lat="43.77154" lon="5.2133">
        <ele>295.4</ele>
        <time>2016-02-14T10:24:38Z</time>
      </trkpt>
      <trkpt lat="43.77144" lon="5.21327">
        <ele>293.9</ele>
        <time>2016-02-14T10:24:45Z</time>
      </trkpt>
      <trkpt lat="43.77134" lon="5.21327">
        <ele>292.4</ele>
        <time>2016-02-14T10:24:51Z</time>
      </trkpt>
      <trkpt lat="43.77126" lon="5.2132">
        <ele>290.8</ele>
        <time>2016-02-14T10:24:58Z</time>
      </trkpt>
      <trkpt lat="43.77116" lon="5.21314">
        <ele>288.9</ele>
        <time>2016-02-14T10:25:06Z</time>
      </trkpt>
      <trkpt lat="43.7711" lon="5.21306">
        <ele>288.2</ele>
        <time>2016-02-14T10:25:09Z</time>
      </trkpt>
      <trkpt lat="43.77098" lon="5.21307">
        <ele>287.3</ele>
        <time>2016-02-14T10:25:14Z</time>
      </trkpt>
      <trkpt lat="43.77088" lon="5.21307">
        <ele>286.6</ele>
        <time>2016-02-14T10:25:19Z</time>
      </trkpt>
      <trkpt lat="43.77079" lon="5.21308">
        <ele>286</ele>
        <time>2016-02-14T10:25:23Z</time>
      </trkpt>
      <trkpt lat="43.7707" lon="5.2131">
        <ele>285.3</ele>
        <time>2016-02-14T10:25:29Z</time>
      </trkpt>
      <trkpt lat="43.77064" lon="5.213">
        <ele>284.1</ele>
        <time>2016-02-14T10:25:37Z</time>
      </trkpt>
      <trkpt lat="43.7706" lon="5.21314">
        <ele>281.3</ele>
        <time>2016-02-14T10:26:10Z</time>
      </trkpt>
      <trkpt lat="43.77067" lon="5.21302">
        <ele>280.3</ele>
        <time>2016-02-14T10:26:53Z</time>
      </trkpt>
      <trkpt lat="43.77072" lon="5.21291">
        <ele>280.2</ele>
        <time>2016-02-14T10:26:58Z</time>
      </trkpt>
      <trkpt lat="43.7708" lon="5.21285">
        <ele>280.1</ele>
        <time>2016-02-14T10:27:25Z</time>
      </trkpt>
      <trkpt lat="43.77089" lon="5.21292">
        <ele>280.1</ele>
        <time>2016-02-14T10:27:34Z</time>
      </trkpt>
      <trkpt lat="43.77083" lon="5.21282">
        <ele>280.3</ele>
        <time>2016-02-14T10:27:45Z</time>
      </trkpt>
      <trkpt lat="43.77076" lon="5.21273">
        <ele>280.4</ele>
        <time>2016-02-14T10:27:53Z</time>
      </trkpt>
      <trkpt lat="43.77068" lon="5.21264">
        <ele>280.9</ele>
        <time>2016-02-14T10:28:29Z</time>
      </trkpt>
      <trkpt lat="43.77073" lon="5.21252">
        <ele>280.9</ele>
        <time>2016-02-14T10:28:49Z</time>
      </trkpt>
      <trkpt lat="43.7707" lon="5.21238">
        <ele>280</ele>
        <time>2016-02-14T10:29:05Z</time>
      </trkpt>
      <trkpt lat="43.77072" lon="5.21224">
        <ele>279.4</ele>
        <time>2016-02-14T10:29:13Z</time>
      </trkpt>
      <trkpt lat="43.77071" lon="5.2121">
        <ele>279.1</ele>
        <time>2016-02-14T10:29:20Z</time>
      </trkpt>
      <trkpt lat="43.77073" lon="5.21196">
        <ele>278.8</ele>
        <time>2016-02-14T10:29:27Z</time>
      </trkpt>
      <trkpt lat="43.77073" lon="5.21183">
        <ele>278.7</ele>
        <time>2016-02-14T10:29:33Z</time>
      </trkpt>
      <trkpt lat="43.77076" lon="5.2117">
        <ele>278.6</ele>
        <time>2016-02-14T10:29:41Z</time>
      </trkpt>
      <trkpt lat="43.77075" lon="5.21155">
        <ele>278.4</ele>
        <time>2016-02-14T10:29:47Z</time>
      </trkpt>
      <trkpt lat="43.77074" lon="5.21142">
        <ele>277.6</ele>
        <time>2016-02-14T10:29:52Z</time>
      </trkpt>
      <trkpt lat="43.77076" lon="5.21128">
        <ele>276.7</ele>
        <time>2016-02-14T10:30:00Z</time>
      </trkpt>
      <trkpt lat="43.77074" lon="5.21114">
        <ele>276.5</ele>
        <time>2016-02-14T10:30:03Z</time>
      </trkpt>
      <trkpt lat="43.77072" lon="5.211">
        <ele>276</ele>
        <time>2016-02-14T10:30:08Z</time>
      </trkpt>
      <trkpt lat="43.77079" lon="5.21091">
        <ele>275.3</ele>
        <time>2016-02-14T10:30:18Z</time>
      </trkpt>
      <trkpt lat="43.77081" lon="5.21078">
        <ele>274.9</ele>
        <time>2016-02-14T10:30:25Z</time>
      </trkpt>
      <trkpt lat="43.77083" lon="5.21065">
        <ele>274.5</ele>
        <time>2016-02-14T10:30:33Z</time>
      </trkpt>
      <trkpt lat="43.77084" lon="5.21052">
        <ele>274</ele>
        <time>2016-02-14T10:30:40Z</time>
      </trkpt>
      <trkpt lat="43.77087" lon="5.21039">
        <ele>273.5</ele>
        <time>2016-02-14T10:30:47Z</time>
      </trkpt>
      <trkpt lat="43.7709" lon="5.21027">
        <ele>272.9</ele>
        <time>2016-02-14T10:30:52Z</time>
      </trkpt>
      <trkpt lat="43.77094" lon="5.21014">
        <ele>272.2</ele>
        <time>2016-02-14T10:30:58Z</time>
      </trkpt>
      <trkpt lat="43.77098" lon="5.21002">
        <ele>271.6</ele>
        <time>2016-02-14T10:31:04Z</time>
      </trkpt>
      <trkpt lat="43.771" lon="5.20988">
        <ele>270.8</ele>
        <time>2016-02-14T10:31:11Z</time>
      </trkpt>
      <trkpt lat="43.77101" lon="5.20974">
        <ele>270</ele>
        <time>2016-02-14T10:31:17Z</time>
      </trkpt>
      <trkpt lat="43.77105" lon="5.20961">
        <ele>269.2</ele>
        <time>2016-02-14T10:31:22Z</time>
      </trkpt>
      <trkpt lat="43.77109" lon="5.20949">
        <ele>268.8</ele>
        <time>2016-02-14T10:31:26Z</time>
      </trkpt>
      <trkpt lat="43.77109" lon="5.20937">
        <ele>268.3</ele>
        <time>2016-02-14T10:31:31Z</time>
      </trkpt>
      <trkpt lat="43.77109" lon="5.20923">
        <ele>267.9</ele>
        <time>2016-02-14T10:31:37Z</time>
      </trkpt>
      <trkpt lat="43.7711" lon="5.2091">
        <ele>267</ele>
        <time>2016-02-14T10:31:45Z</time>
      </trkpt>
      <trkpt lat="43.77111" lon="5.20897">
        <ele>266.1</ele>
        <time>2016-02-14T10:31:52Z</time>
      </trkpt>
      <trkpt lat="43.77113" lon="5.20882">
        <ele>265.3</ele>
        <time>2016-02-14T10:31:57Z</time>
      </trkpt>
      <trkpt lat="43.77117" lon="5.2087">
        <ele>264.2</ele>
        <time>2016-02-14T10:32:02Z</time>
      </trkpt>
      <trkpt lat="43.77121" lon="5.20856">
        <ele>262.6</ele>
        <time>2016-02-14T10:32:12Z</time>
      </trkpt>
      <trkpt lat="43.77123" lon="5.20843">
        <ele>262.1</ele>
        <time>2016-02-14T10:32:17Z</time>
      </trkpt>
      <trkpt lat="43.77124" lon="5.20828">
        <ele>261.7</ele>
        <time>2016-02-14T10:32:22Z</time>
      </trkpt>
      <trkpt lat="43.77124" lon="5.20816">
        <ele>261.4</ele>
        <time>2016-02-14T10:32:28Z</time>
      </trkpt>
      <trkpt lat="43.77123" lon="5.20803">
        <ele>261.2</ele>
        <time>2016-02-14T10:32:34Z</time>
      </trkpt>
      <trkpt lat="43.77121" lon="5.2079">
        <ele>261.3</ele>
        <time>2016-02-14T10:32:42Z</time>
      </trkpt>
      <trkpt lat="43.77117" lon="5.20779">
        <ele>261</ele>
        <time>2016-02-14T10:32:48Z</time>
      </trkpt>
      <trkpt lat="43.77117" lon="5.20765">
        <ele>260.8</ele>
        <time>2016-02-14T10:32:53Z</time>
      </trkpt>
      <trkpt lat="43.77121" lon="5.20753">
        <ele>260.4</ele>
        <time>2016-02-14T10:32:58Z</time>
      </trkpt>
      <trkpt lat="43.77128" lon="5.20743">
        <ele>260</ele>
        <time>2016-02-14T10:33:03Z</time>
      </trkpt>
      <trkpt lat="43.77132" lon="5.20731">
        <ele>259.6</ele>
        <time>2016-02-14T10:33:09Z</time>
      </trkpt>
      <trkpt lat="43.77138" lon="5.2072">
        <ele>259.3</ele>
        <time>2016-02-14T10:33:16Z</time>
      </trkpt>
      <trkpt lat="43.77143" lon="5.20709">
        <ele>259.1</ele>
        <time>2016-02-14T10:33:23Z</time>
      </trkpt>
      <trkpt lat="43.77145" lon="5.20696">
        <ele>258.5</ele>
        <time>2016-02-14T10:33:29Z</time>
      </trkpt>
      <trkpt lat="43.77145" lon="5.20682">
        <ele>258.2</ele>
        <time>2016-02-14T10:33:35Z</time>
      </trkpt>
      <trkpt lat="43.77145" lon="5.20669">
        <ele>257.8</ele>
        <time>2016-02-14T10:33:42Z</time>
      </trkpt>
      <trkpt lat="43.77145" lon="5.20654">
        <ele>257</ele>
        <time>2016-02-14T10:33:47Z</time>
      </trkpt>
      <trkpt lat="43.77147" lon="5.2064">
        <ele>256.1</ele>
        <time>2016-02-14T10:33:54Z</time>
      </trkpt>
      <trkpt lat="43.7715" lon="5.20626">
        <ele>255.5</ele>
        <time>2016-02-14T10:34:01Z</time>
      </trkpt>
      <trkpt lat="43.77152" lon="5.20612">
        <ele>255</ele>
        <time>2016-02-14T10:34:08Z</time>
      </trkpt>
      <trkpt lat="43.77156" lon="5.206">
        <ele>254.2</ele>
        <time>2016-02-14T10:34:15Z</time>
      </trkpt>
      <trkpt lat="43.7716" lon="5.20588">
        <ele>253.7</ele>
        <time>2016-02-14T10:34:21Z</time>
      </trkpt>
      <trkpt lat="43.77164" lon="5.20576">
        <ele>253.2</ele>
        <time>2016-02-14T10:34:28Z</time>
      </trkpt>
      <trkpt lat="43.77164" lon="5.20563">
        <ele>252.5</ele>
        <time>2016-02-14T10:34:34Z</time>
      </trkpt>
      <trkpt lat="43.77166" lon="5.20549">
        <ele>251.9</ele>
        <time>2016-02-14T10:34:40Z</time>
      </trkpt>
      <trkpt lat="43.77167" lon="5.20537">
        <ele>251.5</ele>
        <time>2016-02-14T10:34:46Z</time>
      </trkpt>
      <trkpt lat="43.77171" lon="5.20525">
        <ele>251</ele>
        <time>2016-02-14T10:34:53Z</time>
      </trkpt>
      <trkpt lat="43.77171" lon="5.2051">
        <ele>250.6</ele>
        <time>2016-02-14T10:34:59Z</time>
      </trkpt>
      <trkpt lat="43.77164" lon="5.20503">
        <ele>250.1</ele>
        <time>2016-02-14T10:35:04Z</time>
      </trkpt>
      <trkpt lat="43.77154" lon="5.20505">
        <ele>249.8</ele>
        <time>2016-02-14T10:35:11Z</time>
      </trkpt>
      <trkpt lat="43.77144" lon="5.20508">
        <ele>249.7</ele>
        <time>2016-02-14T10:35:17Z</time>
      </trkpt>
      <trkpt lat="43.77136" lon="5.20503">
        <ele>249.8</ele>
        <time>2016-02-14T10:35:20Z</time>
      </trkpt>
      <trkpt lat="43.77129" lon="5.20514">
        <ele>250.1</ele>
        <time>2016-02-14T10:35:26Z</time>
      </trkpt>
      <trkpt lat="43.7712" lon="5.20517">
        <ele>251.2</ele>
        <time>2016-02-14T10:35:34Z</time>
      </trkpt>
      <trkpt lat="43.77113" lon="5.20528">
        <ele>253.1</ele>
        <time>2016-02-14T10:35:40Z</time>
      </trkpt>
      <trkpt lat="43.77106" lon="5.20539">
        <ele>255.5</ele>
        <time>2016-02-14T10:35:47Z</time>
      </trkpt>
      <trkpt lat="43.77099" lon="5.20548">
        <ele>257.1</ele>
        <time>2016-02-14T10:35:51Z</time>
      </trkpt>
      <trkpt lat="43.77093" lon="5.20557">
        <ele>259.3</ele>
        <time>2016-02-14T10:35:56Z</time>
      </trkpt>
      <trkpt lat="43.77085" lon="5.20566">
        <ele>261.2</ele>
        <time>2016-02-14T10:36:01Z</time>
      </trkpt>
      <trkpt lat="43.77076" lon="5.20567">
        <ele>262.9</ele>
        <time>2016-02-14T10:36:06Z</time>
      </trkpt>
      <trkpt lat="43.77069" lon="5.20577">
        <ele>265.1</ele>
        <time>2016-02-14T10:36:16Z</time>
      </trkpt>
      <trkpt lat="43.77063" lon="5.20587">
        <ele>267.1</ele>
        <time>2016-02-14T10:36:26Z</time>
      </trkpt>
      <trkpt lat="43.77056" lon="5.20595">
        <ele>269.1</ele>
        <time>2016-02-14T10:36:34Z</time>
      </trkpt>
      <trkpt lat="43.77048" lon="5.20602">
        <ele>271</ele>
        <time>2016-02-14T10:36:41Z</time>
      </trkpt>
      <trkpt lat="43.7704" lon="5.20611">
        <ele>273.9</ele>
        <time>2016-02-14T10:36:50Z</time>
      </trkpt>
      <trkpt lat="43.77032" lon="5.20624">
        <ele>275.1</ele>
        <time>2016-02-14T10:36:53Z</time>
      </trkpt>
      <trkpt lat="43.77025" lon="5.20633">
        <ele>275.9</ele>
        <time>2016-02-14T10:36:55Z</time>
      </trkpt>
      <trkpt lat="43.77015" lon="5.2064">
        <ele>277.1</ele>
        <time>2016-02-14T10:36:58Z</time>
      </trkpt>
      <trkpt lat="43.77005" lon="5.20644">
        <ele>279.1</ele>
        <time>2016-02-14T10:37:03Z</time>
      </trkpt>
      <trkpt lat="43.76995" lon="5.20646">
        <ele>281.6</ele>
        <time>2016-02-14T10:37:07Z</time>
      </trkpt>
      <trkpt lat="43.76984" lon="5.20647">
        <ele>283.9</ele>
        <time>2016-02-14T10:37:12Z</time>
      </trkpt>
      <trkpt lat="43.76974" lon="5.20647">
        <ele>285.6</ele>
        <time>2016-02-14T10:37:17Z</time>
      </trkpt>
      <trkpt lat="43.76965" lon="5.20648">
        <ele>288.8</ele>
        <time>2016-02-14T10:37:29Z</time>
      </trkpt>
      <trkpt lat="43.76955" lon="5.20647">
        <ele>289.3</ele>
        <time>2016-02-14T10:37:33Z</time>
      </trkpt>
      <trkpt lat="43.76946" lon="5.20646">
        <ele>290.1</ele>
        <time>2016-02-14T10:37:39Z</time>
      </trkpt>
      <trkpt lat="43.76937" lon="5.20643">
        <ele>290.5</ele>
        <time>2016-02-14T10:37:43Z</time>
      </trkpt>
      <trkpt lat="43.76927" lon="5.20637">
        <ele>290.6</ele>
        <time>2016-02-14T10:37:49Z</time>
      </trkpt>
      <trkpt lat="43.76917" lon="5.2063">
        <ele>291.3</ele>
        <time>2016-02-14T10:37:55Z</time>
      </trkpt>
      <trkpt lat="43.76905" lon="5.2063">
        <ele>292.2</ele>
        <time>2016-02-14T10:38:01Z</time>
      </trkpt>
      <trkpt lat="43.76896" lon="5.20636">
        <ele>293.1</ele>
        <time>2016-02-14T10:38:08Z</time>
      </trkpt>
      <trkpt lat="43.76885" lon="5.20641">
        <ele>293.7</ele>
        <time>2016-02-14T10:38:15Z</time>
      </trkpt>
      <trkpt lat="43.76875" lon="5.20648">
        <ele>294.2</ele>
        <time>2016-02-14T10:38:21Z</time>
      </trkpt>
      <trkpt lat="43.76865" lon="5.20649">
        <ele>294.4</ele>
        <time>2016-02-14T10:38:28Z</time>
      </trkpt>
      <trkpt lat="43.76855" lon="5.20655">
        <ele>294.6</ele>
        <time>2016-02-14T10:38:34Z</time>
      </trkpt>
      <trkpt lat="43.76847" lon="5.20661">
        <ele>295</ele>
        <time>2016-02-14T10:38:41Z</time>
      </trkpt>
      <trkpt lat="43.7684" lon="5.20671">
        <ele>295.1</ele>
        <time>2016-02-14T10:38:47Z</time>
      </trkpt>
      <trkpt lat="43.76831" lon="5.2068">
        <ele>295.1</ele>
        <time>2016-02-14T10:38:53Z</time>
      </trkpt>
      <trkpt lat="43.76824" lon="5.20689">
        <ele>295.1</ele>
        <time>2016-02-14T10:38:58Z</time>
      </trkpt>
      <trkpt lat="43.76817" lon="5.20699">
        <ele>294.9</ele>
        <time>2016-02-14T10:39:04Z</time>
      </trkpt>
      <trkpt lat="43.7681" lon="5.20708">
        <ele>294.8</ele>
        <time>2016-02-14T10:39:11Z</time>
      </trkpt>
      <trkpt lat="43.76803" lon="5.20717">
        <ele>294.8</ele>
        <time>2016-02-14T10:39:17Z</time>
      </trkpt>
      <trkpt lat="43.76798" lon="5.20727">
        <ele>295</ele>
        <time>2016-02-14T10:39:22Z</time>
      </trkpt>
      <trkpt lat="43.7679" lon="5.20736">
        <ele>295.6</ele>
        <time>2016-02-14T10:39:29Z</time>
      </trkpt>
      <trkpt lat="43.76783" lon="5.20746">
        <ele>296.2</ele>
        <time>2016-02-14T10:39:34Z</time>
      </trkpt>
      <trkpt lat="43.76776" lon="5.20755">
        <ele>296.8</ele>
        <time>2016-02-14T10:39:39Z</time>
      </trkpt>
      <trkpt lat="43.76769" lon="5.20766">
        <ele>297.6</ele>
        <time>2016-02-14T10:39:44Z</time>
      </trkpt>
      <trkpt lat="43.76761" lon="5.20773">
        <ele>298.4</ele>
        <time>2016-02-14T10:39:49Z</time>
      </trkpt>
      <trkpt lat="43.76752" lon="5.2078">
        <ele>300.3</ele>
        <time>2016-02-14T10:39:59Z</time>
      </trkpt>
      <trkpt lat="43.76746" lon="5.20795">
        <ele>301.9</ele>
        <time>2016-02-14T10:40:07Z</time>
      </trkpt>
      <trkpt lat="43.76741" lon="5.20806">
        <ele>302.7</ele>
        <time>2016-02-14T10:40:11Z</time>
      </trkpt>
      <trkpt lat="43.76731" lon="5.20801">
        <ele>303.8</ele>
        <time>2016-02-14T10:40:17Z</time>
      </trkpt>
      <trkpt lat="43.76722" lon="5.208">
        <ele>304.7</ele>
        <time>2016-02-14T10:40:22Z</time>
      </trkpt>
      <trkpt lat="43.76712" lon="5.20803">
        <ele>306.1</ele>
        <time>2016-02-14T10:40:30Z</time>
      </trkpt>
      <trkpt lat="43.76704" lon="5.20809">
        <ele>307</ele>
        <time>2016-02-14T10:40:37Z</time>
      </trkpt>
      <trkpt lat="43.76694" lon="5.20809">
        <ele>307.9</ele>
        <time>2016-02-14T10:40:45Z</time>
      </trkpt>
      <trkpt lat="43.76685" lon="5.20817">
        <ele>308.6</ele>
        <time>2016-02-14T10:40:52Z</time>
      </trkpt>
      <trkpt lat="43.76679" lon="5.20826">
        <ele>309.3</ele>
        <time>2016-02-14T10:40:59Z</time>
      </trkpt>
      <trkpt lat="43.76671" lon="5.20835">
        <ele>310.3</ele>
        <time>2016-02-14T10:41:10Z</time>
      </trkpt>
      <trkpt lat="43.76664" lon="5.20845">
        <ele>310.8</ele>
        <time>2016-02-14T10:41:17Z</time>
      </trkpt>
      <trkpt lat="43.7666" lon="5.20857">
        <ele>311.1</ele>
        <time>2016-02-14T10:41:21Z</time>
      </trkpt>
      <trkpt lat="43.76653" lon="5.20867">
        <ele>311.7</ele>
        <time>2016-02-14T10:41:30Z</time>
      </trkpt>
      <trkpt lat="43.76646" lon="5.20874">
        <ele>311.9</ele>
        <time>2016-02-14T10:41:34Z</time>
      </trkpt>
      <trkpt lat="43.76638" lon="5.20882">
        <ele>312.3</ele>
        <time>2016-02-14T10:41:41Z</time>
      </trkpt>
      <trkpt lat="43.76631" lon="5.20892">
        <ele>312.6</ele>
        <time>2016-02-14T10:41:48Z</time>
      </trkpt>
      <trkpt lat="43.76622" lon="5.20899">
        <ele>312.5</ele>
        <time>2016-02-14T10:41:55Z</time>
      </trkpt>
      <trkpt lat="43.76613" lon="5.20909">
        <ele>312.1</ele>
        <time>2016-02-14T10:42:01Z</time>
      </trkpt>
      <trkpt lat="43.76606" lon="5.20918">
        <ele>311.8</ele>
        <time>2016-02-14T10:42:04Z</time>
      </trkpt>
      <trkpt lat="43.76598" lon="5.20929">
        <ele>310.9</ele>
        <time>2016-02-14T10:42:13Z</time>
      </trkpt>
      <trkpt lat="43.7659" lon="5.20937">
        <ele>310.3</ele>
        <time>2016-02-14T10:42:19Z</time>
      </trkpt>
      <trkpt lat="43.76584" lon="5.20951">
        <ele>309.4</ele>
        <time>2016-02-14T10:42:39Z</time>
      </trkpt>
      <trkpt lat="43.76576" lon="5.20959">
        <ele>309.3</ele>
        <time>2016-02-14T10:42:44Z</time>
      </trkpt>
      <trkpt lat="43.76567" lon="5.20965">
        <ele>308.6</ele>
        <time>2016-02-14T10:42:50Z</time>
      </trkpt>
      <trkpt lat="43.76558" lon="5.20965">
        <ele>308</ele>
        <time>2016-02-14T10:42:56Z</time>
      </trkpt>
      <trkpt lat="43.7655" lon="5.20973">
        <ele>307.9</ele>
        <time>2016-02-14T10:43:00Z</time>
      </trkpt>
      <trkpt lat="43.76541" lon="5.20982">
        <ele>307.7</ele>
        <time>2016-02-14T10:43:09Z</time>
      </trkpt>
      <trkpt lat="43.76533" lon="5.2099">
        <ele>307.6</ele>
        <time>2016-02-14T10:43:12Z</time>
      </trkpt>
      <trkpt lat="43.76524" lon="5.2099">
        <ele>307.5</ele>
        <time>2016-02-14T10:43:18Z</time>
      </trkpt>
      <trkpt lat="43.76514" lon="5.20986">
        <ele>307.3</ele>
        <time>2016-02-14T10:43:24Z</time>
      </trkpt>
      <trkpt lat="43.76505" lon="5.20983">
        <ele>306.8</ele>
        <time>2016-02-14T10:43:32Z</time>
      </trkpt>
      <trkpt lat="43.76496" lon="5.20981">
        <ele>306.4</ele>
        <time>2016-02-14T10:43:37Z</time>
      </trkpt>
      <trkpt lat="43.76488" lon="5.20975">
        <ele>306</ele>
        <time>2016-02-14T10:43:44Z</time>
      </trkpt>
      <trkpt lat="43.7648" lon="5.20965">
        <ele>305.7</ele>
        <time>2016-02-14T10:43:50Z</time>
      </trkpt>
      <trkpt lat="43.76473" lon="5.20954">
        <ele>305.5</ele>
        <time>2016-02-14T10:43:56Z</time>
      </trkpt>
      <trkpt lat="43.76466" lon="5.20946">
        <ele>305.3</ele>
        <time>2016-02-14T10:44:04Z</time>
      </trkpt>
      <trkpt lat="43.76458" lon="5.20935">
        <ele>305</ele>
        <time>2016-02-14T10:44:11Z</time>
      </trkpt>
      <trkpt lat="43.76453" lon="5.20925">
        <ele>304.7</ele>
        <time>2016-02-14T10:44:19Z</time>
      </trkpt>
      <trkpt lat="43.76446" lon="5.20915">
        <ele>304.6</ele>
        <time>2016-02-14T10:44:24Z</time>
      </trkpt>
      <trkpt lat="43.7644" lon="5.20902">
        <ele>304.4</ele>
        <time>2016-02-14T10:44:30Z</time>
      </trkpt>
      <trkpt lat="43.76435" lon="5.20889">
        <ele>304.2</ele>
        <time>2016-02-14T10:44:36Z</time>
      </trkpt>
      <trkpt lat="43.76431" lon="5.20876">
        <ele>304.1</ele>
        <time>2016-02-14T10:44:41Z</time>
      </trkpt>
      <trkpt lat="43.76425" lon="5.20865">
        <ele>303.8</ele>
        <time>2016-02-14T10:44:46Z</time>
      </trkpt>
      <trkpt lat="43.7642" lon="5.20853">
        <ele>303.6</ele>
        <time>2016-02-14T10:44:53Z</time>
      </trkpt>
      <trkpt lat="43.76414" lon="5.20845">
        <ele>303.4</ele>
        <time>2016-02-14T10:44:58Z</time>
      </trkpt>
      <trkpt lat="43.76406" lon="5.20836">
        <ele>303.1</ele>
        <time>2016-02-14T10:45:05Z</time>
      </trkpt>
      <trkpt lat="43.76399" lon="5.20828">
        <ele>302.8</ele>
        <time>2016-02-14T10:45:10Z</time>
      </trkpt>
      <trkpt lat="43.76393" lon="5.20818">
        <ele>302.3</ele>
        <time>2016-02-14T10:45:15Z</time>
      </trkpt>
      <trkpt lat="43.76388" lon="5.20808">
        <ele>301.6</ele>
        <time>2016-02-14T10:45:21Z</time>
      </trkpt>
      <trkpt lat="43.76381" lon="5.20798">
        <ele>300.8</ele>
        <time>2016-02-14T10:45:31Z</time>
      </trkpt>
      <trkpt lat="43.76374" lon="5.20789">
        <ele>300.2</ele>
        <time>2016-02-14T10:45:36Z</time>
      </trkpt>
      <trkpt lat="43.76367" lon="5.20777">
        <ele>299.6</ele>
        <time>2016-02-14T10:45:41Z</time>
      </trkpt>
      <trkpt lat="43.76363" lon="5.20765">
        <ele>299</ele>
        <time>2016-02-14T10:45:47Z</time>
      </trkpt>
      <trkpt lat="43.76361" lon="5.20751">
        <ele>298.1</ele>
        <time>2016-02-14T10:45:55Z</time>
      </trkpt>
      <trkpt lat="43.76359" lon="5.20738">
        <ele>297.7</ele>
        <time>2016-02-14T10:46:01Z</time>
      </trkpt>
      <trkpt lat="43.76356" lon="5.20724">
        <ele>297.1</ele>
        <time>2016-02-14T10:46:07Z</time>
      </trkpt>
      <trkpt lat="43.76355" lon="5.20711">
        <ele>296.1</ele>
        <time>2016-02-14T10:46:13Z</time>
      </trkpt>
      <trkpt lat="43.76357" lon="5.20699">
        <ele>295.2</ele>
        <time>2016-02-14T10:46:19Z</time>
      </trkpt>
      <trkpt lat="43.7636" lon="5.20686">
        <ele>294</ele>
        <time>2016-02-14T10:46:26Z</time>
      </trkpt>
      <trkpt lat="43.76362" lon="5.20674">
        <ele>292.6</ele>
        <time>2016-02-14T10:46:33Z</time>
      </trkpt>
      <trkpt lat="43.76363" lon="5.20661">
        <ele>291</ele>
        <time>2016-02-14T10:46:40Z</time>
      </trkpt>
      <trkpt lat="43.76362" lon="5.20647">
        <ele>289.5</ele>
        <time>2016-02-14T10:46:47Z</time>
      </trkpt>
      <trkpt lat="43.76358" lon="5.20634">
        <ele>288.3</ele>
        <time>2016-02-14T10:46:53Z</time>
      </trkpt>
      <trkpt lat="43.76353" lon="5.20622">
        <ele>287</ele>
        <time>2016-02-14T10:46:58Z</time>
      </trkpt>
      <trkpt lat="43.76349" lon="5.20607">
        <ele>285</ele>
        <time>2016-02-14T10:47:04Z</time>
      </trkpt>
      <trkpt lat="43.76343" lon="5.20597">
        <ele>283.5</ele>
        <time>2016-02-14T10:47:10Z</time>
      </trkpt>
      <trkpt lat="43.76338" lon="5.20585">
        <ele>282.6</ele>
        <time>2016-02-14T10:47:15Z</time>
      </trkpt>
      <trkpt lat="43.76332" lon="5.20574">
        <ele>281.6</ele>
        <time>2016-02-14T10:47:21Z</time>
      </trkpt>
      <trkpt lat="43.76326" lon="5.20564">
        <ele>280.7</ele>
        <time>2016-02-14T10:47:26Z</time>
      </trkpt>
      <trkpt lat="43.7632" lon="5.20551">
        <ele>279.6</ele>
        <time>2016-02-14T10:47:32Z</time>
      </trkpt>
      <trkpt lat="43.76318" lon="5.20537">
        <ele>278.4</ele>
        <time>2016-02-14T10:47:38Z</time>
      </trkpt>
      <trkpt lat="43.76309" lon="5.20531">
        <ele>277.4</ele>
        <time>2016-02-14T10:47:48Z</time>
      </trkpt>
      <trkpt lat="43.76301" lon="5.20524">
        <ele>277.1</ele>
        <time>2016-02-14T10:47:53Z</time>
      </trkpt>
      <trkpt lat="43.76292" lon="5.2052">
        <ele>276.7</ele>
        <time>2016-02-14T10:48:57Z</time>
      </trkpt>
      <trkpt lat="43.76284" lon="5.20512">
        <ele>276.7</ele>
        <time>2016-02-14T10:49:02Z</time>
      </trkpt>
      <trkpt lat="43.76277" lon="5.20503">
        <ele>276.6</ele>
        <time>2016-02-14T10:49:07Z</time>
      </trkpt>
      <trkpt lat="43.7627" lon="5.20494">
        <ele>276.1</ele>
        <time>2016-02-14T10:49:12Z</time>
      </trkpt>
      <trkpt lat="43.76267" lon="5.20482">
        <ele>275.4</ele>
        <time>2016-02-14T10:49:18Z</time>
      </trkpt>
      <trkpt lat="43.76266" lon="5.20469">
        <ele>274.8</ele>
        <time>2016-02-14T10:49:24Z</time>
      </trkpt>
      <trkpt lat="43.76268" lon="5.20457">
        <ele>274.4</ele>
        <time>2016-02-14T10:49:30Z</time>
      </trkpt>
      <trkpt lat="43.76271" lon="5.20443">
        <ele>274.2</ele>
        <time>2016-02-14T10:49:37Z</time>
      </trkpt>
      <trkpt lat="43.76276" lon="5.20431">
        <ele>273.9</ele>
        <time>2016-02-14T10:49:45Z</time>
      </trkpt>
      <trkpt lat="43.76281" lon="5.20421">
        <ele>273.6</ele>
        <time>2016-02-14T10:49:51Z</time>
      </trkpt>
      <trkpt lat="43.76286" lon="5.20409">
        <ele>272.9</ele>
        <time>2016-02-14T10:49:58Z</time>
      </trkpt>
      <trkpt lat="43.76292" lon="5.20398">
        <ele>272</ele>
        <time>2016-02-14T10:50:08Z</time>
      </trkpt>
      <trkpt lat="43.76298" lon="5.20388">
        <ele>271.5</ele>
        <time>2016-02-14T10:50:15Z</time>
      </trkpt>
      <trkpt lat="43.76297" lon="5.20374">
        <ele>270.8</ele>
        <time>2016-02-14T10:50:23Z</time>
      </trkpt>
      <trkpt lat="43.76293" lon="5.20362">
        <ele>269.7</ele>
        <time>2016-02-14T10:50:33Z</time>
      </trkpt>
      <trkpt lat="43.76289" lon="5.20348">
        <ele>268.7</ele>
        <time>2016-02-14T10:50:40Z</time>
      </trkpt>
      <trkpt lat="43.76285" lon="5.20336">
        <ele>267.4</ele>
        <time>2016-02-14T10:50:47Z</time>
      </trkpt>
      <trkpt lat="43.76281" lon="5.20323">
        <ele>266.4</ele>
        <time>2016-02-14T10:50:54Z</time>
      </trkpt>
      <trkpt lat="43.76276" lon="5.20308">
        <ele>265.4</ele>
        <time>2016-02-14T10:51:01Z</time>
      </trkpt>
      <trkpt lat="43.76275" lon="5.20293">
        <ele>264.1</ele>
        <time>2016-02-14T10:51:09Z</time>
      </trkpt>
      <trkpt lat="43.76272" lon="5.20279">
        <ele>262.9</ele>
        <time>2016-02-14T10:51:15Z</time>
      </trkpt>
      <trkpt lat="43.76275" lon="5.20267">
        <ele>260.9</ele>
        <time>2016-02-14T10:51:27Z</time>
      </trkpt>
      <trkpt lat="43.76279" lon="5.20254">
        <ele>258.8</ele>
        <time>2016-02-14T10:51:36Z</time>
      </trkpt>
      <trkpt lat="43.76276" lon="5.2024">
        <ele>256.8</ele>
        <time>2016-02-14T10:51:43Z</time>
      </trkpt>
      <trkpt lat="43.76272" lon="5.20227">
        <ele>255.6</ele>
        <time>2016-02-14T10:51:48Z</time>
      </trkpt>
      <trkpt lat="43.76266" lon="5.20218">
        <ele>254.7</ele>
        <time>2016-02-14T10:51:53Z</time>
      </trkpt>
      <trkpt lat="43.76257" lon="5.2021">
        <ele>253.7</ele>
        <time>2016-02-14T10:51:58Z</time>
      </trkpt>
      <trkpt lat="43.76247" lon="5.2021">
        <ele>252.6</ele>
        <time>2016-02-14T10:52:03Z</time>
      </trkpt>
      <trkpt lat="43.76236" lon="5.20211">
        <ele>251.5</ele>
        <time>2016-02-14T10:52:08Z</time>
      </trkpt>
      <trkpt lat="43.76229" lon="5.2022">
        <ele>250.7</ele>
        <time>2016-02-14T10:52:12Z</time>
      </trkpt>
      <trkpt lat="43.7622" lon="5.20224">
        <ele>248.9</ele>
        <time>2016-02-14T10:52:22Z</time>
      </trkpt>
      <trkpt lat="43.76211" lon="5.20227">
        <ele>247</ele>
        <time>2016-02-14T10:52:34Z</time>
      </trkpt>
      <trkpt lat="43.76202" lon="5.20236">
        <ele>245.8</ele>
        <time>2016-02-14T10:52:41Z</time>
      </trkpt>
      <trkpt lat="43.76195" lon="5.20246">
        <ele>245</ele>
        <time>2016-02-14T10:52:46Z</time>
      </trkpt>
      <trkpt lat="43.76192" lon="5.2026">
        <ele>244.4</ele>
        <time>2016-02-14T10:52:49Z</time>
      </trkpt>
      <trkpt lat="43.76187" lon="5.20271">
        <ele>243.3</ele>
        <time>2016-02-14T10:52:54Z</time>
      </trkpt>
      <trkpt lat="43.7618" lon="5.20279">
        <ele>241.9</ele>
        <time>2016-02-14T10:53:00Z</time>
      </trkpt>
      <trkpt lat="43.76173" lon="5.20288">
        <ele>241</ele>
        <time>2016-02-14T10:53:05Z</time>
      </trkpt>
      <trkpt lat="43.76165" lon="5.20296">
        <ele>239.8</ele>
        <time>2016-02-14T10:53:12Z</time>
      </trkpt>
      <trkpt lat="43.76155" lon="5.20298">
        <ele>238.9</ele>
        <time>2016-02-14T10:53:17Z</time>
      </trkpt>
      <trkpt lat="43.76145" lon="5.20301">
        <ele>238.2</ele>
        <time>2016-02-14T10:53:23Z</time>
      </trkpt>
      <trkpt lat="43.76136" lon="5.20306">
        <ele>236.8</ele>
        <time>2016-02-14T10:53:29Z</time>
      </trkpt>
      <trkpt lat="43.76127" lon="5.20302">
        <ele>236.5</ele>
        <time>2016-02-14T10:53:36Z</time>
      </trkpt>
      <trkpt lat="43.76117" lon="5.20301">
        <ele>236.2</ele>
        <time>2016-02-14T10:53:44Z</time>
      </trkpt>
      <trkpt lat="43.76108" lon="5.20296">
        <ele>235.2</ele>
        <time>2016-02-14T10:53:52Z</time>
      </trkpt>
      <trkpt lat="43.76099" lon="5.20289">
        <ele>233.2</ele>
        <time>2016-02-14T10:53:59Z</time>
      </trkpt>
      <trkpt lat="43.76095" lon="5.20276">
        <ele>230.7</ele>
        <time>2016-02-14T10:54:08Z</time>
      </trkpt>
      <trkpt lat="43.76089" lon="5.20266">
        <ele>228.9</ele>
        <time>2016-02-14T10:54:15Z</time>
      </trkpt>
      <trkpt lat="43.76083" lon="5.20254">
        <ele>227.3</ele>
        <time>2016-02-14T10:54:22Z</time>
      </trkpt>
      <trkpt lat="43.7608" lon="5.20242">
        <ele>225.5</ele>
        <time>2016-02-14T10:54:30Z</time>
      </trkpt>
      <trkpt lat="43.76076" lon="5.20229">
        <ele>223.9</ele>
        <time>2016-02-14T10:54:38Z</time>
      </trkpt>
      <trkpt lat="43.76073" lon="5.20216">
        <ele>222.4</ele>
        <time>2016-02-14T10:54:45Z</time>
      </trkpt>
      <trkpt lat="43.76068" lon="5.20204">
        <ele>221.1</ele>
        <time>2016-02-14T10:54:52Z</time>
      </trkpt>
      <trkpt lat="43.76065" lon="5.20191">
        <ele>220.1</ele>
        <time>2016-02-14T10:54:59Z</time>
      </trkpt>
      <trkpt lat="43.76062" lon="5.20179">
        <ele>219.3</ele>
        <time>2016-02-14T10:55:08Z</time>
      </trkpt>
      <trkpt lat="43.76059" lon="5.20166">
        <ele>218.7</ele>
        <time>2016-02-14T10:55:15Z</time>
      </trkpt>
      <trkpt lat="43.76056" lon="5.20154">
        <ele>218.1</ele>
        <time>2016-02-14T10:55:20Z</time>
      </trkpt>
      <trkpt lat="43.76052" lon="5.20141">
        <ele>217.6</ele>
        <time>2016-02-14T10:55:26Z</time>
      </trkpt>
      <trkpt lat="43.76044" lon="5.20132">
        <ele>216.8</ele>
        <time>2016-02-14T10:55:35Z</time>
      </trkpt>
      <trkpt lat="43.76035" lon="5.20126">
        <ele>216.1</ele>
        <time>2016-02-14T10:55:43Z</time>
      </trkpt>
      <trkpt lat="43.76026" lon="5.20131">
        <ele>214.5</ele>
        <time>2016-02-14T10:55:53Z</time>
      </trkpt>
      <trkpt lat="43.76025" lon="5.20144">
        <ele>210.6</ele>
        <time>2016-02-14T10:56:34Z</time>
      </trkpt>
      <trkpt lat="43.76028" lon="5.20157">
        <ele>210.4</ele>
        <time>2016-02-14T10:56:41Z</time>
      </trkpt>
      <trkpt lat="43.76029" lon="5.2017">
        <ele>210.3</ele>
        <time>2016-02-14T10:56:50Z</time>
      </trkpt>
      <trkpt lat="43.76031" lon="5.20184">
        <ele>210.4</ele>
        <time>2016-02-14T10:56:58Z</time>
      </trkpt>
      <trkpt lat="43.76032" lon="5.20197">
        <ele>210.5</ele>
        <time>2016-02-14T10:57:06Z</time>
      </trkpt>
      <trkpt lat="43.76033" lon="5.2021">
        <ele>210.7</ele>
        <time>2016-02-14T10:57:14Z</time>
      </trkpt>
      <trkpt lat="43.76035" lon="5.20223">
        <ele>211.3</ele>
        <time>2016-02-14T10:57:24Z</time>
      </trkpt>
      <trkpt lat="43.76042" lon="5.20232">
        <ele>212</ele>
        <time>2016-02-14T10:57:34Z</time>
      </trkpt>
      <trkpt lat="43.76049" lon="5.20241">
        <ele>212.3</ele>
        <time>2016-02-14T10:57:41Z</time>
      </trkpt>
      <trkpt lat="43.76053" lon="5.20253">
        <ele>212.5</ele>
        <time>2016-02-14T10:57:48Z</time>
      </trkpt>
      <trkpt lat="43.76054" lon="5.20266">
        <ele>212.6</ele>
        <time>2016-02-14T10:57:55Z</time>
      </trkpt>
      <trkpt lat="43.76056" lon="5.20279">
        <ele>212.6</ele>
        <time>2016-02-14T10:58:03Z</time>
      </trkpt>
      <trkpt lat="43.76057" lon="5.20292">
        <ele>212.7</ele>
        <time>2016-02-14T10:58:12Z</time>
      </trkpt>
      <trkpt lat="43.76058" lon="5.20306">
        <ele>212.8</ele>
        <time>2016-02-14T10:58:19Z</time>
      </trkpt>
      <trkpt lat="43.76054" lon="5.20319">
        <ele>212.8</ele>
        <time>2016-02-14T10:58:29Z</time>
      </trkpt>
      <trkpt lat="43.76046" lon="5.20329">
        <ele>212.9</ele>
        <time>2016-02-14T10:58:37Z</time>
      </trkpt>
      <trkpt lat="43.76037" lon="5.20336">
        <ele>212.9</ele>
        <time>2016-02-14T10:58:47Z</time>
      </trkpt>
      <trkpt lat="43.76029" lon="5.2034">
        <ele>212.8</ele>
        <time>2016-02-14T10:58:54Z</time>
      </trkpt>
      <trkpt lat="43.76022" lon="5.2035">
        <ele>212.8</ele>
        <time>2016-02-14T10:59:02Z</time>
      </trkpt>
      <trkpt lat="43.76017" lon="5.20361">
        <ele>212.4</ele>
        <time>2016-02-14T10:59:12Z</time>
      </trkpt>
      <trkpt lat="43.76013" lon="5.20373">
        <ele>211.9</ele>
        <time>2016-02-14T10:59:24Z</time>
      </trkpt>
      <trkpt lat="43.76009" lon="5.20384">
        <ele>211.6</ele>
        <time>2016-02-14T10:59:30Z</time>
      </trkpt>
      <trkpt lat="43.76003" lon="5.20399">
        <ele>211.2</ele>
        <time>2016-02-14T10:59:36Z</time>
      </trkpt>
      <trkpt lat="43.75998" lon="5.20409">
        <ele>210.8</ele>
        <time>2016-02-14T10:59:41Z</time>
      </trkpt>
      <trkpt lat="43.75992" lon="5.2042">
        <ele>210.2</ele>
        <time>2016-02-14T10:59:48Z</time>
      </trkpt>
      <trkpt lat="43.75988" lon="5.20432">
        <ele>209.2</ele>
        <time>2016-02-14T10:59:58Z</time>
      </trkpt>
      <trkpt lat="43.75985" lon="5.20445">
        <ele>208.5</ele>
        <time>2016-02-14T11:00:07Z</time>
      </trkpt>
      <trkpt lat="43.75983" lon="5.20457">
        <ele>207.6</ele>
        <time>2016-02-14T11:00:16Z</time>
      </trkpt>
      <trkpt lat="43.75981" lon="5.2047">
        <ele>206.9</ele>
        <time>2016-02-14T11:00:23Z</time>
      </trkpt>
      <trkpt lat="43.75978" lon="5.20482">
        <ele>206</ele>
        <time>2016-02-14T11:00:31Z</time>
      </trkpt>
      <trkpt lat="43.75977" lon="5.20494">
        <ele>205</ele>
        <time>2016-02-14T11:00:39Z</time>
      </trkpt>
      <trkpt lat="43.75977" lon="5.20507">
        <ele>203.9</ele>
        <time>2016-02-14T11:00:48Z</time>
      </trkpt>
      <trkpt lat="43.7598" lon="5.20519">
        <ele>202.9</ele>
        <time>2016-02-14T11:00:55Z</time>
      </trkpt>
      <trkpt lat="43.75983" lon="5.20532">
        <ele>202</ele>
        <time>2016-02-14T11:01:02Z</time>
      </trkpt>
      <trkpt lat="43.75989" lon="5.20543">
        <ele>200.9</ele>
        <time>2016-02-14T11:01:11Z</time>
      </trkpt>
      <trkpt lat="43.75998" lon="5.2055">
        <ele>200</ele>
        <time>2016-02-14T11:01:20Z</time>
      </trkpt>
      <trkpt lat="43.76005" lon="5.20558">
        <ele>199.1</ele>
        <time>2016-02-14T11:01:30Z</time>
      </trkpt>
      <trkpt lat="43.76014" lon="5.2056">
        <ele>198.4</ele>
        <time>2016-02-14T11:01:38Z</time>
      </trkpt>
      <trkpt lat="43.76023" lon="5.20566">
        <ele>197.7</ele>
        <time>2016-02-14T11:01:45Z</time>
      </trkpt>
      <trkpt lat="43.76029" lon="5.20576">
        <ele>196.9</ele>
        <time>2016-02-14T11:01:52Z</time>
      </trkpt>
      <trkpt lat="43.76038" lon="5.20581">
        <ele>196.5</ele>
        <time>2016-02-14T11:01:57Z</time>
      </trkpt>
      <trkpt lat="43.76046" lon="5.20589">
        <ele>195.8</ele>
        <time>2016-02-14T11:02:05Z</time>
      </trkpt>
      <trkpt lat="43.76055" lon="5.20594">
        <ele>195.4</ele>
        <time>2016-02-14T11:02:11Z</time>
      </trkpt>
      <trkpt lat="43.76065" lon="5.20593">
        <ele>194.9</ele>
        <time>2016-02-14T11:02:19Z</time>
      </trkpt>
      <trkpt lat="43.76075" lon="5.20593">
        <ele>194.4</ele>
        <time>2016-02-14T11:02:28Z</time>
      </trkpt>
      <trkpt lat="43.76085" lon="5.20601">
        <ele>193.7</ele>
        <time>2016-02-14T11:02:36Z</time>
      </trkpt>
      <trkpt lat="43.76095" lon="5.20605">
        <ele>193.3</ele>
        <time>2016-02-14T11:02:40Z</time>
      </trkpt>
      <trkpt lat="43.76097" lon="5.20618">
        <ele>192.7</ele>
        <time>2016-02-14T11:02:48Z</time>
      </trkpt>
      <trkpt lat="43.76096" lon="5.20632">
        <ele>192.2</ele>
        <time>2016-02-14T11:02:55Z</time>
      </trkpt>
      <trkpt lat="43.76095" lon="5.20647">
        <ele>191.7</ele>
        <time>2016-02-14T11:03:02Z</time>
      </trkpt>
      <trkpt lat="43.76095" lon="5.2066">
        <ele>191.3</ele>
        <time>2016-02-14T11:03:08Z</time>
      </trkpt>
      <trkpt lat="43.76104" lon="5.20662">
        <ele>190.8</ele>
        <time>2016-02-14T11:03:19Z</time>
      </trkpt>
      <trkpt lat="43.76113" lon="5.20656">
        <ele>190.8</ele>
        <time>2016-02-14T11:03:35Z</time>
      </trkpt>
      <trkpt lat="43.76122" lon="5.20651">
        <ele>192</ele>
        <time>2016-02-14T11:03:46Z</time>
      </trkpt>
      <trkpt lat="43.76112" lon="5.20654">
        <ele>193.6</ele>
        <time>2016-02-14T11:09:17Z</time>
      </trkpt>
      <trkpt lat="43.76103" lon="5.20659">
        <ele>192.6</ele>
        <time>2016-02-14T11:09:38Z</time>
      </trkpt>
      <trkpt lat="43.761" lon="5.20672">
        <ele>191.7</ele>
        <time>2016-02-14T11:09:45Z</time>
      </trkpt>
      <trkpt lat="43.76096" lon="5.20685">
        <ele>191.2</ele>
        <time>2016-02-14T11:09:51Z</time>
      </trkpt>
      <trkpt lat="43.76096" lon="5.20697">
        <ele>190.5</ele>
        <time>2016-02-14T11:09:59Z</time>
      </trkpt>
      <trkpt lat="43.76095" lon="5.2071">
        <ele>190.1</ele>
        <time>2016-02-14T11:10:34Z</time>
      </trkpt>
      <trkpt lat="43.76095" lon="5.2071">
        <ele>191.5</ele>
        <time>2016-02-14T11:11:36Z</time>
      </trkpt>
      <trkpt lat="43.76096" lon="5.20665">
        <ele>209</ele>
        <time>2016-02-14T13:16:21Z</time>
      </trkpt>
      <trkpt lat="43.76089" lon="5.20674">
        <ele>208.8</ele>
        <time>2016-02-14T13:16:31Z</time>
      </trkpt>
      <trkpt lat="43.76083" lon="5.20684">
        <ele>208.7</ele>
        <time>2016-02-14T13:16:39Z</time>
      </trkpt>
      <trkpt lat="43.76076" lon="5.20695">
        <ele>209</ele>
        <time>2016-02-14T13:16:48Z</time>
      </trkpt>
      <trkpt lat="43.76068" lon="5.20706">
        <ele>209.1</ele>
        <time>2016-02-14T13:16:53Z</time>
      </trkpt>
      <trkpt lat="43.76059" lon="5.20706">
        <ele>209.2</ele>
        <time>2016-02-14T13:16:59Z</time>
      </trkpt>
      <trkpt lat="43.7605" lon="5.20703">
        <ele>209.6</ele>
        <time>2016-02-14T13:17:06Z</time>
      </trkpt>
      <trkpt lat="43.76041" lon="5.20697">
        <ele>210.3</ele>
        <time>2016-02-14T13:17:15Z</time>
      </trkpt>
      <trkpt lat="43.76031" lon="5.20695">
        <ele>211</ele>
        <time>2016-02-14T13:17:21Z</time>
      </trkpt>
      <trkpt lat="43.76022" lon="5.20698">
        <ele>211.8</ele>
        <time>2016-02-14T13:17:28Z</time>
      </trkpt>
      <trkpt lat="43.76013" lon="5.20694">
        <ele>212.7</ele>
        <time>2016-02-14T13:17:36Z</time>
      </trkpt>
      <trkpt lat="43.76005" lon="5.20701">
        <ele>213.9</ele>
        <time>2016-02-14T13:17:42Z</time>
      </trkpt>
      <trkpt lat="43.75999" lon="5.20712">
        <ele>215.1</ele>
        <time>2016-02-14T13:17:50Z</time>
      </trkpt>
      <trkpt lat="43.75992" lon="5.20722">
        <ele>216.2</ele>
        <time>2016-02-14T13:17:57Z</time>
      </trkpt>
      <trkpt lat="43.75985" lon="5.20732">
        <ele>217.1</ele>
        <time>2016-02-14T13:18:02Z</time>
      </trkpt>
      <trkpt lat="43.7598" lon="5.20746">
        <ele>218</ele>
        <time>2016-02-14T13:18:08Z</time>
      </trkpt>
      <trkpt lat="43.75975" lon="5.20758">
        <ele>218.4</ele>
        <time>2016-02-14T13:18:13Z</time>
      </trkpt>
      <trkpt lat="43.7597" lon="5.20769">
        <ele>219</ele>
        <time>2016-02-14T13:18:20Z</time>
      </trkpt>
      <trkpt lat="43.75964" lon="5.20781">
        <ele>219.8</ele>
        <time>2016-02-14T13:18:28Z</time>
      </trkpt>
      <trkpt lat="43.75963" lon="5.20794">
        <ele>220.2</ele>
        <time>2016-02-14T13:18:33Z</time>
      </trkpt>
      <trkpt lat="43.75957" lon="5.20805">
        <ele>220.6</ele>
        <time>2016-02-14T13:18:40Z</time>
      </trkpt>
      <trkpt lat="43.7595" lon="5.20816">
        <ele>221</ele>
        <time>2016-02-14T13:18:50Z</time>
      </trkpt>
      <trkpt lat="43.75943" lon="5.20825">
        <ele>221.2</ele>
        <time>2016-02-14T13:18:56Z</time>
      </trkpt>
      <trkpt lat="43.75936" lon="5.20836">
        <ele>221.5</ele>
        <time>2016-02-14T13:19:01Z</time>
      </trkpt>
      <trkpt lat="43.75934" lon="5.20849">
        <ele>222</ele>
        <time>2016-02-14T13:19:10Z</time>
      </trkpt>
      <trkpt lat="43.75929" lon="5.2086">
        <ele>222.7</ele>
        <time>2016-02-14T13:19:16Z</time>
      </trkpt>
      <trkpt lat="43.75929" lon="5.20874">
        <ele>223</ele>
        <time>2016-02-14T13:19:23Z</time>
      </trkpt>
      <trkpt lat="43.75924" lon="5.20887">
        <ele>223.3</ele>
        <time>2016-02-14T13:19:30Z</time>
      </trkpt>
      <trkpt lat="43.7592" lon="5.20899">
        <ele>223.7</ele>
        <time>2016-02-14T13:19:36Z</time>
      </trkpt>
      <trkpt lat="43.75919" lon="5.20913">
        <ele>224</ele>
        <time>2016-02-14T13:19:44Z</time>
      </trkpt>
      <trkpt lat="43.75919" lon="5.20927">
        <ele>224.1</ele>
        <time>2016-02-14T13:19:50Z</time>
      </trkpt>
      <trkpt lat="43.75915" lon="5.20939">
        <ele>224.3</ele>
        <time>2016-02-14T13:19:59Z</time>
      </trkpt>
      <trkpt lat="43.75912" lon="5.20952">
        <ele>224.4</ele>
        <time>2016-02-14T13:20:04Z</time>
      </trkpt>
      <trkpt lat="43.75909" lon="5.20966">
        <ele>224.8</ele>
        <time>2016-02-14T13:20:11Z</time>
      </trkpt>
      <trkpt lat="43.75908" lon="5.20979">
        <ele>225.9</ele>
        <time>2016-02-14T13:20:20Z</time>
      </trkpt>
      <trkpt lat="43.7591" lon="5.20993">
        <ele>226.8</ele>
        <time>2016-02-14T13:20:27Z</time>
      </trkpt>
      <trkpt lat="43.75912" lon="5.21007">
        <ele>227.3</ele>
        <time>2016-02-14T13:20:33Z</time>
      </trkpt>
      <trkpt lat="43.75915" lon="5.21019">
        <ele>227.6</ele>
        <time>2016-02-14T13:20:38Z</time>
      </trkpt>
      <trkpt lat="43.75918" lon="5.21032">
        <ele>228.4</ele>
        <time>2016-02-14T13:20:45Z</time>
      </trkpt>
      <trkpt lat="43.7592" lon="5.21045">
        <ele>229.2</ele>
        <time>2016-02-14T13:20:52Z</time>
      </trkpt>
      <trkpt lat="43.75921" lon="5.21057">
        <ele>230.2</ele>
        <time>2016-02-14T13:20:59Z</time>
      </trkpt>
      <trkpt lat="43.75922" lon="5.21071">
        <ele>231</ele>
        <time>2016-02-14T13:21:05Z</time>
      </trkpt>
      <trkpt lat="43.75925" lon="5.21084">
        <ele>231.8</ele>
        <time>2016-02-14T13:21:12Z</time>
      </trkpt>
      <trkpt lat="43.75929" lon="5.21097">
        <ele>232.7</ele>
        <time>2016-02-14T13:21:21Z</time>
      </trkpt>
      <trkpt lat="43.75933" lon="5.21109">
        <ele>233.6</ele>
        <time>2016-02-14T13:21:29Z</time>
      </trkpt>
      <trkpt lat="43.75932" lon="5.21122">
        <ele>234.2</ele>
        <time>2016-02-14T13:21:36Z</time>
      </trkpt>
      <trkpt lat="43.75933" lon="5.21135">
        <ele>234.8</ele>
        <time>2016-02-14T13:21:44Z</time>
      </trkpt>
      <trkpt lat="43.75933" lon="5.21148">
        <ele>235.7</ele>
        <time>2016-02-14T13:21:51Z</time>
      </trkpt>
      <trkpt lat="43.75935" lon="5.21162">
        <ele>236.5</ele>
        <time>2016-02-14T13:21:58Z</time>
      </trkpt>
      <trkpt lat="43.75935" lon="5.21175">
        <ele>237.2</ele>
        <time>2016-02-14T13:22:07Z</time>
      </trkpt>
      <trkpt lat="43.75937" lon="5.21188">
        <ele>237.5</ele>
        <time>2016-02-14T13:22:13Z</time>
      </trkpt>
      <trkpt lat="43.7594" lon="5.212">
        <ele>237.7</ele>
        <time>2016-02-14T13:22:19Z</time>
      </trkpt>
      <trkpt lat="43.75943" lon="5.21214">
        <ele>238</ele>
        <time>2016-02-14T13:22:26Z</time>
      </trkpt>
      <trkpt lat="43.75944" lon="5.21227">
        <ele>238.2</ele>
        <time>2016-02-14T13:22:32Z</time>
      </trkpt>
      <trkpt lat="43.75943" lon="5.2124">
        <ele>238.6</ele>
        <time>2016-02-14T13:22:40Z</time>
      </trkpt>
      <trkpt lat="43.75945" lon="5.21253">
        <ele>238.8</ele>
        <time>2016-02-14T13:22:47Z</time>
      </trkpt>
      <trkpt lat="43.75946" lon="5.21267">
        <ele>238.7</ele>
        <time>2016-02-14T13:22:53Z</time>
      </trkpt>
      <trkpt lat="43.75948" lon="5.21281">
        <ele>238.6</ele>
        <time>2016-02-14T13:22:59Z</time>
      </trkpt>
      <trkpt lat="43.75952" lon="5.21294">
        <ele>238.6</ele>
        <time>2016-02-14T13:23:05Z</time>
      </trkpt>
      <trkpt lat="43.75958" lon="5.21303">
        <ele>238.5</ele>
        <time>2016-02-14T13:23:10Z</time>
      </trkpt>
      <trkpt lat="43.7596" lon="5.21317">
        <ele>238.4</ele>
        <time>2016-02-14T13:23:17Z</time>
      </trkpt>
      <trkpt lat="43.7596" lon="5.2133">
        <ele>238.4</ele>
        <time>2016-02-14T13:23:24Z</time>
      </trkpt>
      <trkpt lat="43.75963" lon="5.21344">
        <ele>238.3</ele>
        <time>2016-02-14T13:23:31Z</time>
      </trkpt>
      <trkpt lat="43.75963" lon="5.21359">
        <ele>238</ele>
        <time>2016-02-14T13:23:38Z</time>
      </trkpt>
      <trkpt lat="43.75968" lon="5.21371">
        <ele>236.6</ele>
        <time>2016-02-14T13:23:43Z</time>
      </trkpt>
      <trkpt lat="43.75975" lon="5.21383">
        <ele>236.2</ele>
        <time>2016-02-14T13:23:50Z</time>
      </trkpt>
      <trkpt lat="43.75978" lon="5.21395">
        <ele>235.9</ele>
        <time>2016-02-14T13:23:55Z</time>
      </trkpt>
      <trkpt lat="43.75976" lon="5.21409">
        <ele>235.4</ele>
        <time>2016-02-14T13:24:00Z</time>
      </trkpt>
      <trkpt lat="43.7597" lon="5.2142">
        <ele>235.2</ele>
        <time>2016-02-14T13:24:06Z</time>
      </trkpt>
      <trkpt lat="43.75965" lon="5.21435">
        <ele>235</ele>
        <time>2016-02-14T13:24:11Z</time>
      </trkpt>
      <trkpt lat="43.75962" lon="5.21449">
        <ele>234.8</ele>
        <time>2016-02-14T13:24:17Z</time>
      </trkpt>
      <trkpt lat="43.75957" lon="5.2146">
        <ele>234.6</ele>
        <time>2016-02-14T13:24:22Z</time>
      </trkpt>
      <trkpt lat="43.75951" lon="5.21472">
        <ele>233.9</ele>
        <time>2016-02-14T13:24:29Z</time>
      </trkpt>
      <trkpt lat="43.75946" lon="5.21483">
        <ele>233.3</ele>
        <time>2016-02-14T13:24:36Z</time>
      </trkpt>
      <trkpt lat="43.75945" lon="5.21497">
        <ele>232.4</ele>
        <time>2016-02-14T13:24:43Z</time>
      </trkpt>
      <trkpt lat="43.75941" lon="5.2151">
        <ele>231.7</ele>
        <time>2016-02-14T13:24:49Z</time>
      </trkpt>
      <trkpt lat="43.75946" lon="5.21521">
        <ele>231</ele>
        <time>2016-02-14T13:24:59Z</time>
      </trkpt>
      <trkpt lat="43.75943" lon="5.21536">
        <ele>230.6</ele>
        <time>2016-02-14T13:25:06Z</time>
      </trkpt>
      <trkpt lat="43.75938" lon="5.21547">
        <ele>230.5</ele>
        <time>2016-02-14T13:25:11Z</time>
      </trkpt>
      <trkpt lat="43.75934" lon="5.21559">
        <ele>230.2</ele>
        <time>2016-02-14T13:25:20Z</time>
      </trkpt>
      <trkpt lat="43.75928" lon="5.2157">
        <ele>230</ele>
        <time>2016-02-14T13:25:26Z</time>
      </trkpt>
      <trkpt lat="43.75925" lon="5.21585">
        <ele>229.5</ele>
        <time>2016-02-14T13:25:37Z</time>
      </trkpt>
      <trkpt lat="43.75925" lon="5.21598">
        <ele>229.2</ele>
        <time>2016-02-14T13:25:43Z</time>
      </trkpt>
      <trkpt lat="43.75924" lon="5.21611">
        <ele>228.7</ele>
        <time>2016-02-14T13:25:51Z</time>
      </trkpt>
      <trkpt lat="43.75921" lon="5.21623">
        <ele>228.3</ele>
        <time>2016-02-14T13:25:56Z</time>
      </trkpt>
      <trkpt lat="43.75923" lon="5.21637">
        <ele>227.9</ele>
        <time>2016-02-14T13:26:00Z</time>
      </trkpt>
      <trkpt lat="43.75924" lon="5.21652">
        <ele>227.1</ele>
        <time>2016-02-14T13:26:04Z</time>
      </trkpt>
      <trkpt lat="43.75922" lon="5.21667">
        <ele>226.2</ele>
        <time>2016-02-14T13:26:10Z</time>
      </trkpt>
      <trkpt lat="43.7592" lon="5.21681">
        <ele>225.6</ele>
        <time>2016-02-14T13:26:15Z</time>
      </trkpt>
      <trkpt lat="43.75915" lon="5.21692">
        <ele>225.1</ele>
        <time>2016-02-14T13:26:21Z</time>
      </trkpt>
      <trkpt lat="43.75912" lon="5.21705">
        <ele>224.2</ele>
        <time>2016-02-14T13:26:32Z</time>
      </trkpt>
      <trkpt lat="43.75913" lon="5.21717">
        <ele>223.4</ele>
        <time>2016-02-14T13:26:39Z</time>
      </trkpt>
      <trkpt lat="43.75916" lon="5.2173">
        <ele>222.8</ele>
        <time>2016-02-14T13:26:43Z</time>
      </trkpt>
      <trkpt lat="43.75916" lon="5.21744">
        <ele>221.1</ele>
        <time>2016-02-14T13:26:54Z</time>
      </trkpt>
      <trkpt lat="43.75916" lon="5.21757">
        <ele>220.2</ele>
        <time>2016-02-14T13:27:00Z</time>
      </trkpt>
      <trkpt lat="43.75915" lon="5.2177">
        <ele>218.8</ele>
        <time>2016-02-14T13:27:08Z</time>
      </trkpt>
      <trkpt lat="43.75919" lon="5.21783">
        <ele>217.7</ele>
        <time>2016-02-14T13:27:14Z</time>
      </trkpt>
      <trkpt lat="43.75919" lon="5.21795">
        <ele>216</ele>
        <time>2016-02-14T13:27:22Z</time>
      </trkpt>
      <trkpt lat="43.75921" lon="5.21808">
        <ele>213</ele>
        <time>2016-02-14T13:27:34Z</time>
      </trkpt>
      <trkpt lat="43.75921" lon="5.21821">
        <ele>210.6</ele>
        <time>2016-02-14T13:27:45Z</time>
      </trkpt>
      <trkpt lat="43.75925" lon="5.21834">
        <ele>209.8</ele>
        <time>2016-02-14T13:27:49Z</time>
      </trkpt>
      <trkpt lat="43.75933" lon="5.21841">
        <ele>208.2</ele>
        <time>2016-02-14T13:27:56Z</time>
      </trkpt>
      <trkpt lat="43.7594" lon="5.21852">
        <ele>206.1</ele>
        <time>2016-02-14T13:28:05Z</time>
      </trkpt>
      <trkpt lat="43.75949" lon="5.21858">
        <ele>204.9</ele>
        <time>2016-02-14T13:28:10Z</time>
      </trkpt>
      <trkpt lat="43.75956" lon="5.21866">
        <ele>203.2</ele>
        <time>2016-02-14T13:28:17Z</time>
      </trkpt>
      <trkpt lat="43.75961" lon="5.21878">
        <ele>201.4</ele>
        <time>2016-02-14T13:28:25Z</time>
      </trkpt>
      <trkpt lat="43.7597" lon="5.21881">
        <ele>200.2</ele>
        <time>2016-02-14T13:28:31Z</time>
      </trkpt>
      <trkpt lat="43.75978" lon="5.21889">
        <ele>198.5</ele>
        <time>2016-02-14T13:28:39Z</time>
      </trkpt>
      <trkpt lat="43.75986" lon="5.21895">
        <ele>197.8</ele>
        <time>2016-02-14T13:28:43Z</time>
      </trkpt>
      <trkpt lat="43.75996" lon="5.21896">
        <ele>196.6</ele>
        <time>2016-02-14T13:28:51Z</time>
      </trkpt>
      <trkpt lat="43.76007" lon="5.21894">
        <ele>195.7</ele>
        <time>2016-02-14T13:28:56Z</time>
      </trkpt>
      <trkpt lat="43.76017" lon="5.2189">
        <ele>194.7</ele>
        <time>2016-02-14T13:29:02Z</time>
      </trkpt>
      <trkpt lat="43.76027" lon="5.21886">
        <ele>193.9</ele>
        <time>2016-02-14T13:29:08Z</time>
      </trkpt>
      <trkpt lat="43.76036" lon="5.21883">
        <ele>192.9</ele>
        <time>2016-02-14T13:29:14Z</time>
      </trkpt>
      <trkpt lat="43.76046" lon="5.2188">
        <ele>191.6</ele>
        <time>2016-02-14T13:29:20Z</time>
      </trkpt>
      <trkpt lat="43.76053" lon="5.21889">
        <ele>190</ele>
        <time>2016-02-14T13:29:28Z</time>
      </trkpt>
      <trkpt lat="43.7605" lon="5.21902">
        <ele>189</ele>
        <time>2016-02-14T13:29:34Z</time>
      </trkpt>
      <trkpt lat="43.76059" lon="5.21894">
        <ele>187.7</ele>
        <time>2016-02-14T13:29:46Z</time>
      </trkpt>
      <trkpt lat="43.76067" lon="5.21887">
        <ele>187.4</ele>
        <time>2016-02-14T13:29:49Z</time>
      </trkpt>
      <trkpt lat="43.76074" lon="5.21879">
        <ele>187.1</ele>
        <time>2016-02-14T13:29:52Z</time>
      </trkpt>
      <trkpt lat="43.76082" lon="5.21871">
        <ele>186.8</ele>
        <time>2016-02-14T13:29:59Z</time>
      </trkpt>
      <trkpt lat="43.76088" lon="5.21861">
        <ele>186.8</ele>
        <time>2016-02-14T13:30:05Z</time>
      </trkpt>
      <trkpt lat="43.76096" lon="5.21854">
        <ele>187.1</ele>
        <time>2016-02-14T13:30:11Z</time>
      </trkpt>
      <trkpt lat="43.76105" lon="5.21846">
        <ele>187.7</ele>
        <time>2016-02-14T13:30:17Z</time>
      </trkpt>
      <trkpt lat="43.76113" lon="5.21839">
        <ele>188</ele>
        <time>2016-02-14T13:30:21Z</time>
      </trkpt>
      <trkpt lat="43.76119" lon="5.2183">
        <ele>188.6</ele>
        <time>2016-02-14T13:30:26Z</time>
      </trkpt>
      <trkpt lat="43.76117" lon="5.21816">
        <ele>189.5</ele>
        <time>2016-02-14T13:30:33Z</time>
      </trkpt>
      <trkpt lat="43.76119" lon="5.21802">
        <ele>190.1</ele>
        <time>2016-02-14T13:30:38Z</time>
      </trkpt>
      <trkpt lat="43.76124" lon="5.21791">
        <ele>190.9</ele>
        <time>2016-02-14T13:30:43Z</time>
      </trkpt>
      <trkpt lat="43.76128" lon="5.21779">
        <ele>192</ele>
        <time>2016-02-14T13:30:49Z</time>
      </trkpt>
      <trkpt lat="43.76136" lon="5.21768">
        <ele>192.8</ele>
        <time>2016-02-14T13:30:54Z</time>
      </trkpt>
      <trkpt lat="43.76145" lon="5.21759">
        <ele>193.8</ele>
        <time>2016-02-14T13:31:00Z</time>
      </trkpt>
      <trkpt lat="43.76147" lon="5.21746">
        <ele>195.3</ele>
        <time>2016-02-14T13:31:08Z</time>
      </trkpt>
      <trkpt lat="43.76152" lon="5.21734">
        <ele>196.4</ele>
        <time>2016-02-14T13:31:14Z</time>
      </trkpt>
      <trkpt lat="43.76156" lon="5.21723">
        <ele>197.7</ele>
        <time>2016-02-14T13:31:22Z</time>
      </trkpt>
      <trkpt lat="43.76157" lon="5.21709">
        <ele>198.5</ele>
        <time>2016-02-14T13:31:26Z</time>
      </trkpt>
      <trkpt lat="43.7616" lon="5.21696">
        <ele>199.5</ele>
        <time>2016-02-14T13:31:31Z</time>
      </trkpt>
      <trkpt lat="43.76167" lon="5.21685">
        <ele>200.5</ele>
        <time>2016-02-14T13:31:37Z</time>
      </trkpt>
      <trkpt lat="43.76166" lon="5.21671">
        <ele>201.5</ele>
        <time>2016-02-14T13:31:42Z</time>
      </trkpt>
      <trkpt lat="43.7617" lon="5.21658">
        <ele>203.3</ele>
        <time>2016-02-14T13:31:51Z</time>
      </trkpt>
      <trkpt lat="43.76172" lon="5.21646">
        <ele>204.3</ele>
        <time>2016-02-14T13:31:56Z</time>
      </trkpt>
      <trkpt lat="43.76178" lon="5.21635">
        <ele>205.9</ele>
        <time>2016-02-14T13:32:05Z</time>
      </trkpt>
      <trkpt lat="43.76183" lon="5.21624">
        <ele>207.1</ele>
        <time>2016-02-14T13:32:12Z</time>
      </trkpt>
      <trkpt lat="43.76189" lon="5.21613">
        <ele>208</ele>
        <time>2016-02-14T13:32:18Z</time>
      </trkpt>
      <trkpt lat="43.76199" lon="5.21611">
        <ele>208.6</ele>
        <time>2016-02-14T13:32:22Z</time>
      </trkpt>
      <trkpt lat="43.76208" lon="5.2161">
        <ele>209.8</ele>
        <time>2016-02-14T13:32:29Z</time>
      </trkpt>
      <trkpt lat="43.76217" lon="5.21603">
        <ele>210.5</ele>
        <time>2016-02-14T13:32:34Z</time>
      </trkpt>
      <trkpt lat="43.76225" lon="5.21596">
        <ele>211.1</ele>
        <time>2016-02-14T13:32:38Z</time>
      </trkpt>
      <trkpt lat="43.76235" lon="5.2159">
        <ele>212</ele>
        <time>2016-02-14T13:32:44Z</time>
      </trkpt>
      <trkpt lat="43.76238" lon="5.21577">
        <ele>213.4</ele>
        <time>2016-02-14T13:32:52Z</time>
      </trkpt>
      <trkpt lat="43.76242" lon="5.21565">
        <ele>214.5</ele>
        <time>2016-02-14T13:32:59Z</time>
      </trkpt>
      <trkpt lat="43.76247" lon="5.21553">
        <ele>215.2</ele>
        <time>2016-02-14T13:33:03Z</time>
      </trkpt>
      <trkpt lat="43.76252" lon="5.21542">
        <ele>216.1</ele>
        <time>2016-02-14T13:33:07Z</time>
      </trkpt>
      <trkpt lat="43.76266" lon="5.21541">
        <ele>216.7</ele>
        <time>2016-02-14T13:33:10Z</time>
      </trkpt>
      <trkpt lat="43.76276" lon="5.21541">
        <ele>218.5</ele>
        <time>2016-02-14T13:33:18Z</time>
      </trkpt>
      <trkpt lat="43.7628" lon="5.2153">
        <ele>220.2</ele>
        <time>2016-02-14T13:33:25Z</time>
      </trkpt>
      <trkpt lat="43.76285" lon="5.21519">
        <ele>221.4</ele>
        <time>2016-02-14T13:33:31Z</time>
      </trkpt>
      <trkpt lat="43.7628" lon="5.21507">
        <ele>222.7</ele>
        <time>2016-02-14T13:33:39Z</time>
      </trkpt>
      <trkpt lat="43.76288" lon="5.215">
        <ele>224.2</ele>
        <time>2016-02-14T13:33:47Z</time>
      </trkpt>
      <trkpt lat="43.76297" lon="5.21495">
        <ele>228</ele>
        <time>2016-02-14T13:34:14Z</time>
      </trkpt>
      <trkpt lat="43.76306" lon="5.21493">
        <ele>228.5</ele>
        <time>2016-02-14T13:34:18Z</time>
      </trkpt>
      <trkpt lat="43.7632" lon="5.21484">
        <ele>229.3</ele>
        <time>2016-02-14T13:34:24Z</time>
      </trkpt>
      <trkpt lat="43.76328" lon="5.2148">
        <ele>229.4</ele>
        <time>2016-02-14T13:34:25Z</time>
      </trkpt>
      <trkpt lat="43.76343" lon="5.21477">
        <ele>229.7</ele>
        <time>2016-02-14T13:34:27Z</time>
      </trkpt>
      <trkpt lat="43.76355" lon="5.21475">
        <ele>230</ele>
        <time>2016-02-14T13:34:29Z</time>
      </trkpt>
      <trkpt lat="43.76353" lon="5.21461">
        <ele>230.9</ele>
        <time>2016-02-14T13:34:34Z</time>
      </trkpt>
      <trkpt lat="43.76349" lon="5.21448">
        <ele>232.4</ele>
        <time>2016-02-14T13:34:43Z</time>
      </trkpt>
      <trkpt lat="43.76341" lon="5.21439">
        <ele>234.3</ele>
        <time>2016-02-14T13:34:52Z</time>
      </trkpt>
      <trkpt lat="43.76344" lon="5.21425">
        <ele>236.6</ele>
        <time>2016-02-14T13:35:02Z</time>
      </trkpt>
      <trkpt lat="43.7634" lon="5.21411">
        <ele>238.7</ele>
        <time>2016-02-14T13:35:09Z</time>
      </trkpt>
      <trkpt lat="43.76339" lon="5.21395">
        <ele>240.1</ele>
        <time>2016-02-14T13:35:13Z</time>
      </trkpt>
      <trkpt lat="43.7634" lon="5.21381">
        <ele>241.7</ele>
        <time>2016-02-14T13:35:17Z</time>
      </trkpt>
      <trkpt lat="43.76342" lon="5.21368">
        <ele>243.3</ele>
        <time>2016-02-14T13:35:21Z</time>
      </trkpt>
      <trkpt lat="43.76346" lon="5.21354">
        <ele>244.9</ele>
        <time>2016-02-14T13:35:25Z</time>
      </trkpt>
      <trkpt lat="43.76356" lon="5.21346">
        <ele>245.7</ele>
        <time>2016-02-14T13:35:27Z</time>
      </trkpt>
      <trkpt lat="43.76368" lon="5.21339">
        <ele>246.6</ele>
        <time>2016-02-14T13:35:29Z</time>
      </trkpt>
      <trkpt lat="43.76367" lon="5.21325">
        <ele>249.2</ele>
        <time>2016-02-14T13:35:35Z</time>
      </trkpt>
      <trkpt lat="43.76368" lon="5.21312">
        <ele>251.7</ele>
        <time>2016-02-14T13:35:42Z</time>
      </trkpt>
      <trkpt lat="43.76373" lon="5.213">
        <ele>253.8</ele>
        <time>2016-02-14T13:35:48Z</time>
      </trkpt>
      <trkpt lat="43.76374" lon="5.21287">
        <ele>255.7</ele>
        <time>2016-02-14T13:35:53Z</time>
      </trkpt>
      <trkpt lat="43.76379" lon="5.21275">
        <ele>258.2</ele>
        <time>2016-02-14T13:36:00Z</time>
      </trkpt>
      <trkpt lat="43.76387" lon="5.21264">
        <ele>259.5</ele>
        <time>2016-02-14T13:36:04Z</time>
      </trkpt>
      <trkpt lat="43.76394" lon="5.21253">
        <ele>260.8</ele>
        <time>2016-02-14T13:36:08Z</time>
      </trkpt>
      <trkpt lat="43.764" lon="5.21241">
        <ele>262.6</ele>
        <time>2016-02-14T13:36:12Z</time>
      </trkpt>
      <trkpt lat="43.76401" lon="5.21229">
        <ele>273</ele>
        <time>2016-02-14T13:36:49Z</time>
      </trkpt>
      <trkpt lat="43.76409" lon="5.21218">
        <ele>274.2</ele>
        <time>2016-02-14T13:37:04Z</time>
      </trkpt>
      <trkpt lat="43.76415" lon="5.2123">
        <ele>275.8</ele>
        <time>2016-02-14T13:37:19Z</time>
      </trkpt>
      <trkpt lat="43.76414" lon="5.21243">
        <ele>276.5</ele>
        <time>2016-02-14T13:37:24Z</time>
      </trkpt>
      <trkpt lat="43.76413" lon="5.21258">
        <ele>277.5</ele>
        <time>2016-02-14T13:37:30Z</time>
      </trkpt>
      <trkpt lat="43.76415" lon="5.21271">
        <ele>277.3</ele>
        <time>2016-02-14T13:37:35Z</time>
      </trkpt>
      <trkpt lat="43.76412" lon="5.21284">
        <ele>277.4</ele>
        <time>2016-02-14T13:37:39Z</time>
      </trkpt>
      <trkpt lat="43.7641" lon="5.21297">
        <ele>280.4</ele>
        <time>2016-02-14T13:37:47Z</time>
      </trkpt>
      <trkpt lat="43.76408" lon="5.21309">
        <ele>281.6</ele>
        <time>2016-02-14T13:37:52Z</time>
      </trkpt>
      <trkpt lat="43.76408" lon="5.21324">
        <ele>282.2</ele>
        <time>2016-02-14T13:37:56Z</time>
      </trkpt>
      <trkpt lat="43.76407" lon="5.21337">
        <ele>282.9</ele>
        <time>2016-02-14T13:38:00Z</time>
      </trkpt>
      <trkpt lat="43.76407" lon="5.21354">
        <ele>283.5</ele>
        <time>2016-02-14T13:38:05Z</time>
      </trkpt>
      <trkpt lat="43.7641" lon="5.21367">
        <ele>284.1</ele>
        <time>2016-02-14T13:38:08Z</time>
      </trkpt>
      <trkpt lat="43.764" lon="5.21375">
        <ele>285.9</ele>
        <time>2016-02-14T13:38:19Z</time>
      </trkpt>
      <trkpt lat="43.76411" lon="5.21372">
        <ele>287.1</ele>
        <time>2016-02-14T13:38:24Z</time>
      </trkpt>
      <trkpt lat="43.7642" lon="5.2137">
        <ele>288.4</ele>
        <time>2016-02-14T13:38:29Z</time>
      </trkpt>
      <trkpt lat="43.7643" lon="5.21365">
        <ele>289.6</ele>
        <time>2016-02-14T13:38:34Z</time>
      </trkpt>
      <trkpt lat="43.7644" lon="5.21361">
        <ele>291.4</ele>
        <time>2016-02-14T13:38:41Z</time>
      </trkpt>
      <trkpt lat="43.76447" lon="5.21352">
        <ele>294.2</ele>
        <time>2016-02-14T13:38:51Z</time>
      </trkpt>
      <trkpt lat="43.76454" lon="5.21345">
        <ele>296</ele>
        <time>2016-02-14T13:38:58Z</time>
      </trkpt>
      <trkpt lat="43.76464" lon="5.2134">
        <ele>297.5</ele>
        <time>2016-02-14T13:39:03Z</time>
      </trkpt>
      <trkpt lat="43.76473" lon="5.21334">
        <ele>298.6</ele>
        <time>2016-02-14T13:39:07Z</time>
      </trkpt>
      <trkpt lat="43.76482" lon="5.21331">
        <ele>299.4</ele>
        <time>2016-02-14T13:39:10Z</time>
      </trkpt>
      <trkpt lat="43.7649" lon="5.21325">
        <ele>300.3</ele>
        <time>2016-02-14T13:39:13Z</time>
      </trkpt>
      <trkpt lat="43.76488" lon="5.21312">
        <ele>302.7</ele>
        <time>2016-02-14T13:39:22Z</time>
      </trkpt>
      <trkpt lat="43.76496" lon="5.21303">
        <ele>304.4</ele>
        <time>2016-02-14T13:39:30Z</time>
      </trkpt>
      <trkpt lat="43.76506" lon="5.21302">
        <ele>305.9</ele>
        <time>2016-02-14T13:39:37Z</time>
      </trkpt>
      <trkpt lat="43.76517" lon="5.213">
        <ele>306.7</ele>
        <time>2016-02-14T13:39:42Z</time>
      </trkpt>
      <trkpt lat="43.76529" lon="5.21299">
        <ele>307.6</ele>
        <time>2016-02-14T13:39:48Z</time>
      </trkpt>
      <trkpt lat="43.76538" lon="5.21299">
        <ele>308.3</ele>
        <time>2016-02-14T13:39:52Z</time>
      </trkpt>
      <trkpt lat="43.76547" lon="5.21297">
        <ele>309.1</ele>
        <time>2016-02-14T13:39:58Z</time>
      </trkpt>
      <trkpt lat="43.76557" lon="5.21301">
        <ele>310.1</ele>
        <time>2016-02-14T13:40:05Z</time>
      </trkpt>
      <trkpt lat="43.76566" lon="5.21307">
        <ele>310.7</ele>
        <time>2016-02-14T13:40:10Z</time>
      </trkpt>
      <trkpt lat="43.76573" lon="5.21316">
        <ele>311.2</ele>
        <time>2016-02-14T13:40:16Z</time>
      </trkpt>
      <trkpt lat="43.7658" lon="5.21325">
        <ele>311.6</ele>
        <time>2016-02-14T13:40:21Z</time>
      </trkpt>
      <trkpt lat="43.76589" lon="5.2133">
        <ele>312.2</ele>
        <time>2016-02-14T13:40:28Z</time>
      </trkpt>
      <trkpt lat="43.76596" lon="5.21339">
        <ele>313.2</ele>
        <time>2016-02-14T13:40:45Z</time>
      </trkpt>
      <trkpt lat="43.76605" lon="5.21342">
        <ele>313.5</ele>
        <time>2016-02-14T13:40:53Z</time>
      </trkpt>
      <trkpt lat="43.76601" lon="5.21353">
        <ele>314.2</ele>
        <time>2016-02-14T13:42:16Z</time>
      </trkpt>
      <trkpt lat="43.76601" lon="5.21366">
        <ele>314.2</ele>
        <time>2016-02-14T13:42:21Z</time>
      </trkpt>
      <trkpt lat="43.76599" lon="5.21379">
        <ele>314.2</ele>
        <time>2016-02-14T13:42:26Z</time>
      </trkpt>
      <trkpt lat="43.76599" lon="5.21392">
        <ele>313.9</ele>
        <time>2016-02-14T13:42:32Z</time>
      </trkpt>
      <trkpt lat="43.76598" lon="5.21405">
        <ele>313.6</ele>
        <time>2016-02-14T13:42:38Z</time>
      </trkpt>
      <trkpt lat="43.76598" lon="5.21418">
        <ele>313.3</ele>
        <time>2016-02-14T13:42:44Z</time>
      </trkpt>
      <trkpt lat="43.76598" lon="5.21431">
        <ele>313.2</ele>
        <time>2016-02-14T13:42:49Z</time>
      </trkpt>
      <trkpt lat="43.76596" lon="5.21445">
        <ele>312.9</ele>
        <time>2016-02-14T13:42:57Z</time>
      </trkpt>
      <trkpt lat="43.76595" lon="5.21459">
        <ele>312.4</ele>
        <time>2016-02-14T13:43:04Z</time>
      </trkpt>
      <trkpt lat="43.76595" lon="5.21473">
        <ele>311.9</ele>
        <time>2016-02-14T13:43:10Z</time>
      </trkpt>
      <trkpt lat="43.76595" lon="5.21486">
        <ele>311.5</ele>
        <time>2016-02-14T13:43:17Z</time>
      </trkpt>
      <trkpt lat="43.76593" lon="5.215">
        <ele>311.2</ele>
        <time>2016-02-14T13:43:24Z</time>
      </trkpt>
      <trkpt lat="43.76594" lon="5.21513">
        <ele>311</ele>
        <time>2016-02-14T13:43:30Z</time>
      </trkpt>
      <trkpt lat="43.76591" lon="5.21526">
        <ele>310.9</ele>
        <time>2016-02-14T13:43:38Z</time>
      </trkpt>
      <trkpt lat="43.76591" lon="5.2154">
        <ele>310.8</ele>
        <time>2016-02-14T13:43:45Z</time>
      </trkpt>
      <trkpt lat="43.76589" lon="5.21553">
        <ele>310.6</ele>
        <time>2016-02-14T13:43:50Z</time>
      </trkpt>
      <trkpt lat="43.76588" lon="5.21566">
        <ele>310</ele>
        <time>2016-02-14T13:43:56Z</time>
      </trkpt>
      <trkpt lat="43.76589" lon="5.21579">
        <ele>309.2</ele>
        <time>2016-02-14T13:44:04Z</time>
      </trkpt>
      <trkpt lat="43.76589" lon="5.21593">
        <ele>308.4</ele>
        <time>2016-02-14T13:44:12Z</time>
      </trkpt>
      <trkpt lat="43.76586" lon="5.21605">
        <ele>307.9</ele>
        <time>2016-02-14T13:44:18Z</time>
      </trkpt>
      <trkpt lat="43.76583" lon="5.21618">
        <ele>307.6</ele>
        <time>2016-02-14T13:44:23Z</time>
      </trkpt>
      <trkpt lat="43.76582" lon="5.21631">
        <ele>307.1</ele>
        <time>2016-02-14T13:44:30Z</time>
      </trkpt>
      <trkpt lat="43.76582" lon="5.21645">
        <ele>306.5</ele>
        <time>2016-02-14T13:44:38Z</time>
      </trkpt>
      <trkpt lat="43.7658" lon="5.21659">
        <ele>306.1</ele>
        <time>2016-02-14T13:44:44Z</time>
      </trkpt>
      <trkpt lat="43.76577" lon="5.2167">
        <ele>305.8</ele>
        <time>2016-02-14T13:44:51Z</time>
      </trkpt>
      <trkpt lat="43.76573" lon="5.21683">
        <ele>305.4</ele>
        <time>2016-02-14T13:44:58Z</time>
      </trkpt>
      <trkpt lat="43.76571" lon="5.21696">
        <ele>305.2</ele>
        <time>2016-02-14T13:45:04Z</time>
      </trkpt>
      <trkpt lat="43.7657" lon="5.21712">
        <ele>305</ele>
        <time>2016-02-14T13:45:08Z</time>
      </trkpt>
      <trkpt lat="43.76564" lon="5.21723">
        <ele>304.9</ele>
        <time>2016-02-14T13:45:11Z</time>
      </trkpt>
      <trkpt lat="43.76561" lon="5.21736">
        <ele>304.2</ele>
        <time>2016-02-14T13:45:20Z</time>
      </trkpt>
      <trkpt lat="43.76558" lon="5.21749">
        <ele>303</ele>
        <time>2016-02-14T13:45:31Z</time>
      </trkpt>
      <trkpt lat="43.7655" lon="5.21757">
        <ele>302.4</ele>
        <time>2016-02-14T13:45:36Z</time>
      </trkpt>
      <trkpt lat="43.76544" lon="5.21768">
        <ele>301.3</ele>
        <time>2016-02-14T13:45:43Z</time>
      </trkpt>
      <trkpt lat="43.76537" lon="5.21781">
        <ele>300.6</ele>
        <time>2016-02-14T13:45:50Z</time>
      </trkpt>
      <trkpt lat="43.76532" lon="5.21791">
        <ele>299.5</ele>
        <time>2016-02-14T13:45:57Z</time>
      </trkpt>
      <trkpt lat="43.76525" lon="5.21799">
        <ele>298.5</ele>
        <time>2016-02-14T13:46:04Z</time>
      </trkpt>
      <trkpt lat="43.7652" lon="5.21811">
        <ele>298.1</ele>
        <time>2016-02-14T13:46:12Z</time>
      </trkpt>
      <trkpt lat="43.76515" lon="5.21823">
        <ele>297.7</ele>
        <time>2016-02-14T13:46:20Z</time>
      </trkpt>
      <trkpt lat="43.76508" lon="5.21833">
        <ele>297</ele>
        <time>2016-02-14T13:46:27Z</time>
      </trkpt>
      <trkpt lat="43.76503" lon="5.21846">
        <ele>296</ele>
        <time>2016-02-14T13:46:34Z</time>
      </trkpt>
      <trkpt lat="43.76497" lon="5.21858">
        <ele>295.5</ele>
        <time>2016-02-14T13:46:40Z</time>
      </trkpt>
      <trkpt lat="43.76492" lon="5.21869">
        <ele>295</ele>
        <time>2016-02-14T13:46:46Z</time>
      </trkpt>
      <trkpt lat="43.76486" lon="5.21879">
        <ele>294.4</ele>
        <time>2016-02-14T13:46:52Z</time>
      </trkpt>
      <trkpt lat="43.76478" lon="5.21891">
        <ele>293.9</ele>
        <time>2016-02-14T13:46:56Z</time>
      </trkpt>
      <trkpt lat="43.7647" lon="5.21905">
        <ele>293.6</ele>
        <time>2016-02-14T13:46:59Z</time>
      </trkpt>
      <trkpt lat="43.76464" lon="5.21915">
        <ele>293.2</ele>
        <time>2016-02-14T13:47:01Z</time>
      </trkpt>
      <trkpt lat="43.76454" lon="5.21929">
        <ele>292.7</ele>
        <time>2016-02-14T13:47:04Z</time>
      </trkpt>
      <trkpt lat="43.76451" lon="5.21942">
        <ele>292.4</ele>
        <time>2016-02-14T13:47:06Z</time>
      </trkpt>
      <trkpt lat="43.76445" lon="5.21955">
        <ele>292.2</ele>
        <time>2016-02-14T13:47:08Z</time>
      </trkpt>
      <trkpt lat="43.76438" lon="5.21969">
        <ele>291.9</ele>
        <time>2016-02-14T13:47:10Z</time>
      </trkpt>
      <trkpt lat="43.76431" lon="5.21982">
        <ele>291.7</ele>
        <time>2016-02-14T13:47:12Z</time>
      </trkpt>
      <trkpt lat="43.76424" lon="5.21993">
        <ele>291.5</ele>
        <time>2016-02-14T13:47:14Z</time>
      </trkpt>
      <trkpt lat="43.76417" lon="5.22005">
        <ele>291.2</ele>
        <time>2016-02-14T13:47:16Z</time>
      </trkpt>
      <trkpt lat="43.76409" lon="5.22017">
        <ele>291</ele>
        <time>2016-02-14T13:47:18Z</time>
      </trkpt>
      <trkpt lat="43.76401" lon="5.22032">
        <ele>290.8</ele>
        <time>2016-02-14T13:47:20Z</time>
      </trkpt>
      <trkpt lat="43.76391" lon="5.22047">
        <ele>290.6</ele>
        <time>2016-02-14T13:47:22Z</time>
      </trkpt>
      <trkpt lat="43.76382" lon="5.22062">
        <ele>290.5</ele>
        <time>2016-02-14T13:47:24Z</time>
      </trkpt>
      <trkpt lat="43.76373" lon="5.22078">
        <ele>290.5</ele>
        <time>2016-02-14T13:47:26Z</time>
      </trkpt>
      <trkpt lat="43.76365" lon="5.22095">
        <ele>290.4</ele>
        <time>2016-02-14T13:47:28Z</time>
      </trkpt>
      <trkpt lat="43.76356" lon="5.22112">
        <ele>290.6</ele>
        <time>2016-02-14T13:47:30Z</time>
      </trkpt>
      <trkpt lat="43.76349" lon="5.22127">
        <ele>290.9</ele>
        <time>2016-02-14T13:47:32Z</time>
      </trkpt>
      <trkpt lat="43.7634" lon="5.22139">
        <ele>291.3</ele>
        <time>2016-02-14T13:47:34Z</time>
      </trkpt>
      <trkpt lat="43.76333" lon="5.22153">
        <ele>291.7</ele>
        <time>2016-02-14T13:47:36Z</time>
      </trkpt>
      <trkpt lat="43.76326" lon="5.22164">
        <ele>292.3</ele>
        <time>2016-02-14T13:47:38Z</time>
      </trkpt>
      <trkpt lat="43.76317" lon="5.22176">
        <ele>293.3</ele>
        <time>2016-02-14T13:47:41Z</time>
      </trkpt>
      <trkpt lat="43.76311" lon="5.22188">
        <ele>294.7</ele>
        <time>2016-02-14T13:47:44Z</time>
      </trkpt>
      <trkpt lat="43.76307" lon="5.222">
        <ele>297.4</ele>
        <time>2016-02-14T13:47:50Z</time>
      </trkpt>
      <trkpt lat="43.76301" lon="5.22211">
        <ele>301.7</ele>
        <time>2016-02-14T13:48:21Z</time>
      </trkpt>
      <trkpt lat="43.76294" lon="5.2222">
        <ele>301.4</ele>
        <time>2016-02-14T13:48:25Z</time>
      </trkpt>
      <trkpt lat="43.76286" lon="5.2223">
        <ele>300.5</ele>
        <time>2016-02-14T13:48:30Z</time>
      </trkpt>
      <trkpt lat="43.7628" lon="5.2224">
        <ele>300.1</ele>
        <time>2016-02-14T13:48:33Z</time>
      </trkpt>
      <trkpt lat="43.76272" lon="5.2225">
        <ele>299.7</ele>
        <time>2016-02-14T13:48:37Z</time>
      </trkpt>
      <trkpt lat="43.76264" lon="5.22261">
        <ele>298.9</ele>
        <time>2016-02-14T13:48:42Z</time>
      </trkpt>
      <trkpt lat="43.76257" lon="5.2227">
        <ele>298.3</ele>
        <time>2016-02-14T13:48:46Z</time>
      </trkpt>
      <trkpt lat="43.7625" lon="5.22279">
        <ele>297.6</ele>
        <time>2016-02-14T13:48:52Z</time>
      </trkpt>
      <trkpt lat="43.76243" lon="5.22287">
        <ele>297.2</ele>
        <time>2016-02-14T13:48:57Z</time>
      </trkpt>
      <trkpt lat="43.76235" lon="5.22297">
        <ele>296.4</ele>
        <time>2016-02-14T13:49:03Z</time>
      </trkpt>
      <trkpt lat="43.76228" lon="5.22307">
        <ele>295.8</ele>
        <time>2016-02-14T13:49:08Z</time>
      </trkpt>
      <trkpt lat="43.7622" lon="5.22316">
        <ele>295.1</ele>
        <time>2016-02-14T13:49:13Z</time>
      </trkpt>
      <trkpt lat="43.76213" lon="5.22325">
        <ele>294.1</ele>
        <time>2016-02-14T13:49:20Z</time>
      </trkpt>
      <trkpt lat="43.76205" lon="5.22333">
        <ele>292.9</ele>
        <time>2016-02-14T13:49:27Z</time>
      </trkpt>
      <trkpt lat="43.76199" lon="5.22344">
        <ele>291.2</ele>
        <time>2016-02-14T13:49:34Z</time>
      </trkpt>
      <trkpt lat="43.76195" lon="5.22355">
        <ele>290</ele>
        <time>2016-02-14T13:49:41Z</time>
      </trkpt>
      <trkpt lat="43.76191" lon="5.22368">
        <ele>289</ele>
        <time>2016-02-14T13:49:48Z</time>
      </trkpt>
      <trkpt lat="43.76186" lon="5.2238">
        <ele>288.4</ele>
        <time>2016-02-14T13:49:55Z</time>
      </trkpt>
      <trkpt lat="43.7618" lon="5.22391">
        <ele>288.2</ele>
        <time>2016-02-14T13:50:00Z</time>
      </trkpt>
      <trkpt lat="43.76174" lon="5.224">
        <ele>288.1</ele>
        <time>2016-02-14T13:50:05Z</time>
      </trkpt>
      <trkpt lat="43.76169" lon="5.22411">
        <ele>288.1</ele>
        <time>2016-02-14T13:50:10Z</time>
      </trkpt>
      <trkpt lat="43.76162" lon="5.2242">
        <ele>288.7</ele>
        <time>2016-02-14T13:50:18Z</time>
      </trkpt>
      <trkpt lat="43.76156" lon="5.22432">
        <ele>289.1</ele>
        <time>2016-02-14T13:50:26Z</time>
      </trkpt>
      <trkpt lat="43.76151" lon="5.22444">
        <ele>289.2</ele>
        <time>2016-02-14T13:50:35Z</time>
      </trkpt>
      <trkpt lat="43.76145" lon="5.22454">
        <ele>288.8</ele>
        <time>2016-02-14T13:50:42Z</time>
      </trkpt>
      <trkpt lat="43.76138" lon="5.22463">
        <ele>288.2</ele>
        <time>2016-02-14T13:50:49Z</time>
      </trkpt>
      <trkpt lat="43.76129" lon="5.22469">
        <ele>287.7</ele>
        <time>2016-02-14T13:50:55Z</time>
      </trkpt>
      <trkpt lat="43.76119" lon="5.22469">
        <ele>287.1</ele>
        <time>2016-02-14T13:51:04Z</time>
      </trkpt>
      <trkpt lat="43.7611" lon="5.22468">
        <ele>284.9</ele>
        <time>2016-02-14T13:51:58Z</time>
      </trkpt>
      <trkpt lat="43.76101" lon="5.22466">
        <ele>284.5</ele>
        <time>2016-02-14T13:52:36Z</time>
      </trkpt>
      <trkpt lat="43.76111" lon="5.22465">
        <ele>284.9</ele>
        <time>2016-02-14T13:52:52Z</time>
      </trkpt>
      <trkpt lat="43.76121" lon="5.22476">
        <ele>284.8</ele>
        <time>2016-02-14T13:53:38Z</time>
      </trkpt>
      <trkpt lat="43.76126" lon="5.22488">
        <ele>284.4</ele>
        <time>2016-02-14T13:53:48Z</time>
      </trkpt>
      <trkpt lat="43.76121" lon="5.22498">
        <ele>279.9</ele>
        <time>2016-02-14T13:54:33Z</time>
      </trkpt>
      <trkpt lat="43.76113" lon="5.22506">
        <ele>278.8</ele>
        <time>2016-02-14T13:54:39Z</time>
      </trkpt>
      <trkpt lat="43.76107" lon="5.22515">
        <ele>277.4</ele>
        <time>2016-02-14T13:54:47Z</time>
      </trkpt>
      <trkpt lat="43.76103" lon="5.22528">
        <ele>275.9</ele>
        <time>2016-02-14T13:54:54Z</time>
      </trkpt>
      <trkpt lat="43.761" lon="5.22541">
        <ele>273.9</ele>
        <time>2016-02-14T13:55:01Z</time>
      </trkpt>
      <trkpt lat="43.76096" lon="5.22556">
        <ele>272.2</ele>
        <time>2016-02-14T13:55:07Z</time>
      </trkpt>
      <trkpt lat="43.76093" lon="5.22568">
        <ele>270.4</ele>
        <time>2016-02-14T13:55:13Z</time>
      </trkpt>
      <trkpt lat="43.76092" lon="5.22582">
        <ele>268.9</ele>
        <time>2016-02-14T13:55:19Z</time>
      </trkpt>
      <trkpt lat="43.7609" lon="5.22595">
        <ele>267.5</ele>
        <time>2016-02-14T13:55:24Z</time>
      </trkpt>
      <trkpt lat="43.76089" lon="5.22609">
        <ele>266.3</ele>
        <time>2016-02-14T13:55:30Z</time>
      </trkpt>
      <trkpt lat="43.76087" lon="5.22622">
        <ele>265.2</ele>
        <time>2016-02-14T13:55:35Z</time>
      </trkpt>
      <trkpt lat="43.7609" lon="5.22636">
        <ele>263.6</ele>
        <time>2016-02-14T13:55:41Z</time>
      </trkpt>
      <trkpt lat="43.76093" lon="5.22648">
        <ele>262.3</ele>
        <time>2016-02-14T13:55:47Z</time>
      </trkpt>
      <trkpt lat="43.76098" lon="5.22659">
        <ele>261</ele>
        <time>2016-02-14T13:55:53Z</time>
      </trkpt>
      <trkpt lat="43.76101" lon="5.22672">
        <ele>259.4</ele>
        <time>2016-02-14T13:56:01Z</time>
      </trkpt>
      <trkpt lat="43.76103" lon="5.22684">
        <ele>258.4</ele>
        <time>2016-02-14T13:56:06Z</time>
      </trkpt>
      <trkpt lat="43.76104" lon="5.22697">
        <ele>257.2</ele>
        <time>2016-02-14T13:56:12Z</time>
      </trkpt>
      <trkpt lat="43.76107" lon="5.2271">
        <ele>255.8</ele>
        <time>2016-02-14T13:56:19Z</time>
      </trkpt>
      <trkpt lat="43.76114" lon="5.22721">
        <ele>254.6</ele>
        <time>2016-02-14T13:56:25Z</time>
      </trkpt>
      <trkpt lat="43.7612" lon="5.22732">
        <ele>253.3</ele>
        <time>2016-02-14T13:56:31Z</time>
      </trkpt>
      <trkpt lat="43.76125" lon="5.22743">
        <ele>252</ele>
        <time>2016-02-14T13:56:37Z</time>
      </trkpt>
      <trkpt lat="43.7613" lon="5.22754">
        <ele>250.6</ele>
        <time>2016-02-14T13:56:43Z</time>
      </trkpt>
      <trkpt lat="43.76137" lon="5.22764">
        <ele>249.4</ele>
        <time>2016-02-14T13:56:48Z</time>
      </trkpt>
      <trkpt lat="43.7614" lon="5.22778">
        <ele>248.1</ele>
        <time>2016-02-14T13:56:54Z</time>
      </trkpt>
      <trkpt lat="43.76141" lon="5.2279">
        <ele>246.9</ele>
        <time>2016-02-14T13:57:00Z</time>
      </trkpt>
      <trkpt lat="43.76143" lon="5.22804">
        <ele>245.6</ele>
        <time>2016-02-14T13:57:06Z</time>
      </trkpt>
      <trkpt lat="43.76145" lon="5.22817">
        <ele>244.1</ele>
        <time>2016-02-14T13:57:12Z</time>
      </trkpt>
      <trkpt lat="43.76144" lon="5.22832">
        <ele>242.9</ele>
        <time>2016-02-14T13:57:17Z</time>
      </trkpt>
      <trkpt lat="43.76144" lon="5.22846">
        <ele>241.5</ele>
        <time>2016-02-14T13:57:22Z</time>
      </trkpt>
      <trkpt lat="43.76141" lon="5.2286">
        <ele>240</ele>
        <time>2016-02-14T13:57:28Z</time>
      </trkpt>
      <trkpt lat="43.7614" lon="5.22876">
        <ele>238.2</ele>
        <time>2016-02-14T13:57:35Z</time>
      </trkpt>
      <trkpt lat="43.76139" lon="5.2289">
        <ele>236</ele>
        <time>2016-02-14T13:57:42Z</time>
      </trkpt>
      <trkpt lat="43.76137" lon="5.22902">
        <ele>234.6</ele>
        <time>2016-02-14T13:57:47Z</time>
      </trkpt>
      <trkpt lat="43.76132" lon="5.22915">
        <ele>231.9</ele>
        <time>2016-02-14T13:57:56Z</time>
      </trkpt>
      <trkpt lat="43.76126" lon="5.22927">
        <ele>229.9</ele>
        <time>2016-02-14T13:58:03Z</time>
      </trkpt>
      <trkpt lat="43.76125" lon="5.2294">
        <ele>228.1</ele>
        <time>2016-02-14T13:58:10Z</time>
      </trkpt>
      <trkpt lat="43.7612" lon="5.22953">
        <ele>226.4</ele>
        <time>2016-02-14T13:58:16Z</time>
      </trkpt>
      <trkpt lat="43.76117" lon="5.22966">
        <ele>224.8</ele>
        <time>2016-02-14T13:58:21Z</time>
      </trkpt>
      <trkpt lat="43.7611" lon="5.22979">
        <ele>223.4</ele>
        <time>2016-02-14T13:58:26Z</time>
      </trkpt>
      <trkpt lat="43.76104" lon="5.22989">
        <ele>221.9</ele>
        <time>2016-02-14T13:58:32Z</time>
      </trkpt>
      <trkpt lat="43.76099" lon="5.23001">
        <ele>220.6</ele>
        <time>2016-02-14T13:58:38Z</time>
      </trkpt>
      <trkpt lat="43.76095" lon="5.23015">
        <ele>219.2</ele>
        <time>2016-02-14T13:58:44Z</time>
      </trkpt>
      <trkpt lat="43.7609" lon="5.23027">
        <ele>217.9</ele>
        <time>2016-02-14T13:58:51Z</time>
      </trkpt>
      <trkpt lat="43.76085" lon="5.23038">
        <ele>216.6</ele>
        <time>2016-02-14T13:58:59Z</time>
      </trkpt>
      <trkpt lat="43.7608" lon="5.23049">
        <ele>216</ele>
        <time>2016-02-14T13:59:04Z</time>
      </trkpt>
      <trkpt lat="43.76071" lon="5.23055">
        <ele>215.2</ele>
        <time>2016-02-14T13:59:11Z</time>
      </trkpt>
      <trkpt lat="43.76059" lon="5.23051">
        <ele>214.5</ele>
        <time>2016-02-14T13:59:15Z</time>
      </trkpt>
      <trkpt lat="43.76052" lon="5.23043">
        <ele>213.8</ele>
        <time>2016-02-14T13:59:18Z</time>
      </trkpt>
      <trkpt lat="43.76043" lon="5.23035">
        <ele>213</ele>
        <time>2016-02-14T13:59:21Z</time>
      </trkpt>
      <trkpt lat="43.76036" lon="5.23027">
        <ele>212.3</ele>
        <time>2016-02-14T13:59:24Z</time>
      </trkpt>
      <trkpt lat="43.76029" lon="5.23018">
        <ele>211.5</ele>
        <time>2016-02-14T13:59:27Z</time>
      </trkpt>
      <trkpt lat="43.76023" lon="5.23006">
        <ele>210.4</ele>
        <time>2016-02-14T13:59:31Z</time>
      </trkpt>
      <trkpt lat="43.76019" lon="5.22993">
        <ele>209.3</ele>
        <time>2016-02-14T13:59:35Z</time>
      </trkpt>
      <trkpt lat="43.76016" lon="5.22981">
        <ele>208</ele>
        <time>2016-02-14T13:59:41Z</time>
      </trkpt>
      <trkpt lat="43.76011" lon="5.22969">
        <ele>206.7</ele>
        <time>2016-02-14T13:59:48Z</time>
      </trkpt>
      <trkpt lat="43.76007" lon="5.22957">
        <ele>205.8</ele>
        <time>2016-02-14T13:59:55Z</time>
      </trkpt>
      <trkpt lat="43.76002" lon="5.22945">
        <ele>205.3</ele>
        <time>2016-02-14T14:00:01Z</time>
      </trkpt>
      <trkpt lat="43.76" lon="5.22932">
        <ele>204.4</ele>
        <time>2016-02-14T14:00:07Z</time>
      </trkpt>
      <trkpt lat="43.75997" lon="5.22918">
        <ele>203.7</ele>
        <time>2016-02-14T14:00:13Z</time>
      </trkpt>
      <trkpt lat="43.75992" lon="5.22905">
        <ele>203.1</ele>
        <time>2016-02-14T14:00:18Z</time>
      </trkpt>
      <trkpt lat="43.75987" lon="5.22893">
        <ele>201.8</ele>
        <time>2016-02-14T14:00:28Z</time>
      </trkpt>
      <trkpt lat="43.75983" lon="5.22882">
        <ele>201.3</ele>
        <time>2016-02-14T14:00:34Z</time>
      </trkpt>
      <trkpt lat="43.75977" lon="5.2287">
        <ele>200.8</ele>
        <time>2016-02-14T14:00:40Z</time>
      </trkpt>
      <trkpt lat="43.75972" lon="5.22858">
        <ele>200.4</ele>
        <time>2016-02-14T14:00:46Z</time>
      </trkpt>
      <trkpt lat="43.75968" lon="5.22847">
        <ele>199.3</ele>
        <time>2016-02-14T14:00:53Z</time>
      </trkpt>
      <trkpt lat="43.75964" lon="5.22834">
        <ele>197.9</ele>
        <time>2016-02-14T14:01:01Z</time>
      </trkpt>
      <trkpt lat="43.75958" lon="5.22822">
        <ele>197.2</ele>
        <time>2016-02-14T14:01:07Z</time>
      </trkpt>
      <trkpt lat="43.75953" lon="5.22809">
        <ele>196.7</ele>
        <time>2016-02-14T14:01:13Z</time>
      </trkpt>
      <trkpt lat="43.7595" lon="5.22797">
        <ele>195.8</ele>
        <time>2016-02-14T14:01:20Z</time>
      </trkpt>
      <trkpt lat="43.75948" lon="5.22785">
        <ele>194.6</ele>
        <time>2016-02-14T14:01:26Z</time>
      </trkpt>
      <trkpt lat="43.7595" lon="5.22773">
        <ele>193.7</ele>
        <time>2016-02-14T14:01:30Z</time>
      </trkpt>
      <trkpt lat="43.75948" lon="5.22758">
        <ele>192.7</ele>
        <time>2016-02-14T14:01:34Z</time>
      </trkpt>
      <trkpt lat="43.75948" lon="5.22744">
        <ele>191.2</ele>
        <time>2016-02-14T14:01:39Z</time>
      </trkpt>
      <trkpt lat="43.75947" lon="5.22728">
        <ele>189.9</ele>
        <time>2016-02-14T14:01:44Z</time>
      </trkpt>
      <trkpt lat="43.75944" lon="5.22714">
        <ele>188.8</ele>
        <time>2016-02-14T14:01:49Z</time>
      </trkpt>
      <trkpt lat="43.75938" lon="5.22703">
        <ele>187.3</ele>
        <time>2016-02-14T14:01:57Z</time>
      </trkpt>
      <trkpt lat="43.75928" lon="5.22701">
        <ele>186.2</ele>
        <time>2016-02-14T14:02:06Z</time>
      </trkpt>
      <trkpt lat="43.75936" lon="5.22708">
        <ele>180.1</ele>
        <time>2016-02-14T14:03:26Z</time>
      </trkpt>
      <trkpt lat="43.75943" lon="5.22701">
        <ele>179.9</ele>
        <time>2016-02-14T14:03:35Z</time>
      </trkpt>
      <trkpt lat="43.75934" lon="5.22699">
        <ele>180.1</ele>
        <time>2016-02-14T14:03:56Z</time>
      </trkpt>
      <trkpt lat="43.75926" lon="5.22706">
        <ele>180.3</ele>
        <time>2016-02-14T14:04:10Z</time>
      </trkpt>
      <trkpt lat="43.75924" lon="5.2272">
        <ele>179.8</ele>
        <time>2016-02-14T14:04:22Z</time>
      </trkpt>
      <trkpt lat="43.75925" lon="5.22733">
        <ele>179.4</ele>
        <time>2016-02-14T14:04:28Z</time>
      </trkpt>
      <trkpt lat="43.75918" lon="5.22744">
        <ele>178.9</ele>
        <time>2016-02-14T14:04:38Z</time>
      </trkpt>
      <trkpt lat="43.75912" lon="5.22755">
        <ele>177.1</ele>
        <time>2016-02-14T14:04:48Z</time>
      </trkpt>
      <trkpt lat="43.75904" lon="5.22761">
        <ele>175.4</ele>
        <time>2016-02-14T14:04:56Z</time>
      </trkpt>
      <trkpt lat="43.759" lon="5.22774">
        <ele>173.5</ele>
        <time>2016-02-14T14:05:03Z</time>
      </trkpt>
      <trkpt lat="43.75897" lon="5.22789">
        <ele>171.3</ele>
        <time>2016-02-14T14:05:10Z</time>
      </trkpt>
      <trkpt lat="43.75893" lon="5.22801">
        <ele>169.1</ele>
        <time>2016-02-14T14:05:17Z</time>
      </trkpt>
      <trkpt lat="43.75889" lon="5.22813">
        <ele>167.6</ele>
        <time>2016-02-14T14:05:25Z</time>
      </trkpt>
      <trkpt lat="43.75885" lon="5.22826">
        <ele>166.6</ele>
        <time>2016-02-14T14:05:34Z</time>
      </trkpt>
      <trkpt lat="43.75885" lon="5.22839">
        <ele>166.1</ele>
        <time>2016-02-14T14:05:41Z</time>
      </trkpt>
      <trkpt lat="43.75887" lon="5.22852">
        <ele>165.7</ele>
        <time>2016-02-14T14:05:47Z</time>
      </trkpt>
      <trkpt lat="43.7589" lon="5.22865">
        <ele>165.2</ele>
        <time>2016-02-14T14:05:56Z</time>
      </trkpt>
      <trkpt lat="43.75892" lon="5.2288">
        <ele>164.7</ele>
        <time>2016-02-14T14:06:03Z</time>
      </trkpt>
      <trkpt lat="43.75887" lon="5.22891">
        <ele>164.5</ele>
        <time>2016-02-14T14:06:08Z</time>
      </trkpt>
      <trkpt lat="43.75888" lon="5.22905">
        <ele>164.2</ele>
        <time>2016-02-14T14:06:14Z</time>
      </trkpt>
      <trkpt lat="43.75887" lon="5.22917">
        <ele>163.9</ele>
        <time>2016-02-14T14:06:20Z</time>
      </trkpt>
      <trkpt lat="43.75889" lon="5.22931">
        <ele>163</ele>
        <time>2016-02-14T14:06:29Z</time>
      </trkpt>
      <trkpt lat="43.75886" lon="5.22943">
        <ele>162.2</ele>
        <time>2016-02-14T14:06:36Z</time>
      </trkpt>
      <trkpt lat="43.75882" lon="5.22956">
        <ele>161.3</ele>
        <time>2016-02-14T14:06:42Z</time>
      </trkpt>
      <trkpt lat="43.75877" lon="5.22968">
        <ele>160.5</ele>
        <time>2016-02-14T14:06:46Z</time>
      </trkpt>
      <trkpt lat="43.75872" lon="5.22981">
        <ele>159.2</ele>
        <time>2016-02-14T14:06:52Z</time>
      </trkpt>
      <trkpt lat="43.75868" lon="5.22994">
        <ele>158.3</ele>
        <time>2016-02-14T14:06:58Z</time>
      </trkpt>
      <trkpt lat="43.75861" lon="5.23003">
        <ele>157.8</ele>
        <time>2016-02-14T14:07:03Z</time>
      </trkpt>
      <trkpt lat="43.7585" lon="5.23003">
        <ele>157.2</ele>
        <time>2016-02-14T14:07:08Z</time>
      </trkpt>
      <trkpt lat="43.75841" lon="5.23002">
        <ele>156.3</ele>
        <time>2016-02-14T14:07:12Z</time>
      </trkpt>
      <trkpt lat="43.75831" lon="5.22999">
        <ele>154.5</ele>
        <time>2016-02-14T14:07:19Z</time>
      </trkpt>
      <trkpt lat="43.75821" lon="5.22998">
        <ele>153.3</ele>
        <time>2016-02-14T14:07:24Z</time>
      </trkpt>
      <trkpt lat="43.75812" lon="5.22991">
        <ele>152.2</ele>
        <time>2016-02-14T14:07:29Z</time>
      </trkpt>
      <trkpt lat="43.75805" lon="5.2298">
        <ele>150.9</ele>
        <time>2016-02-14T14:07:34Z</time>
      </trkpt>
      <trkpt lat="43.75796" lon="5.22975">
        <ele>149.1</ele>
        <time>2016-02-14T14:07:40Z</time>
      </trkpt>
      <trkpt lat="43.75788" lon="5.22964">
        <ele>147.6</ele>
        <time>2016-02-14T14:07:45Z</time>
      </trkpt>
      <trkpt lat="43.7578" lon="5.22957">
        <ele>145.2</ele>
        <time>2016-02-14T14:07:54Z</time>
      </trkpt>
      <trkpt lat="43.75771" lon="5.22956">
        <ele>143.5</ele>
        <time>2016-02-14T14:08:00Z</time>
      </trkpt>
      <trkpt lat="43.75761" lon="5.22957">
        <ele>142</ele>
        <time>2016-02-14T14:08:07Z</time>
      </trkpt>
      <trkpt lat="43.75752" lon="5.22956">
        <ele>141.1</ele>
        <time>2016-02-14T14:08:13Z</time>
      </trkpt>
      <trkpt lat="43.75742" lon="5.22959">
        <ele>140.1</ele>
        <time>2016-02-14T14:08:19Z</time>
      </trkpt>
      <trkpt lat="43.75732" lon="5.22957">
        <ele>139.3</ele>
        <time>2016-02-14T14:08:25Z</time>
      </trkpt>
      <trkpt lat="43.75722" lon="5.22953">
        <ele>138.7</ele>
        <time>2016-02-14T14:08:31Z</time>
      </trkpt>
      <trkpt lat="43.75713" lon="5.22948">
        <ele>137.7</ele>
        <time>2016-02-14T14:08:38Z</time>
      </trkpt>
      <trkpt lat="43.75703" lon="5.22948">
        <ele>136.9</ele>
        <time>2016-02-14T14:08:45Z</time>
      </trkpt>
      <trkpt lat="43.75694" lon="5.22951">
        <ele>135.9</ele>
        <time>2016-02-14T14:08:52Z</time>
      </trkpt>
      <trkpt lat="43.75688" lon="5.22962">
        <ele>134.2</ele>
        <time>2016-02-14T14:09:01Z</time>
      </trkpt>
      <trkpt lat="43.75681" lon="5.22973">
        <ele>132.7</ele>
        <time>2016-02-14T14:09:10Z</time>
      </trkpt>
      <trkpt lat="43.75672" lon="5.22978">
        <ele>132</ele>
        <time>2016-02-14T14:09:16Z</time>
      </trkpt>
      <trkpt lat="43.75664" lon="5.22985">
        <ele>131.2</ele>
        <time>2016-02-14T14:09:21Z</time>
      </trkpt>
      <trkpt lat="43.75657" lon="5.22993">
        <ele>130</ele>
        <time>2016-02-14T14:09:27Z</time>
      </trkpt>
      <trkpt lat="43.75646" lon="5.22996">
        <ele>128.7</ele>
        <time>2016-02-14T14:09:35Z</time>
      </trkpt>
      <trkpt lat="43.75639" lon="5.22987">
        <ele>123.2</ele>
        <time>2016-02-14T14:10:20Z</time>
      </trkpt>
      <trkpt lat="43.75633" lon="5.22976">
        <ele>122.7</ele>
        <time>2016-02-14T14:10:49Z</time>
      </trkpt>
      <trkpt lat="43.75629" lon="5.22987">
        <ele>123.6</ele>
        <time>2016-02-14T14:11:55Z</time>
      </trkpt>
      <trkpt lat="43.75636" lon="5.22995">
        <ele>124.3</ele>
        <time>2016-02-14T14:12:08Z</time>
      </trkpt>
      <trkpt lat="43.75633" lon="5.23007">
        <ele>124.2</ele>
        <time>2016-02-14T14:12:15Z</time>
      </trkpt>
      <trkpt lat="43.75632" lon="5.2302">
        <ele>123.8</ele>
        <time>2016-02-14T14:12:23Z</time>
      </trkpt>
      <trkpt lat="43.75635" lon="5.23032">
        <ele>123.3</ele>
        <time>2016-02-14T14:12:34Z</time>
      </trkpt>
      <trkpt lat="43.7564" lon="5.23044">
        <ele>122.8</ele>
        <time>2016-02-14T14:12:43Z</time>
      </trkpt>
      <trkpt lat="43.75644" lon="5.23055">
        <ele>121.8</ele>
        <time>2016-02-14T14:12:50Z</time>
      </trkpt>
      <trkpt lat="43.75642" lon="5.23069">
        <ele>120.9</ele>
        <time>2016-02-14T14:13:00Z</time>
      </trkpt>
      <trkpt lat="43.75636" lon="5.23078">
        <ele>119.8</ele>
        <time>2016-02-14T14:13:08Z</time>
      </trkpt>
      <trkpt lat="43.75632" lon="5.2309">
        <ele>117.8</ele>
        <time>2016-02-14T14:13:18Z</time>
      </trkpt>
      <trkpt lat="43.75632" lon="5.23104">
        <ele>116.4</ele>
        <time>2016-02-14T14:13:25Z</time>
      </trkpt>
      <trkpt lat="43.75628" lon="5.23116">
        <ele>115.1</ele>
        <time>2016-02-14T14:13:33Z</time>
      </trkpt>
      <trkpt lat="43.75633" lon="5.23128">
        <ele>113.8</ele>
        <time>2016-02-14T14:13:41Z</time>
      </trkpt>
      <trkpt lat="43.75636" lon="5.2314">
        <ele>112.5</ele>
        <time>2016-02-14T14:13:48Z</time>
      </trkpt>
      <trkpt lat="43.75641" lon="5.23152">
        <ele>111.6</ele>
        <time>2016-02-14T14:13:55Z</time>
      </trkpt>
      <trkpt lat="43.75644" lon="5.23164">
        <ele>110.6</ele>
        <time>2016-02-14T14:14:03Z</time>
      </trkpt>
      <trkpt lat="43.75653" lon="5.23174">
        <ele>109.5</ele>
        <time>2016-02-14T14:14:11Z</time>
      </trkpt>
      <trkpt lat="43.7566" lon="5.23183">
        <ele>108.8</ele>
        <time>2016-02-14T14:14:16Z</time>
      </trkpt>
      <trkpt lat="43.75658" lon="5.23196">
        <ele>107.7</ele>
        <time>2016-02-14T14:14:24Z</time>
      </trkpt>
      <trkpt lat="43.75657" lon="5.23209">
        <ele>106.9</ele>
        <time>2016-02-14T14:14:31Z</time>
      </trkpt>
      <trkpt lat="43.75659" lon="5.23223">
        <ele>106.3</ele>
        <time>2016-02-14T14:14:39Z</time>
      </trkpt>
      <trkpt lat="43.75663" lon="5.23236">
        <ele>105.7</ele>
        <time>2016-02-14T14:14:46Z</time>
      </trkpt>
      <trkpt lat="43.75668" lon="5.23248">
        <ele>105</ele>
        <time>2016-02-14T14:14:53Z</time>
      </trkpt>
      <trkpt lat="43.75674" lon="5.23259">
        <ele>104.5</ele>
        <time>2016-02-14T14:14:59Z</time>
      </trkpt>
      <trkpt lat="43.75683" lon="5.23267">
        <ele>104.3</ele>
        <time>2016-02-14T14:15:03Z</time>
      </trkpt>
      <trkpt lat="43.75692" lon="5.23273">
        <ele>104</ele>
        <time>2016-02-14T14:15:10Z</time>
      </trkpt>
      <trkpt lat="43.75699" lon="5.23283">
        <ele>104</ele>
        <time>2016-02-14T14:15:26Z</time>
      </trkpt>
      <trkpt lat="43.75708" lon="5.23282">
        <ele>104</ele>
        <time>2016-02-14T14:15:33Z</time>
      </trkpt>
      <trkpt lat="43.75718" lon="5.23283">
        <ele>104</ele>
        <time>2016-02-14T14:15:39Z</time>
      </trkpt>
      <trkpt lat="43.75729" lon="5.2329">
        <ele>103.8</ele>
        <time>2016-02-14T14:15:44Z</time>
      </trkpt>
      <trkpt lat="43.75738" lon="5.23295">
        <ele>103.7</ele>
        <time>2016-02-14T14:15:48Z</time>
      </trkpt>
      <trkpt lat="43.75744" lon="5.23307">
        <ele>103.4</ele>
        <time>2016-02-14T14:16:00Z</time>
      </trkpt>
      <trkpt lat="43.75754" lon="5.23314">
        <ele>103.3</ele>
        <time>2016-02-14T14:16:06Z</time>
      </trkpt>
      <trkpt lat="43.75763" lon="5.23318">
        <ele>103.2</ele>
        <time>2016-02-14T14:16:13Z</time>
      </trkpt>
      <trkpt lat="43.75772" lon="5.2332">
        <ele>103.1</ele>
        <time>2016-02-14T14:16:17Z</time>
      </trkpt>
      <trkpt lat="43.75781" lon="5.23322">
        <ele>103.1</ele>
        <time>2016-02-14T14:16:21Z</time>
      </trkpt>
      <trkpt lat="43.75789" lon="5.23329">
        <ele>103</ele>
        <time>2016-02-14T14:16:27Z</time>
      </trkpt>
      <trkpt lat="43.75798" lon="5.23334">
        <ele>102.8</ele>
        <time>2016-02-14T14:16:32Z</time>
      </trkpt>
      <trkpt lat="43.75806" lon="5.23343">
        <ele>102.3</ele>
        <time>2016-02-14T14:16:39Z</time>
      </trkpt>
      <trkpt lat="43.75815" lon="5.23349">
        <ele>101.9</ele>
        <time>2016-02-14T14:16:44Z</time>
      </trkpt>
      <trkpt lat="43.75822" lon="5.23359">
        <ele>101.4</ele>
        <time>2016-02-14T14:16:51Z</time>
      </trkpt>
      <trkpt lat="43.7583" lon="5.23367">
        <ele>100.7</ele>
        <time>2016-02-14T14:16:57Z</time>
      </trkpt>
      <trkpt lat="43.75822" lon="5.23378">
        <ele>99.9</ele>
        <time>2016-02-14T14:17:07Z</time>
      </trkpt>
      <trkpt lat="43.75821" lon="5.23366">
        <ele>99.3</ele>
        <time>2016-02-14T14:17:17Z</time>
      </trkpt>
      <trkpt lat="43.75822" lon="5.23352">
        <ele>98.3</ele>
        <time>2016-02-14T14:17:30Z</time>
      </trkpt>
      <trkpt lat="43.75828" lon="5.23342">
        <ele>97.5</ele>
        <time>2016-02-14T14:17:44Z</time>
      </trkpt>
      <trkpt lat="43.75825" lon="5.23358">
        <ele>96.1</ele>
        <time>2016-02-14T14:18:01Z</time>
      </trkpt>
      <trkpt lat="43.7583" lon="5.23369">
        <ele>95.2</ele>
        <time>2016-02-14T14:19:23Z</time>
      </trkpt>
      <trkpt lat="43.75838" lon="5.23378">
        <ele>95.2</ele>
        <time>2016-02-14T14:19:31Z</time>
      </trkpt>
      <trkpt lat="43.75847" lon="5.23384">
        <ele>95.3</ele>
        <time>2016-02-14T14:19:36Z</time>
      </trkpt>
      <trkpt lat="43.75857" lon="5.23385">
        <ele>95.8</ele>
        <time>2016-02-14T14:19:41Z</time>
      </trkpt>
      <trkpt lat="43.75866" lon="5.23385">
        <ele>96.3</ele>
        <time>2016-02-14T14:19:46Z</time>
      </trkpt>
      <trkpt lat="43.75875" lon="5.23381">
        <ele>97.2</ele>
        <time>2016-02-14T14:19:55Z</time>
      </trkpt>
      <trkpt lat="43.75889" lon="5.23379">
        <ele>97.7</ele>
        <time>2016-02-14T14:20:00Z</time>
      </trkpt>
      <trkpt lat="43.75899" lon="5.23376">
        <ele>98</ele>
        <time>2016-02-14T14:20:04Z</time>
      </trkpt>
      <trkpt lat="43.75908" lon="5.23371">
        <ele>98.6</ele>
        <time>2016-02-14T14:20:12Z</time>
      </trkpt>
      <trkpt lat="43.75918" lon="5.23368">
        <ele>99.2</ele>
        <time>2016-02-14T14:20:21Z</time>
      </trkpt>
      <trkpt lat="43.75927" lon="5.23368">
        <ele>99.7</ele>
        <time>2016-02-14T14:20:28Z</time>
      </trkpt>
      <trkpt lat="43.75938" lon="5.23367">
        <ele>100.2</ele>
        <time>2016-02-14T14:20:35Z</time>
      </trkpt>
      <trkpt lat="43.75947" lon="5.23363">
        <ele>100.8</ele>
        <time>2016-02-14T14:20:40Z</time>
      </trkpt>
      <trkpt lat="43.75957" lon="5.23357">
        <ele>101.4</ele>
        <time>2016-02-14T14:20:47Z</time>
      </trkpt>
      <trkpt lat="43.75966" lon="5.23353">
        <ele>101.7</ele>
        <time>2016-02-14T14:20:52Z</time>
      </trkpt>
      <trkpt lat="43.75976" lon="5.23349">
        <ele>101.9</ele>
        <time>2016-02-14T14:20:57Z</time>
      </trkpt>
      <trkpt lat="43.75984" lon="5.23344">
        <ele>102.3</ele>
        <time>2016-02-14T14:21:04Z</time>
      </trkpt>
      <trkpt lat="43.75993" lon="5.23341">
        <ele>102.2</ele>
        <time>2016-02-14T14:21:11Z</time>
      </trkpt>
      <trkpt lat="43.76002" lon="5.23336">
        <ele>102.7</ele>
        <time>2016-02-14T14:21:15Z</time>
      </trkpt>
      <trkpt lat="43.76011" lon="5.23332">
        <ele>103</ele>
        <time>2016-02-14T14:21:18Z</time>
      </trkpt>
      <trkpt lat="43.76023" lon="5.23332">
        <ele>103.4</ele>
        <time>2016-02-14T14:21:21Z</time>
      </trkpt>
      <trkpt lat="43.76034" lon="5.23332">
        <ele>103.7</ele>
        <time>2016-02-14T14:21:24Z</time>
      </trkpt>
      <trkpt lat="43.76044" lon="5.23331">
        <ele>104.4</ele>
        <time>2016-02-14T14:21:30Z</time>
      </trkpt>
      <trkpt lat="43.76053" lon="5.23325">
        <ele>104.9</ele>
        <time>2016-02-14T14:21:35Z</time>
      </trkpt>
      <trkpt lat="43.76064" lon="5.23325">
        <ele>105.3</ele>
        <time>2016-02-14T14:21:39Z</time>
      </trkpt>
      <trkpt lat="43.76073" lon="5.2332">
        <ele>106</ele>
        <time>2016-02-14T14:21:46Z</time>
      </trkpt>
      <trkpt lat="43.76082" lon="5.23321">
        <ele>106.4</ele>
        <time>2016-02-14T14:21:50Z</time>
      </trkpt>
      <trkpt lat="43.76091" lon="5.2332">
        <ele>106.2</ele>
        <time>2016-02-14T14:21:55Z</time>
      </trkpt>
      <trkpt lat="43.76098" lon="5.2331">
        <ele>108.3</ele>
        <time>2016-02-14T14:22:05Z</time>
      </trkpt>
      <trkpt lat="43.76105" lon="5.23299">
        <ele>109</ele>
        <time>2016-02-14T14:22:11Z</time>
      </trkpt>
      <trkpt lat="43.76117" lon="5.23296">
        <ele>109.5</ele>
        <time>2016-02-14T14:22:16Z</time>
      </trkpt>
      <trkpt lat="43.76126" lon="5.23293">
        <ele>109.8</ele>
        <time>2016-02-14T14:22:22Z</time>
      </trkpt>
      <trkpt lat="43.76134" lon="5.23287">
        <ele>110.3</ele>
        <time>2016-02-14T14:22:29Z</time>
      </trkpt>
      <trkpt lat="43.76146" lon="5.23289">
        <ele>110.6</ele>
        <time>2016-02-14T14:22:36Z</time>
      </trkpt>
      <trkpt lat="43.76155" lon="5.2329">
        <ele>111.1</ele>
        <time>2016-02-14T14:22:44Z</time>
      </trkpt>
      <trkpt lat="43.76165" lon="5.23295">
        <ele>111.4</ele>
        <time>2016-02-14T14:22:50Z</time>
      </trkpt>
      <trkpt lat="43.76174" lon="5.23302">
        <ele>111.7</ele>
        <time>2016-02-14T14:22:56Z</time>
      </trkpt>
      <trkpt lat="43.76183" lon="5.23299">
        <ele>112.1</ele>
        <time>2016-02-14T14:23:02Z</time>
      </trkpt>
      <trkpt lat="43.76192" lon="5.23292">
        <ele>112.6</ele>
        <time>2016-02-14T14:23:10Z</time>
      </trkpt>
      <trkpt lat="43.76198" lon="5.23282">
        <ele>112.7</ele>
        <time>2016-02-14T14:23:15Z</time>
      </trkpt>
      <trkpt lat="43.76204" lon="5.23271">
        <ele>112.9</ele>
        <time>2016-02-14T14:23:20Z</time>
      </trkpt>
      <trkpt lat="43.76206" lon="5.23258">
        <ele>113.3</ele>
        <time>2016-02-14T14:23:28Z</time>
      </trkpt>
      <trkpt lat="43.76208" lon="5.23245">
        <ele>113.7</ele>
        <time>2016-02-14T14:23:34Z</time>
      </trkpt>
      <trkpt lat="43.76206" lon="5.23231">
        <ele>114.2</ele>
        <time>2016-02-14T14:23:40Z</time>
      </trkpt>
      <trkpt lat="43.76206" lon="5.23218">
        <ele>114.8</ele>
        <time>2016-02-14T14:23:47Z</time>
      </trkpt>
      <trkpt lat="43.76209" lon="5.23205">
        <ele>115.3</ele>
        <time>2016-02-14T14:23:53Z</time>
      </trkpt>
      <trkpt lat="43.76216" lon="5.23194">
        <ele>115.8</ele>
        <time>2016-02-14T14:23:59Z</time>
      </trkpt>
      <trkpt lat="43.76219" lon="5.23182">
        <ele>116.7</ele>
        <time>2016-02-14T14:24:06Z</time>
      </trkpt>
      <trkpt lat="43.76215" lon="5.2317">
        <ele>117.2</ele>
        <time>2016-02-14T14:24:10Z</time>
      </trkpt>
      <trkpt lat="43.76216" lon="5.23158">
        <ele>117.9</ele>
        <time>2016-02-14T14:24:16Z</time>
      </trkpt>
      <trkpt lat="43.76215" lon="5.23144">
        <ele>118.7</ele>
        <time>2016-02-14T14:24:24Z</time>
      </trkpt>
      <trkpt lat="43.76208" lon="5.23134">
        <ele>119.3</ele>
        <time>2016-02-14T14:24:30Z</time>
      </trkpt>
      <trkpt lat="43.76199" lon="5.23127">
        <ele>120</ele>
        <time>2016-02-14T14:24:37Z</time>
      </trkpt>
      <trkpt lat="43.7619" lon="5.23119">
        <ele>120.6</ele>
        <time>2016-02-14T14:24:43Z</time>
      </trkpt>
      <trkpt lat="43.76182" lon="5.2311">
        <ele>121</ele>
        <time>2016-02-14T14:24:48Z</time>
      </trkpt>
      <trkpt lat="43.76175" lon="5.231">
        <ele>121.6</ele>
        <time>2016-02-14T14:24:55Z</time>
      </trkpt>
      <trkpt lat="43.7617" lon="5.23085">
        <ele>121.9</ele>
        <time>2016-02-14T14:25:00Z</time>
      </trkpt>
      <trkpt lat="43.76171" lon="5.23072">
        <ele>122.6</ele>
        <time>2016-02-14T14:25:07Z</time>
      </trkpt>
      <trkpt lat="43.76175" lon="5.23061">
        <ele>123.3</ele>
        <time>2016-02-14T14:25:14Z</time>
      </trkpt>
      <trkpt lat="43.76176" lon="5.23047">
        <ele>123.6</ele>
        <time>2016-02-14T14:25:19Z</time>
      </trkpt>
      <trkpt lat="43.76186" lon="5.23039">
        <ele>124.4</ele>
        <time>2016-02-14T14:25:27Z</time>
      </trkpt>
      <trkpt lat="43.76194" lon="5.23035">
        <ele>124.9</ele>
        <time>2016-02-14T14:25:32Z</time>
      </trkpt>
      <trkpt lat="43.76205" lon="5.23032">
        <ele>125.3</ele>
        <time>2016-02-14T14:25:36Z</time>
      </trkpt>
      <trkpt lat="43.76194" lon="5.23029">
        <ele>126.6</ele>
        <time>2016-02-14T14:25:52Z</time>
      </trkpt>
      <trkpt lat="43.76203" lon="5.23024">
        <ele>128</ele>
        <time>2016-02-14T14:26:06Z</time>
      </trkpt>
      <trkpt lat="43.76212" lon="5.23023">
        <ele>128.4</ele>
        <time>2016-02-14T14:26:11Z</time>
      </trkpt>
      <trkpt lat="43.76221" lon="5.23026">
        <ele>128.9</ele>
        <time>2016-02-14T14:26:18Z</time>
      </trkpt>
      <trkpt lat="43.7623" lon="5.23022">
        <ele>129.3</ele>
        <time>2016-02-14T14:26:23Z</time>
      </trkpt>
      <trkpt lat="43.76239" lon="5.23019">
        <ele>129.7</ele>
        <time>2016-02-14T14:26:28Z</time>
      </trkpt>
      <trkpt lat="43.76247" lon="5.23012">
        <ele>130.1</ele>
        <time>2016-02-14T14:26:34Z</time>
      </trkpt>
      <trkpt lat="43.76252" lon="5.23">
        <ele>130.6</ele>
        <time>2016-02-14T14:26:40Z</time>
      </trkpt>
      <trkpt lat="43.7626" lon="5.22993">
        <ele>131.1</ele>
        <time>2016-02-14T14:26:46Z</time>
      </trkpt>
      <trkpt lat="43.76268" lon="5.22985">
        <ele>131.3</ele>
        <time>2016-02-14T14:26:51Z</time>
      </trkpt>
      <trkpt lat="43.76275" lon="5.22976">
        <ele>131.9</ele>
        <time>2016-02-14T14:27:00Z</time>
      </trkpt>
      <trkpt lat="43.76284" lon="5.22969">
        <ele>132.2</ele>
        <time>2016-02-14T14:27:06Z</time>
      </trkpt>
      <trkpt lat="43.76292" lon="5.22961">
        <ele>132.5</ele>
        <time>2016-02-14T14:27:11Z</time>
      </trkpt>
      <trkpt lat="43.76299" lon="5.22951">
        <ele>132.7</ele>
        <time>2016-02-14T14:27:15Z</time>
      </trkpt>
      <trkpt lat="43.76301" lon="5.22937">
        <ele>133.1</ele>
        <time>2016-02-14T14:27:20Z</time>
      </trkpt>
      <trkpt lat="43.763" lon="5.22923">
        <ele>133.5</ele>
        <time>2016-02-14T14:27:24Z</time>
      </trkpt>
      <trkpt lat="43.76305" lon="5.22912">
        <ele>133.9</ele>
        <time>2016-02-14T14:27:28Z</time>
      </trkpt>
      <trkpt lat="43.76309" lon="5.229">
        <ele>134.4</ele>
        <time>2016-02-14T14:27:33Z</time>
      </trkpt>
      <trkpt lat="43.76317" lon="5.2289">
        <ele>135.1</ele>
        <time>2016-02-14T14:27:38Z</time>
      </trkpt>
      <trkpt lat="43.76322" lon="5.22875">
        <ele>135.5</ele>
        <time>2016-02-14T14:27:41Z</time>
      </trkpt>
      <trkpt lat="43.76325" lon="5.22861">
        <ele>136.1</ele>
        <time>2016-02-14T14:27:46Z</time>
      </trkpt>
      <trkpt lat="43.76332" lon="5.22851">
        <ele>137.3</ele>
        <time>2016-02-14T14:27:59Z</time>
      </trkpt>
      <trkpt lat="43.76337" lon="5.2284">
        <ele>137.7</ele>
        <time>2016-02-14T14:28:04Z</time>
      </trkpt>
      <trkpt lat="43.76342" lon="5.22828">
        <ele>138</ele>
        <time>2016-02-14T14:28:08Z</time>
      </trkpt>
      <trkpt lat="43.76349" lon="5.22816">
        <ele>138.2</ele>
        <time>2016-02-14T14:28:10Z</time>
      </trkpt>
      <trkpt lat="43.76359" lon="5.22813">
        <ele>138.8</ele>
        <time>2016-02-14T14:28:15Z</time>
      </trkpt>
      <trkpt lat="43.76363" lon="5.22801">
        <ele>139.3</ele>
        <time>2016-02-14T14:28:21Z</time>
      </trkpt>
      <trkpt lat="43.76366" lon="5.22788">
        <ele>139.6</ele>
        <time>2016-02-14T14:28:24Z</time>
      </trkpt>
      <trkpt lat="43.76377" lon="5.22784">
        <ele>140.4</ele>
        <time>2016-02-14T14:28:29Z</time>
      </trkpt>
      <trkpt lat="43.76388" lon="5.22782">
        <ele>140.6</ele>
        <time>2016-02-14T14:28:33Z</time>
      </trkpt>
      <trkpt lat="43.76387" lon="5.22769">
        <ele>141</ele>
        <time>2016-02-14T14:28:37Z</time>
      </trkpt>
      <trkpt lat="43.76389" lon="5.22757">
        <ele>141.6</ele>
        <time>2016-02-14T14:28:44Z</time>
      </trkpt>
      <trkpt lat="43.76393" lon="5.22745">
        <ele>142.1</ele>
        <time>2016-02-14T14:28:51Z</time>
      </trkpt>
      <trkpt lat="43.76399" lon="5.22734">
        <ele>143.1</ele>
        <time>2016-02-14T14:29:00Z</time>
      </trkpt>
      <trkpt lat="43.76408" lon="5.22732">
        <ele>143.7</ele>
        <time>2016-02-14T14:29:06Z</time>
      </trkpt>
      <trkpt lat="43.76414" lon="5.22722">
        <ele>145.2</ele>
        <time>2016-02-14T14:29:20Z</time>
      </trkpt>
      <trkpt lat="43.76422" lon="5.22711">
        <ele>145.9</ele>
        <time>2016-02-14T14:29:26Z</time>
      </trkpt>
      <trkpt lat="43.7643" lon="5.22702">
        <ele>146.4</ele>
        <time>2016-02-14T14:29:31Z</time>
      </trkpt>
      <trkpt lat="43.76438" lon="5.22693">
        <ele>147.2</ele>
        <time>2016-02-14T14:29:37Z</time>
      </trkpt>
      <trkpt lat="43.76445" lon="5.22685">
        <ele>147.9</ele>
        <time>2016-02-14T14:29:42Z</time>
      </trkpt>
      <trkpt lat="43.76451" lon="5.22674">
        <ele>148.8</ele>
        <time>2016-02-14T14:29:48Z</time>
      </trkpt>
      <trkpt lat="43.76455" lon="5.22662">
        <ele>149.4</ele>
        <time>2016-02-14T14:29:54Z</time>
      </trkpt>
      <trkpt lat="43.76459" lon="5.2265">
        <ele>150</ele>
        <time>2016-02-14T14:30:01Z</time>
      </trkpt>
      <trkpt lat="43.76461" lon="5.22638">
        <ele>150.7</ele>
        <time>2016-02-14T14:30:09Z</time>
      </trkpt>
      <trkpt lat="43.76468" lon="5.22627">
        <ele>151.5</ele>
        <time>2016-02-14T14:30:18Z</time>
      </trkpt>
      <trkpt lat="43.76473" lon="5.22617">
        <ele>152</ele>
        <time>2016-02-14T14:30:24Z</time>
      </trkpt>
      <trkpt lat="43.76478" lon="5.22606">
        <ele>152.4</ele>
        <time>2016-02-14T14:30:30Z</time>
      </trkpt>
      <trkpt lat="43.76483" lon="5.22593">
        <ele>152.9</ele>
        <time>2016-02-14T14:30:37Z</time>
      </trkpt>
      <trkpt lat="43.76488" lon="5.22581">
        <ele>153.2</ele>
        <time>2016-02-14T14:30:42Z</time>
      </trkpt>
      <trkpt lat="43.76497" lon="5.22573">
        <ele>153.6</ele>
        <time>2016-02-14T14:30:50Z</time>
      </trkpt>
      <trkpt lat="43.76501" lon="5.22561">
        <ele>153.9</ele>
        <time>2016-02-14T14:30:56Z</time>
      </trkpt>
      <trkpt lat="43.76505" lon="5.2255">
        <ele>154.3</ele>
        <time>2016-02-14T14:31:03Z</time>
      </trkpt>
      <trkpt lat="43.76506" lon="5.22537">
        <ele>154.9</ele>
        <time>2016-02-14T14:31:10Z</time>
      </trkpt>
      <trkpt lat="43.76509" lon="5.22524">
        <ele>155.7</ele>
        <time>2016-02-14T14:31:17Z</time>
      </trkpt>
      <trkpt lat="43.76515" lon="5.22513">
        <ele>156.3</ele>
        <time>2016-02-14T14:31:25Z</time>
      </trkpt>
      <trkpt lat="43.76523" lon="5.22505">
        <ele>156.7</ele>
        <time>2016-02-14T14:31:32Z</time>
      </trkpt>
      <trkpt lat="43.76531" lon="5.22498">
        <ele>157.3</ele>
        <time>2016-02-14T14:31:39Z</time>
      </trkpt>
      <trkpt lat="43.76539" lon="5.22489">
        <ele>157.7</ele>
        <time>2016-02-14T14:31:45Z</time>
      </trkpt>
      <trkpt lat="43.76546" lon="5.2248">
        <ele>158.1</ele>
        <time>2016-02-14T14:31:49Z</time>
      </trkpt>
      <trkpt lat="43.76555" lon="5.22475">
        <ele>158.9</ele>
        <time>2016-02-14T14:31:57Z</time>
      </trkpt>
      <trkpt lat="43.76564" lon="5.22472">
        <ele>159.8</ele>
        <time>2016-02-14T14:32:05Z</time>
      </trkpt>
      <trkpt lat="43.76573" lon="5.22469">
        <ele>160.5</ele>
        <time>2016-02-14T14:32:11Z</time>
      </trkpt>
      <trkpt lat="43.76583" lon="5.22468">
        <ele>161.1</ele>
        <time>2016-02-14T14:32:19Z</time>
      </trkpt>
      <trkpt lat="43.76593" lon="5.22472">
        <ele>161.6</ele>
        <time>2016-02-14T14:32:26Z</time>
      </trkpt>
      <trkpt lat="43.76602" lon="5.22476">
        <ele>162.3</ele>
        <time>2016-02-14T14:32:33Z</time>
      </trkpt>
      <trkpt lat="43.7661" lon="5.22484">
        <ele>162.8</ele>
        <time>2016-02-14T14:32:38Z</time>
      </trkpt>
      <trkpt lat="43.76617" lon="5.22492">
        <ele>163.2</ele>
        <time>2016-02-14T14:32:43Z</time>
      </trkpt>
      <trkpt lat="43.76623" lon="5.22504">
        <ele>163.7</ele>
        <time>2016-02-14T14:32:49Z</time>
      </trkpt>
      <trkpt lat="43.7663" lon="5.22513">
        <ele>164.2</ele>
        <time>2016-02-14T14:32:57Z</time>
      </trkpt>
      <trkpt lat="43.7664" lon="5.22511">
        <ele>164.9</ele>
        <time>2016-02-14T14:33:03Z</time>
      </trkpt>
      <trkpt lat="43.7665" lon="5.22506">
        <ele>165.8</ele>
        <time>2016-02-14T14:33:09Z</time>
      </trkpt>
      <trkpt lat="43.76659" lon="5.22501">
        <ele>167.1</ele>
        <time>2016-02-14T14:33:17Z</time>
      </trkpt>
      <trkpt lat="43.76667" lon="5.2249">
        <ele>167.7</ele>
        <time>2016-02-14T14:33:21Z</time>
      </trkpt>
      <trkpt lat="43.76669" lon="5.22477">
        <ele>168.1</ele>
        <time>2016-02-14T14:33:24Z</time>
      </trkpt>
      <trkpt lat="43.76676" lon="5.22467">
        <ele>169.2</ele>
        <time>2016-02-14T14:33:32Z</time>
      </trkpt>
      <trkpt lat="43.76681" lon="5.22456">
        <ele>170.1</ele>
        <time>2016-02-14T14:33:40Z</time>
      </trkpt>
      <trkpt lat="43.76687" lon="5.22448">
        <ele>170.9</ele>
        <time>2016-02-14T14:33:46Z</time>
      </trkpt>
      <trkpt lat="43.76694" lon="5.22437">
        <ele>171.5</ele>
        <time>2016-02-14T14:33:51Z</time>
      </trkpt>
      <trkpt lat="43.76698" lon="5.22424">
        <ele>172</ele>
        <time>2016-02-14T14:33:56Z</time>
      </trkpt>
      <trkpt lat="43.76703" lon="5.22413">
        <ele>172.5</ele>
        <time>2016-02-14T14:34:02Z</time>
      </trkpt>
      <trkpt lat="43.76707" lon="5.22401">
        <ele>173.2</ele>
        <time>2016-02-14T14:34:09Z</time>
      </trkpt>
      <trkpt lat="43.76712" lon="5.22388">
        <ele>173.8</ele>
        <time>2016-02-14T14:34:16Z</time>
      </trkpt>
      <trkpt lat="43.76716" lon="5.22376">
        <ele>174.3</ele>
        <time>2016-02-14T14:34:22Z</time>
      </trkpt>
      <trkpt lat="43.76718" lon="5.22363">
        <ele>174.8</ele>
        <time>2016-02-14T14:34:29Z</time>
      </trkpt>
      <trkpt lat="43.76722" lon="5.22351">
        <ele>175.3</ele>
        <time>2016-02-14T14:34:36Z</time>
      </trkpt>
      <trkpt lat="43.76725" lon="5.22337">
        <ele>175.7</ele>
        <time>2016-02-14T14:34:42Z</time>
      </trkpt>
      <trkpt lat="43.76728" lon="5.22324">
        <ele>176.2</ele>
        <time>2016-02-14T14:34:50Z</time>
      </trkpt>
      <trkpt lat="43.76734" lon="5.22314">
        <ele>176.6</ele>
        <time>2016-02-14T14:34:56Z</time>
      </trkpt>
      <trkpt lat="43.76742" lon="5.22305">
        <ele>176.8</ele>
        <time>2016-02-14T14:35:01Z</time>
      </trkpt>
      <trkpt lat="43.76748" lon="5.22294">
        <ele>177.2</ele>
        <time>2016-02-14T14:35:07Z</time>
      </trkpt>
      <trkpt lat="43.76756" lon="5.22283">
        <ele>177.5</ele>
        <time>2016-02-14T14:35:13Z</time>
      </trkpt>
      <trkpt lat="43.76762" lon="5.22273">
        <ele>178.1</ele>
        <time>2016-02-14T14:35:20Z</time>
      </trkpt>
      <trkpt lat="43.76769" lon="5.22264">
        <ele>178.8</ele>
        <time>2016-02-14T14:35:29Z</time>
      </trkpt>
      <trkpt lat="43.76777" lon="5.22256">
        <ele>179.3</ele>
        <time>2016-02-14T14:35:36Z</time>
      </trkpt>
      <trkpt lat="43.76785" lon="5.22248">
        <ele>179.9</ele>
        <time>2016-02-14T14:35:43Z</time>
      </trkpt>
      <trkpt lat="43.76793" lon="5.2224">
        <ele>181</ele>
        <time>2016-02-14T14:35:54Z</time>
      </trkpt>
      <trkpt lat="43.76801" lon="5.2223">
        <ele>181.9</ele>
        <time>2016-02-14T14:36:03Z</time>
      </trkpt>
      <trkpt lat="43.76809" lon="5.22226">
        <ele>182.5</ele>
        <time>2016-02-14T14:36:10Z</time>
      </trkpt>
      <trkpt lat="43.76819" lon="5.22223">
        <ele>183.6</ele>
        <time>2016-02-14T14:36:17Z</time>
      </trkpt>
      <trkpt lat="43.76828" lon="5.22222">
        <ele>184.1</ele>
        <time>2016-02-14T14:36:21Z</time>
      </trkpt>
      <trkpt lat="43.76839" lon="5.22217">
        <ele>184.8</ele>
        <time>2016-02-14T14:36:28Z</time>
      </trkpt>
      <trkpt lat="43.76848" lon="5.22216">
        <ele>185.3</ele>
        <time>2016-02-14T14:36:34Z</time>
      </trkpt>
      <trkpt lat="43.76857" lon="5.22215">
        <ele>186.1</ele>
        <time>2016-02-14T14:36:39Z</time>
      </trkpt>
      <trkpt lat="43.76867" lon="5.22214">
        <ele>186.9</ele>
        <time>2016-02-14T14:36:44Z</time>
      </trkpt>
      <trkpt lat="43.76874" lon="5.22205">
        <ele>190.1</ele>
        <time>2016-02-14T14:37:02Z</time>
      </trkpt>
      <trkpt lat="43.76884" lon="5.22206">
        <ele>192</ele>
        <time>2016-02-14T14:37:11Z</time>
      </trkpt>
      <trkpt lat="43.7689" lon="5.22216">
        <ele>194.5</ele>
        <time>2016-02-14T14:37:21Z</time>
      </trkpt>
      <trkpt lat="43.76883" lon="5.22228">
        <ele>197.5</ele>
        <time>2016-02-14T14:37:29Z</time>
      </trkpt>
      <trkpt lat="43.76874" lon="5.22226">
        <ele>199.9</ele>
        <time>2016-02-14T14:37:35Z</time>
      </trkpt>
      <trkpt lat="43.76877" lon="5.22241">
        <ele>202.5</ele>
        <time>2016-02-14T14:37:42Z</time>
      </trkpt>
      <trkpt lat="43.76878" lon="5.22255">
        <ele>204.5</ele>
        <time>2016-02-14T14:37:47Z</time>
      </trkpt>
      <trkpt lat="43.76879" lon="5.22268">
        <ele>207.9</ele>
        <time>2016-02-14T14:37:55Z</time>
      </trkpt>
      <trkpt lat="43.76873" lon="5.22279">
        <ele>211.8</ele>
        <time>2016-02-14T14:38:08Z</time>
      </trkpt>
      <trkpt lat="43.76867" lon="5.22289">
        <ele>213.5</ele>
        <time>2016-02-14T14:38:14Z</time>
      </trkpt>
      <trkpt lat="43.76859" lon="5.223">
        <ele>216.7</ele>
        <time>2016-02-14T14:38:23Z</time>
      </trkpt>
      <trkpt lat="43.76855" lon="5.22311">
        <ele>220</ele>
        <time>2016-02-14T14:38:32Z</time>
      </trkpt>
      <trkpt lat="43.7685" lon="5.22321">
        <ele>222.2</ele>
        <time>2016-02-14T14:38:38Z</time>
      </trkpt>
      <trkpt lat="43.76844" lon="5.22332">
        <ele>225.5</ele>
        <time>2016-02-14T14:38:46Z</time>
      </trkpt>
      <trkpt lat="43.76844" lon="5.22345">
        <ele>228.8</ele>
        <time>2016-02-14T14:38:57Z</time>
      </trkpt>
      <trkpt lat="43.76853" lon="5.22351">
        <ele>231.1</ele>
        <time>2016-02-14T14:39:04Z</time>
      </trkpt>
      <trkpt lat="43.76858" lon="5.22361">
        <ele>233.7</ele>
        <time>2016-02-14T14:39:11Z</time>
      </trkpt>
      <trkpt lat="43.76867" lon="5.22373">
        <ele>235.2</ele>
        <time>2016-02-14T14:39:15Z</time>
      </trkpt>
      <trkpt lat="43.76871" lon="5.22385">
        <ele>237.2</ele>
        <time>2016-02-14T14:39:20Z</time>
      </trkpt>
      <trkpt lat="43.76872" lon="5.22399">
        <ele>241.1</ele>
        <time>2016-02-14T14:39:30Z</time>
      </trkpt>
      <trkpt lat="43.76873" lon="5.22412">
        <ele>243.8</ele>
        <time>2016-02-14T14:39:38Z</time>
      </trkpt>
      <trkpt lat="43.76875" lon="5.22426">
        <ele>246.1</ele>
        <time>2016-02-14T14:39:46Z</time>
      </trkpt>
      <trkpt lat="43.76874" lon="5.2244">
        <ele>249.1</ele>
        <time>2016-02-14T14:39:57Z</time>
      </trkpt>
      <trkpt lat="43.76877" lon="5.22454">
        <ele>249.8</ele>
        <time>2016-02-14T14:40:00Z</time>
      </trkpt>
      <trkpt lat="43.76887" lon="5.22462">
        <ele>250.6</ele>
        <time>2016-02-14T14:40:04Z</time>
      </trkpt>
      <trkpt lat="43.76894" lon="5.22471">
        <ele>251.3</ele>
        <time>2016-02-14T14:40:08Z</time>
      </trkpt>
      <trkpt lat="43.76898" lon="5.22482">
        <ele>252.5</ele>
        <time>2016-02-14T14:40:17Z</time>
      </trkpt>
      <trkpt lat="43.76898" lon="5.22495">
        <ele>253.6</ele>
        <time>2016-02-14T14:40:23Z</time>
      </trkpt>
      <trkpt lat="43.769" lon="5.22509">
        <ele>254.5</ele>
        <time>2016-02-14T14:40:31Z</time>
      </trkpt>
      <trkpt lat="43.76899" lon="5.22522">
        <ele>254.8</ele>
        <time>2016-02-14T14:40:39Z</time>
      </trkpt>
      <trkpt lat="43.76898" lon="5.22534">
        <ele>254.4</ele>
        <time>2016-02-14T14:40:47Z</time>
      </trkpt>
      <trkpt lat="43.76899" lon="5.22547">
        <ele>253.3</ele>
        <time>2016-02-14T14:40:55Z</time>
      </trkpt>
      <trkpt lat="43.76902" lon="5.2256">
        <ele>252.4</ele>
        <time>2016-02-14T14:41:01Z</time>
      </trkpt>
      <trkpt lat="43.76905" lon="5.22574">
        <ele>250.8</ele>
        <time>2016-02-14T14:41:09Z</time>
      </trkpt>
      <trkpt lat="43.76907" lon="5.22587">
        <ele>249.4</ele>
        <time>2016-02-14T14:41:17Z</time>
      </trkpt>
      <trkpt lat="43.76916" lon="5.2259">
        <ele>247.3</ele>
        <time>2016-02-14T14:41:29Z</time>
      </trkpt>
      <trkpt lat="43.76922" lon="5.226">
        <ele>245.9</ele>
        <time>2016-02-14T14:41:40Z</time>
      </trkpt>
      <trkpt lat="43.76922" lon="5.22615">
        <ele>244.3</ele>
        <time>2016-02-14T14:41:47Z</time>
      </trkpt>
      <trkpt lat="43.76916" lon="5.22627">
        <ele>242.1</ele>
        <time>2016-02-14T14:41:57Z</time>
      </trkpt>
      <trkpt lat="43.76908" lon="5.22633">
        <ele>240.4</ele>
        <time>2016-02-14T14:42:05Z</time>
      </trkpt>
      <trkpt lat="43.769" lon="5.22639">
        <ele>238.4</ele>
        <time>2016-02-14T14:42:14Z</time>
      </trkpt>
      <trkpt lat="43.76892" lon="5.22646">
        <ele>236.3</ele>
        <time>2016-02-14T14:42:23Z</time>
      </trkpt>
      <trkpt lat="43.76883" lon="5.2265">
        <ele>232.9</ele>
        <time>2016-02-14T14:42:39Z</time>
      </trkpt>
      <trkpt lat="43.76876" lon="5.22657">
        <ele>231.7</ele>
        <time>2016-02-14T14:42:46Z</time>
      </trkpt>
      <trkpt lat="43.76869" lon="5.22666">
        <ele>229.8</ele>
        <time>2016-02-14T14:42:54Z</time>
      </trkpt>
      <trkpt lat="43.76864" lon="5.22678">
        <ele>227.8</ele>
        <time>2016-02-14T14:43:03Z</time>
      </trkpt>
      <trkpt lat="43.76859" lon="5.2269">
        <ele>226.5</ele>
        <time>2016-02-14T14:43:08Z</time>
      </trkpt>
      <trkpt lat="43.76859" lon="5.22703">
        <ele>225.1</ele>
        <time>2016-02-14T14:43:14Z</time>
      </trkpt>
      <trkpt lat="43.76857" lon="5.22717">
        <ele>223.9</ele>
        <time>2016-02-14T14:43:20Z</time>
      </trkpt>
      <trkpt lat="43.76856" lon="5.2273">
        <ele>222.7</ele>
        <time>2016-02-14T14:43:26Z</time>
      </trkpt>
      <trkpt lat="43.76856" lon="5.22743">
        <ele>221.8</ele>
        <time>2016-02-14T14:43:31Z</time>
      </trkpt>
      <trkpt lat="43.7685" lon="5.22753">
        <ele>220.7</ele>
        <time>2016-02-14T14:43:37Z</time>
      </trkpt>
      <trkpt lat="43.76846" lon="5.22765">
        <ele>219.8</ele>
        <time>2016-02-14T14:43:42Z</time>
      </trkpt>
      <trkpt lat="43.76841" lon="5.22776">
        <ele>218.6</ele>
        <time>2016-02-14T14:43:50Z</time>
      </trkpt>
      <trkpt lat="43.76837" lon="5.22789">
        <ele>217.4</ele>
        <time>2016-02-14T14:43:58Z</time>
      </trkpt>
      <trkpt lat="43.76835" lon="5.22803">
        <ele>216.5</ele>
        <time>2016-02-14T14:44:05Z</time>
      </trkpt>
      <trkpt lat="43.7683" lon="5.22813">
        <ele>215.8</ele>
        <time>2016-02-14T14:44:11Z</time>
      </trkpt>
      <trkpt lat="43.76829" lon="5.22826">
        <ele>214.7</ele>
        <time>2016-02-14T14:44:20Z</time>
      </trkpt>
      <trkpt lat="43.76828" lon="5.22839">
        <ele>213.8</ele>
        <time>2016-02-14T14:44:28Z</time>
      </trkpt>
      <trkpt lat="43.76829" lon="5.22854">
        <ele>212.9</ele>
        <time>2016-02-14T14:44:34Z</time>
      </trkpt>
      <trkpt lat="43.76826" lon="5.22867">
        <ele>211.7</ele>
        <time>2016-02-14T14:44:42Z</time>
      </trkpt>
      <trkpt lat="43.76821" lon="5.22878">
        <ele>210.3</ele>
        <time>2016-02-14T14:44:50Z</time>
      </trkpt>
      <trkpt lat="43.76821" lon="5.22891">
        <ele>209</ele>
        <time>2016-02-14T14:44:58Z</time>
      </trkpt>
      <trkpt lat="43.76819" lon="5.22904">
        <ele>208</ele>
        <time>2016-02-14T14:45:05Z</time>
      </trkpt>
      <trkpt lat="43.76815" lon="5.22917">
        <ele>207</ele>
        <time>2016-02-14T14:45:12Z</time>
      </trkpt>
      <trkpt lat="43.76812" lon="5.2293">
        <ele>206.2</ele>
        <time>2016-02-14T14:45:19Z</time>
      </trkpt>
      <trkpt lat="43.76809" lon="5.22943">
        <ele>205.4</ele>
        <time>2016-02-14T14:45:25Z</time>
      </trkpt>
      <trkpt lat="43.76803" lon="5.22953">
        <ele>204.6</ele>
        <time>2016-02-14T14:45:31Z</time>
      </trkpt>
      <trkpt lat="43.76797" lon="5.22965">
        <ele>203.8</ele>
        <time>2016-02-14T14:45:37Z</time>
      </trkpt>
      <trkpt lat="43.76792" lon="5.22976">
        <ele>202.8</ele>
        <time>2016-02-14T14:45:44Z</time>
      </trkpt>
      <trkpt lat="43.76787" lon="5.22987">
        <ele>201.4</ele>
        <time>2016-02-14T14:45:52Z</time>
      </trkpt>
      <trkpt lat="43.76785" lon="5.22999">
        <ele>199.9</ele>
        <time>2016-02-14T14:46:00Z</time>
      </trkpt>
      <trkpt lat="43.76787" lon="5.23012">
        <ele>198.7</ele>
        <time>2016-02-14T14:46:06Z</time>
      </trkpt>
      <trkpt lat="43.76791" lon="5.23024">
        <ele>197.5</ele>
        <time>2016-02-14T14:46:13Z</time>
      </trkpt>
      <trkpt lat="43.76802" lon="5.23027">
        <ele>196.4</ele>
        <time>2016-02-14T14:46:18Z</time>
      </trkpt>
      <trkpt lat="43.76812" lon="5.23033">
        <ele>195.3</ele>
        <time>2016-02-14T14:46:25Z</time>
      </trkpt>
      <trkpt lat="43.76804" lon="5.23039">
        <ele>194.9</ele>
        <time>2016-02-14T14:46:34Z</time>
      </trkpt>
      <trkpt lat="43.76815" lon="5.23036">
        <ele>196.8</ele>
        <time>2016-02-14T14:48:03Z</time>
      </trkpt>
      <trkpt lat="43.76807" lon="5.23042">
        <ele>201.3</ele>
        <time>2016-02-14T14:49:07Z</time>
      </trkpt>
      <trkpt lat="43.76802" lon="5.23054">
        <ele>202.3</ele>
        <time>2016-02-14T14:49:13Z</time>
      </trkpt>
      <trkpt lat="43.76801" lon="5.23068">
        <ele>203.8</ele>
        <time>2016-02-14T14:49:19Z</time>
      </trkpt>
      <trkpt lat="43.76794" lon="5.23078">
        <ele>208.1</ele>
        <time>2016-02-14T14:49:33Z</time>
      </trkpt>
      <trkpt lat="43.76792" lon="5.2309">
        <ele>210.7</ele>
        <time>2016-02-14T14:49:40Z</time>
      </trkpt>
      <trkpt lat="43.76787" lon="5.23101">
        <ele>214.4</ele>
        <time>2016-02-14T14:49:49Z</time>
      </trkpt>
      <trkpt lat="43.76785" lon="5.23115">
        <ele>216.9</ele>
        <time>2016-02-14T14:49:57Z</time>
      </trkpt>
      <trkpt lat="43.76781" lon="5.23126">
        <ele>220.3</ele>
        <time>2016-02-14T14:50:05Z</time>
      </trkpt>
      <trkpt lat="43.76775" lon="5.23136">
        <ele>223.8</ele>
        <time>2016-02-14T14:50:15Z</time>
      </trkpt>
      <trkpt lat="43.76771" lon="5.23148">
        <ele>226.2</ele>
        <time>2016-02-14T14:50:23Z</time>
      </trkpt>
      <trkpt lat="43.76765" lon="5.23158">
        <ele>227.6</ele>
        <time>2016-02-14T14:50:28Z</time>
      </trkpt>
      <trkpt lat="43.76757" lon="5.23165">
        <ele>229</ele>
        <time>2016-02-14T14:50:34Z</time>
      </trkpt>
      <trkpt lat="43.7675" lon="5.23174">
        <ele>231.1</ele>
        <time>2016-02-14T14:50:42Z</time>
      </trkpt>
      <trkpt lat="43.76742" lon="5.23182">
        <ele>232.9</ele>
        <time>2016-02-14T14:50:51Z</time>
      </trkpt>
      <trkpt lat="43.76733" lon="5.23187">
        <ele>236.2</ele>
        <time>2016-02-14T14:51:16Z</time>
      </trkpt>
      <trkpt lat="43.76728" lon="5.23198">
        <ele>248.3</ele>
        <time>2016-02-14T14:54:34Z</time>
      </trkpt>
      <trkpt lat="43.76723" lon="5.2321">
        <ele>248.7</ele>
        <time>2016-02-14T14:54:41Z</time>
      </trkpt>
      <trkpt lat="43.76718" lon="5.23221">
        <ele>249.1</ele>
        <time>2016-02-14T14:54:48Z</time>
      </trkpt>
      <trkpt lat="43.76714" lon="5.23233">
        <ele>249.5</ele>
        <time>2016-02-14T14:54:55Z</time>
      </trkpt>
      <trkpt lat="43.76711" lon="5.23244">
        <ele>249.7</ele>
        <time>2016-02-14T14:55:02Z</time>
      </trkpt>
      <trkpt lat="43.76707" lon="5.23257">
        <ele>249.8</ele>
        <time>2016-02-14T14:55:07Z</time>
      </trkpt>
      <trkpt lat="43.76706" lon="5.23271">
        <ele>250</ele>
        <time>2016-02-14T14:55:13Z</time>
      </trkpt>
      <trkpt lat="43.76704" lon="5.23285">
        <ele>250.2</ele>
        <time>2016-02-14T14:55:20Z</time>
      </trkpt>
      <trkpt lat="43.76701" lon="5.23298">
        <ele>250.3</ele>
        <time>2016-02-14T14:55:26Z</time>
      </trkpt>
      <trkpt lat="43.767" lon="5.23311">
        <ele>250.1</ele>
        <time>2016-02-14T14:55:32Z</time>
      </trkpt>
      <trkpt lat="43.76702" lon="5.23324">
        <ele>250</ele>
        <time>2016-02-14T14:55:37Z</time>
      </trkpt>
      <trkpt lat="43.76704" lon="5.23338">
        <ele>250</ele>
        <time>2016-02-14T14:55:43Z</time>
      </trkpt>
      <trkpt lat="43.767" lon="5.23352">
        <ele>249.9</ele>
        <time>2016-02-14T14:55:48Z</time>
      </trkpt>
      <trkpt lat="43.76694" lon="5.23363">
        <ele>249.8</ele>
        <time>2016-02-14T14:55:52Z</time>
      </trkpt>
      <trkpt lat="43.76688" lon="5.23373">
        <ele>249.8</ele>
        <time>2016-02-14T14:55:56Z</time>
      </trkpt>
      <trkpt lat="43.76683" lon="5.23385">
        <ele>249.7</ele>
        <time>2016-02-14T14:56:01Z</time>
      </trkpt>
      <trkpt lat="43.76677" lon="5.23397">
        <ele>249.4</ele>
        <time>2016-02-14T14:56:06Z</time>
      </trkpt>
      <trkpt lat="43.76671" lon="5.23408">
        <ele>249.2</ele>
        <time>2016-02-14T14:56:14Z</time>
      </trkpt>
      <trkpt lat="43.76674" lon="5.23421">
        <ele>249.2</ele>
        <time>2016-02-14T14:56:21Z</time>
      </trkpt>
      <trkpt lat="43.76679" lon="5.23433">
        <ele>249.3</ele>
        <time>2016-02-14T14:56:27Z</time>
      </trkpt>
      <trkpt lat="43.76683" lon="5.23446">
        <ele>249.3</ele>
        <time>2016-02-14T14:56:33Z</time>
      </trkpt>
      <trkpt lat="43.76685" lon="5.23459">
        <ele>249.3</ele>
        <time>2016-02-14T14:56:39Z</time>
      </trkpt>
      <trkpt lat="43.76689" lon="5.23472">
        <ele>249.3</ele>
        <time>2016-02-14T14:56:47Z</time>
      </trkpt>
      <trkpt lat="43.76694" lon="5.23482">
        <ele>249.3</ele>
        <time>2016-02-14T14:56:53Z</time>
      </trkpt>
      <trkpt lat="43.767" lon="5.23491">
        <ele>249.1</ele>
        <time>2016-02-14T14:56:59Z</time>
      </trkpt>
      <trkpt lat="43.76704" lon="5.23503">
        <ele>248.7</ele>
        <time>2016-02-14T14:57:05Z</time>
      </trkpt>
      <trkpt lat="43.7671" lon="5.23515">
        <ele>248.1</ele>
        <time>2016-02-14T14:57:14Z</time>
      </trkpt>
      <trkpt lat="43.76715" lon="5.23526">
        <ele>247.2</ele>
        <time>2016-02-14T14:57:20Z</time>
      </trkpt>
      <trkpt lat="43.76721" lon="5.23538">
        <ele>246.1</ele>
        <time>2016-02-14T14:57:26Z</time>
      </trkpt>
      <trkpt lat="43.76728" lon="5.23546">
        <ele>245.3</ele>
        <time>2016-02-14T14:57:32Z</time>
      </trkpt>
      <trkpt lat="43.76735" lon="5.23556">
        <ele>244.8</ele>
        <time>2016-02-14T14:57:39Z</time>
      </trkpt>
      <trkpt lat="43.76741" lon="5.23567">
        <ele>244.5</ele>
        <time>2016-02-14T14:57:46Z</time>
      </trkpt>
      <trkpt lat="43.76747" lon="5.23577">
        <ele>244.5</ele>
        <time>2016-02-14T14:57:52Z</time>
      </trkpt>
      <trkpt lat="43.76752" lon="5.23587">
        <ele>244.6</ele>
        <time>2016-02-14T14:57:58Z</time>
      </trkpt>
      <trkpt lat="43.76755" lon="5.236">
        <ele>244.7</ele>
        <time>2016-02-14T14:58:05Z</time>
      </trkpt>
      <trkpt lat="43.76758" lon="5.23613">
        <ele>244.5</ele>
        <time>2016-02-14T14:58:11Z</time>
      </trkpt>
      <trkpt lat="43.76763" lon="5.23625">
        <ele>244.5</ele>
        <time>2016-02-14T14:58:17Z</time>
      </trkpt>
      <trkpt lat="43.7677" lon="5.23633">
        <ele>244.5</ele>
        <time>2016-02-14T14:58:23Z</time>
      </trkpt>
      <trkpt lat="43.76777" lon="5.23641">
        <ele>244.2</ele>
        <time>2016-02-14T14:58:29Z</time>
      </trkpt>
      <trkpt lat="43.7678" lon="5.23654">
        <ele>243.9</ele>
        <time>2016-02-14T14:58:33Z</time>
      </trkpt>
      <trkpt lat="43.76775" lon="5.23665">
        <ele>243.8</ele>
        <time>2016-02-14T14:58:36Z</time>
      </trkpt>
      <trkpt lat="43.76769" lon="5.23676">
        <ele>243.7</ele>
        <time>2016-02-14T14:58:39Z</time>
      </trkpt>
      <trkpt lat="43.76765" lon="5.23688">
        <ele>243.7</ele>
        <time>2016-02-14T14:58:44Z</time>
      </trkpt>
      <trkpt lat="43.76769" lon="5.237">
        <ele>243.8</ele>
        <time>2016-02-14T14:58:50Z</time>
      </trkpt>
      <trkpt lat="43.76777" lon="5.23708">
        <ele>243.9</ele>
        <time>2016-02-14T14:58:57Z</time>
      </trkpt>
      <trkpt lat="43.76785" lon="5.23715">
        <ele>243.8</ele>
        <time>2016-02-14T14:59:03Z</time>
      </trkpt>
      <trkpt lat="43.76791" lon="5.23725">
        <ele>244.5</ele>
        <time>2016-02-14T14:59:08Z</time>
      </trkpt>
      <trkpt lat="43.76799" lon="5.23734">
        <ele>245.2</ele>
        <time>2016-02-14T14:59:14Z</time>
      </trkpt>
      <trkpt lat="43.76809" lon="5.23737">
        <ele>245.7</ele>
        <time>2016-02-14T14:59:19Z</time>
      </trkpt>
      <trkpt lat="43.76819" lon="5.23739">
        <ele>246.1</ele>
        <time>2016-02-14T14:59:25Z</time>
      </trkpt>
      <trkpt lat="43.76829" lon="5.23747">
        <ele>246</ele>
        <time>2016-02-14T14:59:29Z</time>
      </trkpt>
      <trkpt lat="43.76832" lon="5.23759">
        <ele>246</ele>
        <time>2016-02-14T14:59:32Z</time>
      </trkpt>
      <trkpt lat="43.76832" lon="5.23772">
        <ele>246</ele>
        <time>2016-02-14T14:59:35Z</time>
      </trkpt>
      <trkpt lat="43.76834" lon="5.23787">
        <ele>246.2</ele>
        <time>2016-02-14T14:59:39Z</time>
      </trkpt>
      <trkpt lat="43.76837" lon="5.238">
        <ele>246.8</ele>
        <time>2016-02-14T14:59:44Z</time>
      </trkpt>
      <trkpt lat="43.7684" lon="5.23814">
        <ele>247.6</ele>
        <time>2016-02-14T14:59:50Z</time>
      </trkpt>
      <trkpt lat="43.76843" lon="5.23826">
        <ele>248.2</ele>
        <time>2016-02-14T14:59:55Z</time>
      </trkpt>
      <trkpt lat="43.76849" lon="5.23838">
        <ele>248.9</ele>
        <time>2016-02-14T15:00:01Z</time>
      </trkpt>
      <trkpt lat="43.76857" lon="5.23846">
        <ele>249.7</ele>
        <time>2016-02-14T15:00:08Z</time>
      </trkpt>
      <trkpt lat="43.76865" lon="5.23853">
        <ele>250.5</ele>
        <time>2016-02-14T15:00:15Z</time>
      </trkpt>
      <trkpt lat="43.76872" lon="5.23863">
        <ele>251.3</ele>
        <time>2016-02-14T15:00:22Z</time>
      </trkpt>
      <trkpt lat="43.76879" lon="5.23875">
        <ele>252.1</ele>
        <time>2016-02-14T15:00:27Z</time>
      </trkpt>
      <trkpt lat="43.76882" lon="5.23887">
        <ele>252.6</ele>
        <time>2016-02-14T15:00:31Z</time>
      </trkpt>
      <trkpt lat="43.76886" lon="5.23901">
        <ele>253.4</ele>
        <time>2016-02-14T15:00:37Z</time>
      </trkpt>
      <trkpt lat="43.7689" lon="5.23913">
        <ele>254.4</ele>
        <time>2016-02-14T15:00:44Z</time>
      </trkpt>
      <trkpt lat="43.76895" lon="5.23926">
        <ele>255.2</ele>
        <time>2016-02-14T15:00:50Z</time>
      </trkpt>
      <trkpt lat="43.76896" lon="5.23938">
        <ele>255.8</ele>
        <time>2016-02-14T15:00:55Z</time>
      </trkpt>
      <trkpt lat="43.76899" lon="5.23952">
        <ele>256.4</ele>
        <time>2016-02-14T15:01:02Z</time>
      </trkpt>
      <trkpt lat="43.76905" lon="5.23962">
        <ele>256.6</ele>
        <time>2016-02-14T15:01:07Z</time>
      </trkpt>
      <trkpt lat="43.7691" lon="5.23973">
        <ele>256.7</ele>
        <time>2016-02-14T15:01:12Z</time>
      </trkpt>
      <trkpt lat="43.76918" lon="5.23982">
        <ele>256.8</ele>
        <time>2016-02-14T15:01:17Z</time>
      </trkpt>
      <trkpt lat="43.76926" lon="5.23993">
        <ele>257</ele>
        <time>2016-02-14T15:01:21Z</time>
      </trkpt>
      <trkpt lat="43.76926" lon="5.24006">
        <ele>257.2</ele>
        <time>2016-02-14T15:01:24Z</time>
      </trkpt>
      <trkpt lat="43.76924" lon="5.2402">
        <ele>257.3</ele>
        <time>2016-02-14T15:01:27Z</time>
      </trkpt>
      <trkpt lat="43.76925" lon="5.24033">
        <ele>257.5</ele>
        <time>2016-02-14T15:01:30Z</time>
      </trkpt>
      <trkpt lat="43.76927" lon="5.24046">
        <ele>257.7</ele>
        <time>2016-02-14T15:01:34Z</time>
      </trkpt>
      <trkpt lat="43.76929" lon="5.24061">
        <ele>257.9</ele>
        <time>2016-02-14T15:01:39Z</time>
      </trkpt>
      <trkpt lat="43.76933" lon="5.24074">
        <ele>258.1</ele>
        <time>2016-02-14T15:01:43Z</time>
      </trkpt>
      <trkpt lat="43.76934" lon="5.24086">
        <ele>258.3</ele>
        <time>2016-02-14T15:01:48Z</time>
      </trkpt>
      <trkpt lat="43.7693" lon="5.24099">
        <ele>258.6</ele>
        <time>2016-02-14T15:01:53Z</time>
      </trkpt>
      <trkpt lat="43.7693" lon="5.24113">
        <ele>258.9</ele>
        <time>2016-02-14T15:01:58Z</time>
      </trkpt>
      <trkpt lat="43.76932" lon="5.24125">
        <ele>259.3</ele>
        <time>2016-02-14T15:02:03Z</time>
      </trkpt>
      <trkpt lat="43.76942" lon="5.2413">
        <ele>259.6</ele>
        <time>2016-02-14T15:02:08Z</time>
      </trkpt>
      <trkpt lat="43.76951" lon="5.24129">
        <ele>259.8</ele>
        <time>2016-02-14T15:02:12Z</time>
      </trkpt>
      <trkpt lat="43.76961" lon="5.24126">
        <ele>259.8</ele>
        <time>2016-02-14T15:02:16Z</time>
      </trkpt>
      <trkpt lat="43.7697" lon="5.24122">
        <ele>259.6</ele>
        <time>2016-02-14T15:02:20Z</time>
      </trkpt>
      <trkpt lat="43.76979" lon="5.24123">
        <ele>259</ele>
        <time>2016-02-14T15:02:26Z</time>
      </trkpt>
      <trkpt lat="43.76989" lon="5.24124">
        <ele>258.2</ele>
        <time>2016-02-14T15:02:32Z</time>
      </trkpt>
      <trkpt lat="43.76998" lon="5.24125">
        <ele>257.4</ele>
        <time>2016-02-14T15:02:37Z</time>
      </trkpt>
      <trkpt lat="43.77007" lon="5.24126">
        <ele>256.3</ele>
        <time>2016-02-14T15:02:44Z</time>
      </trkpt>
      <trkpt lat="43.77018" lon="5.24127">
        <ele>255</ele>
        <time>2016-02-14T15:02:51Z</time>
      </trkpt>
      <trkpt lat="43.77028" lon="5.2413">
        <ele>253.9</ele>
        <time>2016-02-14T15:02:56Z</time>
      </trkpt>
      <trkpt lat="43.77036" lon="5.24139">
        <ele>252.6</ele>
        <time>2016-02-14T15:03:03Z</time>
      </trkpt>
      <trkpt lat="43.77038" lon="5.24154">
        <ele>251.4</ele>
        <time>2016-02-14T15:03:09Z</time>
      </trkpt>
      <trkpt lat="43.77031" lon="5.24162">
        <ele>250.2</ele>
        <time>2016-02-14T15:03:15Z</time>
      </trkpt>
      <trkpt lat="43.7702" lon="5.24167">
        <ele>249.2</ele>
        <time>2016-02-14T15:03:21Z</time>
      </trkpt>
      <trkpt lat="43.7701" lon="5.24168">
        <ele>248.8</ele>
        <time>2016-02-14T15:03:26Z</time>
      </trkpt>
      <trkpt lat="43.77" lon="5.2417">
        <ele>248.4</ele>
        <time>2016-02-14T15:03:32Z</time>
      </trkpt>
      <trkpt lat="43.76989" lon="5.24171">
        <ele>247.9</ele>
        <time>2016-02-14T15:03:37Z</time>
      </trkpt>
      <trkpt lat="43.76979" lon="5.24172">
        <ele>247.2</ele>
        <time>2016-02-14T15:03:41Z</time>
      </trkpt>
      <trkpt lat="43.76969" lon="5.24173">
        <ele>246.6</ele>
        <time>2016-02-14T15:03:46Z</time>
      </trkpt>
      <trkpt lat="43.7696" lon="5.24173">
        <ele>246.1</ele>
        <time>2016-02-14T15:03:52Z</time>
      </trkpt>
      <trkpt lat="43.76949" lon="5.24172">
        <ele>245.9</ele>
        <time>2016-02-14T15:03:58Z</time>
      </trkpt>
      <trkpt lat="43.7694" lon="5.24172">
        <ele>245.7</ele>
        <time>2016-02-14T15:04:03Z</time>
      </trkpt>
      <trkpt lat="43.76931" lon="5.24176">
        <ele>245.6</ele>
        <time>2016-02-14T15:04:08Z</time>
      </trkpt>
      <trkpt lat="43.76921" lon="5.24178">
        <ele>245.3</ele>
        <time>2016-02-14T15:04:14Z</time>
      </trkpt>
      <trkpt lat="43.76912" lon="5.24182">
        <ele>244.9</ele>
        <time>2016-02-14T15:04:19Z</time>
      </trkpt>
      <trkpt lat="43.76903" lon="5.24187">
        <ele>244.5</ele>
        <time>2016-02-14T15:04:24Z</time>
      </trkpt>
      <trkpt lat="43.76893" lon="5.24189">
        <ele>244.2</ele>
        <time>2016-02-14T15:04:28Z</time>
      </trkpt>
      <trkpt lat="43.76883" lon="5.24189">
        <ele>243.8</ele>
        <time>2016-02-14T15:04:32Z</time>
      </trkpt>
      <trkpt lat="43.76874" lon="5.24184">
        <ele>243.4</ele>
        <time>2016-02-14T15:04:37Z</time>
      </trkpt>
      <trkpt lat="43.76865" lon="5.24178">
        <ele>242.9</ele>
        <time>2016-02-14T15:04:43Z</time>
      </trkpt>
      <trkpt lat="43.76858" lon="5.24169">
        <ele>242.3</ele>
        <time>2016-02-14T15:04:48Z</time>
      </trkpt>
      <trkpt lat="43.76847" lon="5.24164">
        <ele>241.7</ele>
        <time>2016-02-14T15:04:54Z</time>
      </trkpt>
      <trkpt lat="43.76838" lon="5.2416">
        <ele>241.3</ele>
        <time>2016-02-14T15:04:59Z</time>
      </trkpt>
      <trkpt lat="43.76827" lon="5.24157">
        <ele>240.9</ele>
        <time>2016-02-14T15:05:05Z</time>
      </trkpt>
      <trkpt lat="43.76819" lon="5.24151">
        <ele>240.5</ele>
        <time>2016-02-14T15:05:10Z</time>
      </trkpt>
      <trkpt lat="43.76811" lon="5.24145">
        <ele>240</ele>
        <time>2016-02-14T15:05:15Z</time>
      </trkpt>
      <trkpt lat="43.76802" lon="5.24141">
        <ele>239.4</ele>
        <time>2016-02-14T15:05:20Z</time>
      </trkpt>
      <trkpt lat="43.76794" lon="5.24132">
        <ele>238.8</ele>
        <time>2016-02-14T15:05:26Z</time>
      </trkpt>
      <trkpt lat="43.76786" lon="5.24124">
        <ele>237.7</ele>
        <time>2016-02-14T15:05:34Z</time>
      </trkpt>
      <trkpt lat="43.76777" lon="5.24114">
        <ele>237.2</ele>
        <time>2016-02-14T15:05:39Z</time>
      </trkpt>
      <trkpt lat="43.76771" lon="5.24103">
        <ele>236.5</ele>
        <time>2016-02-14T15:05:48Z</time>
      </trkpt>
      <trkpt lat="43.76763" lon="5.24093">
        <ele>235.8</ele>
        <time>2016-02-14T15:05:55Z</time>
      </trkpt>
      <trkpt lat="43.76757" lon="5.24084">
        <ele>235.1</ele>
        <time>2016-02-14T15:06:01Z</time>
      </trkpt>
      <trkpt lat="43.76748" lon="5.24078">
        <ele>234.6</ele>
        <time>2016-02-14T15:06:05Z</time>
      </trkpt>
      <trkpt lat="43.76739" lon="5.24074">
        <ele>234.2</ele>
        <time>2016-02-14T15:06:10Z</time>
      </trkpt>
      <trkpt lat="43.76729" lon="5.24067">
        <ele>233.4</ele>
        <time>2016-02-14T15:06:16Z</time>
      </trkpt>
      <trkpt lat="43.76719" lon="5.24063">
        <ele>232.9</ele>
        <time>2016-02-14T15:06:22Z</time>
      </trkpt>
      <trkpt lat="43.7671" lon="5.24064">
        <ele>232.5</ele>
        <time>2016-02-14T15:06:27Z</time>
      </trkpt>
      <trkpt lat="43.767" lon="5.24062">
        <ele>232.1</ele>
        <time>2016-02-14T15:06:32Z</time>
      </trkpt>
      <trkpt lat="43.7669" lon="5.24063">
        <ele>231.6</ele>
        <time>2016-02-14T15:06:39Z</time>
      </trkpt>
      <trkpt lat="43.76681" lon="5.24061">
        <ele>231.3</ele>
        <time>2016-02-14T15:06:45Z</time>
      </trkpt>
      <trkpt lat="43.76672" lon="5.2406">
        <ele>230.9</ele>
        <time>2016-02-14T15:06:51Z</time>
      </trkpt>
      <trkpt lat="43.76662" lon="5.24061">
        <ele>230.2</ele>
        <time>2016-02-14T15:06:57Z</time>
      </trkpt>
      <trkpt lat="43.76653" lon="5.24059">
        <ele>229.3</ele>
        <time>2016-02-14T15:07:03Z</time>
      </trkpt>
      <trkpt lat="43.76643" lon="5.24062">
        <ele>228.7</ele>
        <time>2016-02-14T15:07:10Z</time>
      </trkpt>
      <trkpt lat="43.76633" lon="5.24064">
        <ele>228.2</ele>
        <time>2016-02-14T15:07:18Z</time>
      </trkpt>
      <trkpt lat="43.76623" lon="5.24064">
        <ele>227.8</ele>
        <time>2016-02-14T15:07:24Z</time>
      </trkpt>
      <trkpt lat="43.76614" lon="5.24062">
        <ele>227.5</ele>
        <time>2016-02-14T15:07:28Z</time>
      </trkpt>
      <trkpt lat="43.76604" lon="5.24063">
        <ele>227.1</ele>
        <time>2016-02-14T15:07:34Z</time>
      </trkpt>
      <trkpt lat="43.76595" lon="5.2406">
        <ele>226.6</ele>
        <time>2016-02-14T15:07:40Z</time>
      </trkpt>
      <trkpt lat="43.76585" lon="5.24055">
        <ele>225.9</ele>
        <time>2016-02-14T15:07:47Z</time>
      </trkpt>
      <trkpt lat="43.76576" lon="5.24051">
        <ele>225.4</ele>
        <time>2016-02-14T15:07:53Z</time>
      </trkpt>
      <trkpt lat="43.76567" lon="5.24045">
        <ele>224.8</ele>
        <time>2016-02-14T15:07:59Z</time>
      </trkpt>
      <trkpt lat="43.76556" lon="5.24042">
        <ele>224.1</ele>
        <time>2016-02-14T15:08:06Z</time>
      </trkpt>
      <trkpt lat="43.76547" lon="5.24039">
        <ele>223.6</ele>
        <time>2016-02-14T15:08:12Z</time>
      </trkpt>
      <trkpt lat="43.76538" lon="5.24034">
        <ele>223.1</ele>
        <time>2016-02-14T15:08:18Z</time>
      </trkpt>
      <trkpt lat="43.76528" lon="5.24028">
        <ele>222.3</ele>
        <time>2016-02-14T15:08:25Z</time>
      </trkpt>
      <trkpt lat="43.76521" lon="5.2402">
        <ele>221.7</ele>
        <time>2016-02-14T15:08:30Z</time>
      </trkpt>
      <trkpt lat="43.76512" lon="5.24014">
        <ele>220.7</ele>
        <time>2016-02-14T15:08:36Z</time>
      </trkpt>
      <trkpt lat="43.76502" lon="5.24013">
        <ele>219.5</ele>
        <time>2016-02-14T15:08:43Z</time>
      </trkpt>
      <trkpt lat="43.76493" lon="5.24013">
        <ele>218.9</ele>
        <time>2016-02-14T15:08:49Z</time>
      </trkpt>
      <trkpt lat="43.76483" lon="5.24011">
        <ele>218.4</ele>
        <time>2016-02-14T15:08:55Z</time>
      </trkpt>
      <trkpt lat="43.76473" lon="5.24009">
        <ele>218.2</ele>
        <time>2016-02-14T15:09:00Z</time>
      </trkpt>
      <trkpt lat="43.76463" lon="5.24007">
        <ele>217.9</ele>
        <time>2016-02-14T15:09:06Z</time>
      </trkpt>
      <trkpt lat="43.76453" lon="5.24007">
        <ele>217.6</ele>
        <time>2016-02-14T15:09:12Z</time>
      </trkpt>
      <trkpt lat="43.76444" lon="5.24006">
        <ele>217.2</ele>
        <time>2016-02-14T15:09:18Z</time>
      </trkpt>
      <trkpt lat="43.76434" lon="5.24006">
        <ele>216.9</ele>
        <time>2016-02-14T15:09:24Z</time>
      </trkpt>
      <trkpt lat="43.76424" lon="5.24003">
        <ele>216.5</ele>
        <time>2016-02-14T15:09:30Z</time>
      </trkpt>
      <trkpt lat="43.76414" lon="5.24">
        <ele>216.1</ele>
        <time>2016-02-14T15:09:35Z</time>
      </trkpt>
      <trkpt lat="43.76404" lon="5.23997">
        <ele>215.8</ele>
        <time>2016-02-14T15:09:41Z</time>
      </trkpt>
      <trkpt lat="43.76394" lon="5.23991">
        <ele>215.4</ele>
        <time>2016-02-14T15:09:48Z</time>
      </trkpt>
      <trkpt lat="43.76386" lon="5.23985">
        <ele>215</ele>
        <time>2016-02-14T15:09:54Z</time>
      </trkpt>
      <trkpt lat="43.76377" lon="5.23981">
        <ele>214.8</ele>
        <time>2016-02-14T15:09:59Z</time>
      </trkpt>
      <trkpt lat="43.76368" lon="5.23975">
        <ele>214.3</ele>
        <time>2016-02-14T15:10:05Z</time>
      </trkpt>
      <trkpt lat="43.76359" lon="5.23969">
        <ele>214</ele>
        <time>2016-02-14T15:10:10Z</time>
      </trkpt>
      <trkpt lat="43.7635" lon="5.23963">
        <ele>213.7</ele>
        <time>2016-02-14T15:10:16Z</time>
      </trkpt>
      <trkpt lat="43.76341" lon="5.2396">
        <ele>213.3</ele>
        <time>2016-02-14T15:10:22Z</time>
      </trkpt>
      <trkpt lat="43.76333" lon="5.23955">
        <ele>212.8</ele>
        <time>2016-02-14T15:10:28Z</time>
      </trkpt>
      <trkpt lat="43.76324" lon="5.23951">
        <ele>212.4</ele>
        <time>2016-02-14T15:10:33Z</time>
      </trkpt>
      <trkpt lat="43.76315" lon="5.23947">
        <ele>212</ele>
        <time>2016-02-14T15:10:38Z</time>
      </trkpt>
      <trkpt lat="43.76306" lon="5.23944">
        <ele>211.5</ele>
        <time>2016-02-14T15:10:45Z</time>
      </trkpt>
      <trkpt lat="43.76296" lon="5.23943">
        <ele>211</ele>
        <time>2016-02-14T15:10:51Z</time>
      </trkpt>
      <trkpt lat="43.76286" lon="5.23943">
        <ele>210.6</ele>
        <time>2016-02-14T15:10:57Z</time>
      </trkpt>
      <trkpt lat="43.76276" lon="5.23943">
        <ele>210.2</ele>
        <time>2016-02-14T15:11:03Z</time>
      </trkpt>
      <trkpt lat="43.76266" lon="5.23942">
        <ele>209.9</ele>
        <time>2016-02-14T15:11:09Z</time>
      </trkpt>
      <trkpt lat="43.76258" lon="5.23934">
        <ele>209.6</ele>
        <time>2016-02-14T15:11:16Z</time>
      </trkpt>
      <trkpt lat="43.76252" lon="5.23924">
        <ele>209.2</ele>
        <time>2016-02-14T15:11:23Z</time>
      </trkpt>
      <trkpt lat="43.76247" lon="5.23912">
        <ele>208.3</ele>
        <time>2016-02-14T15:11:31Z</time>
      </trkpt>
      <trkpt lat="43.76245" lon="5.23898">
        <ele>207.8</ele>
        <time>2016-02-14T15:11:37Z</time>
      </trkpt>
      <trkpt lat="43.76242" lon="5.23885">
        <ele>207.4</ele>
        <time>2016-02-14T15:11:44Z</time>
      </trkpt>
      <trkpt lat="43.76233" lon="5.23879">
        <ele>207.1</ele>
        <time>2016-02-14T15:11:49Z</time>
      </trkpt>
      <trkpt lat="43.76225" lon="5.2387">
        <ele>206.8</ele>
        <time>2016-02-14T15:11:56Z</time>
      </trkpt>
      <trkpt lat="43.76216" lon="5.23867">
        <ele>206.5</ele>
        <time>2016-02-14T15:12:02Z</time>
      </trkpt>
      <trkpt lat="43.76205" lon="5.23867">
        <ele>206.3</ele>
        <time>2016-02-14T15:12:07Z</time>
      </trkpt>
      <trkpt lat="43.76196" lon="5.23869">
        <ele>205.9</ele>
        <time>2016-02-14T15:12:14Z</time>
      </trkpt>
      <trkpt lat="43.76186" lon="5.23867">
        <ele>205.7</ele>
        <time>2016-02-14T15:12:21Z</time>
      </trkpt>
      <trkpt lat="43.76177" lon="5.23862">
        <ele>205.3</ele>
        <time>2016-02-14T15:12:27Z</time>
      </trkpt>
      <trkpt lat="43.76168" lon="5.23857">
        <ele>205.1</ele>
        <time>2016-02-14T15:12:33Z</time>
      </trkpt>
      <trkpt lat="43.76159" lon="5.23851">
        <ele>205</ele>
        <time>2016-02-14T15:12:39Z</time>
      </trkpt>
      <trkpt lat="43.76149" lon="5.2385">
        <ele>204.8</ele>
        <time>2016-02-14T15:12:44Z</time>
      </trkpt>
      <trkpt lat="43.76141" lon="5.23844">
        <ele>204.4</ele>
        <time>2016-02-14T15:12:50Z</time>
      </trkpt>
      <trkpt lat="43.76131" lon="5.23839">
        <ele>204</ele>
        <time>2016-02-14T15:12:56Z</time>
      </trkpt>
      <trkpt lat="43.76122" lon="5.23835">
        <ele>203.2</ele>
        <time>2016-02-14T15:13:02Z</time>
      </trkpt>
      <trkpt lat="43.76113" lon="5.23832">
        <ele>202.7</ele>
        <time>2016-02-14T15:13:08Z</time>
      </trkpt>
      <trkpt lat="43.76103" lon="5.23832">
        <ele>202.3</ele>
        <time>2016-02-14T15:13:13Z</time>
      </trkpt>
      <trkpt lat="43.76094" lon="5.23825">
        <ele>201.9</ele>
        <time>2016-02-14T15:13:19Z</time>
      </trkpt>
      <trkpt lat="43.76086" lon="5.23819">
        <ele>201.4</ele>
        <time>2016-02-14T15:13:25Z</time>
      </trkpt>
      <trkpt lat="43.76078" lon="5.23812">
        <ele>200.5</ele>
        <time>2016-02-14T15:13:32Z</time>
      </trkpt>
      <trkpt lat="43.76069" lon="5.23806">
        <ele>199.8</ele>
        <time>2016-02-14T15:13:38Z</time>
      </trkpt>
      <trkpt lat="43.7606" lon="5.23801">
        <ele>199.1</ele>
        <time>2016-02-14T15:13:44Z</time>
      </trkpt>
      <trkpt lat="43.76052" lon="5.23794">
        <ele>198.3</ele>
        <time>2016-02-14T15:13:50Z</time>
      </trkpt>
      <trkpt lat="43.76045" lon="5.23786">
        <ele>197.6</ele>
        <time>2016-02-14T15:13:57Z</time>
      </trkpt>
      <trkpt lat="43.76036" lon="5.23781">
        <ele>197</ele>
        <time>2016-02-14T15:14:03Z</time>
      </trkpt>
      <trkpt lat="43.76028" lon="5.23774">
        <ele>196</ele>
        <time>2016-02-14T15:14:09Z</time>
      </trkpt>
      <trkpt lat="43.76019" lon="5.23768">
        <ele>195.3</ele>
        <time>2016-02-14T15:14:15Z</time>
      </trkpt>
      <trkpt lat="43.76011" lon="5.23761">
        <ele>194.8</ele>
        <time>2016-02-14T15:14:20Z</time>
      </trkpt>
      <trkpt lat="43.76003" lon="5.23754">
        <ele>194.3</ele>
        <time>2016-02-14T15:14:26Z</time>
      </trkpt>
      <trkpt lat="43.75995" lon="5.23747">
        <ele>193.9</ele>
        <time>2016-02-14T15:14:32Z</time>
      </trkpt>
      <trkpt lat="43.75986" lon="5.23742">
        <ele>193.5</ele>
        <time>2016-02-14T15:14:39Z</time>
      </trkpt>
      <trkpt lat="43.75978" lon="5.23734">
        <ele>193.2</ele>
        <time>2016-02-14T15:14:46Z</time>
      </trkpt>
      <trkpt lat="43.7597" lon="5.23728">
        <ele>192.8</ele>
        <time>2016-02-14T15:14:54Z</time>
      </trkpt>
      <trkpt lat="43.75962" lon="5.23717">
        <ele>192.3</ele>
        <time>2016-02-14T15:15:02Z</time>
      </trkpt>
      <trkpt lat="43.75958" lon="5.23704">
        <ele>191.9</ele>
        <time>2016-02-14T15:15:07Z</time>
      </trkpt>
      <trkpt lat="43.7595" lon="5.23698">
        <ele>191.3</ele>
        <time>2016-02-14T15:15:13Z</time>
      </trkpt>
      <trkpt lat="43.75942" lon="5.23689">
        <ele>190.9</ele>
        <time>2016-02-14T15:15:18Z</time>
      </trkpt>
      <trkpt lat="43.75941" lon="5.23676">
        <ele>190.5</ele>
        <time>2016-02-14T15:15:23Z</time>
      </trkpt>
      <trkpt lat="43.75934" lon="5.23665">
        <ele>190.1</ele>
        <time>2016-02-14T15:15:30Z</time>
      </trkpt>
      <trkpt lat="43.75926" lon="5.23657">
        <ele>189.7</ele>
        <time>2016-02-14T15:15:35Z</time>
      </trkpt>
      <trkpt lat="43.75911" lon="5.23652">
        <ele>187.2</ele>
        <time>2016-02-14T15:16:25Z</time>
      </trkpt>
      <trkpt lat="43.75905" lon="5.23642">
        <ele>187.1</ele>
        <time>2016-02-14T15:16:31Z</time>
      </trkpt>
      <trkpt lat="43.75896" lon="5.23636">
        <ele>187</ele>
        <time>2016-02-14T15:16:38Z</time>
      </trkpt>
      <trkpt lat="43.75891" lon="5.23647">
        <ele>186.7</ele>
        <time>2016-02-14T15:16:47Z</time>
      </trkpt>
      <trkpt lat="43.75888" lon="5.23659">
        <ele>186.3</ele>
        <time>2016-02-14T15:16:53Z</time>
      </trkpt>
      <trkpt lat="43.75883" lon="5.2367">
        <ele>185.8</ele>
        <time>2016-02-14T15:16:58Z</time>
      </trkpt>
      <trkpt lat="43.75881" lon="5.23683">
        <ele>185.3</ele>
        <time>2016-02-14T15:17:04Z</time>
      </trkpt>
      <trkpt lat="43.75877" lon="5.23695">
        <ele>184.9</ele>
        <time>2016-02-14T15:17:10Z</time>
      </trkpt>
      <trkpt lat="43.75873" lon="5.23706">
        <ele>184.5</ele>
        <time>2016-02-14T15:17:16Z</time>
      </trkpt>
      <trkpt lat="43.7587" lon="5.23717">
        <ele>184.4</ele>
        <time>2016-02-14T15:17:23Z</time>
      </trkpt>
      <trkpt lat="43.75867" lon="5.2373">
        <ele>184.6</ele>
        <time>2016-02-14T15:17:30Z</time>
      </trkpt>
      <trkpt lat="43.75868" lon="5.23742">
        <ele>185</ele>
        <time>2016-02-14T15:17:41Z</time>
      </trkpt>
      <trkpt lat="43.75869" lon="5.23755">
        <ele>185.3</ele>
        <time>2016-02-14T15:17:48Z</time>
      </trkpt>
      <trkpt lat="43.75869" lon="5.23768">
        <ele>185.6</ele>
        <time>2016-02-14T15:17:54Z</time>
      </trkpt>
      <trkpt lat="43.75877" lon="5.23775">
        <ele>185.8</ele>
        <time>2016-02-14T15:18:08Z</time>
      </trkpt>
      <trkpt lat="43.75887" lon="5.23778">
        <ele>186.1</ele>
        <time>2016-02-14T15:18:21Z</time>
      </trkpt>
      <trkpt lat="43.75883" lon="5.2379">
        <ele>181.5</ele>
        <time>2016-02-14T15:20:27Z</time>
      </trkpt>
      <trkpt lat="43.75881" lon="5.23789">
        <ele>180.9</ele>
        <time>2016-02-14T15:20:33Z</time>
      </trkpt>
    </trkseg>
  </trk>
</gpx>